<?xml version="1.0" ?><gpx creator="GaiaGPS" version="1.1" xmlns="http://www.topografix.com/GPX/1/1" xmlns:xsi="http://www.w3.org/2001/XMLSchema-instance" xsi:schemaLocation="http://www.topografix.com/GPX/1/1 http://www.topografix.com/GPX/1/1/gpx.xsd"><trk><name>North couloir, McGown Peak</name><desc></desc><trkseg><trkpt lat="44.24726704135537" lon="-115.06587599404156"><ele>1992.2</ele><time>2020-05-16T16:55:55Z</time></trkpt><trkpt lat="44.24724801443517" lon="-115.065893009305"><ele>1992.6</ele><time>2020-05-16T16:58:23Z</time></trkpt><trkpt lat="44.24715899862349" lon="-115.06583500653505"><ele>1992.0</ele><time>2020-05-16T17:00:27Z</time></trkpt><trkpt lat="44.24708699807525" lon="-115.06567901931703"><ele>1992.0</ele><time>2020-05-16T17:00:39Z</time></trkpt><trkpt lat="44.24703000113368" lon="-115.06570902653039"><ele>1991.0</ele><time>2020-05-16T17:00:45Z</time></trkpt><trkpt lat="44.24700200557709" lon="-115.06568295881152"><ele>1990.0</ele><time>2020-05-16T17:00:48Z</time></trkpt><trkpt lat="44.24697803333402" lon="-115.06562302820385"><ele>1990.0</ele><time>2020-05-16T17:00:52Z</time></trkpt><trkpt lat="44.24695196561515" lon="-115.06549595855176"><ele>1992.0</ele><time>2020-05-16T17:00:59Z</time></trkpt><trkpt lat="44.24695196561515" lon="-115.06545597687364"><ele>1992.0</ele><time>2020-05-16T17:01:02Z</time></trkpt><trkpt lat="44.24687602557242" lon="-115.06535497494042"><ele>1980.0</ele><time>2020-05-16T17:01:21Z</time></trkpt><trkpt lat="44.2469790391624" lon="-115.06549302488565"><ele>1992.0</ele><time>2020-05-16T17:01:42Z</time></trkpt><trkpt lat="44.24705003388226" lon="-115.0656060129404"><ele>1992.0</ele><time>2020-05-16T17:01:49Z</time></trkpt><trkpt lat="44.24715204164386" lon="-115.06572998128831"><ele>1992.0</ele><time>2020-05-16T17:01:57Z</time></trkpt><trkpt lat="44.24724197946489" lon="-115.06588496267796"><ele>1992.0</ele><time>2020-05-16T17:02:34Z</time></trkpt><trkpt lat="44.247295036911964" lon="-115.06585001014173"><ele>1972.4</ele><time>2020-05-16T17:02:54Z</time></trkpt><trkpt lat="44.24731398001313" lon="-115.06589502096176"><ele>1980.4</ele><time>2020-05-16T17:02:55Z</time></trkpt><trkpt lat="44.24724399112165" lon="-115.0658599846065"><ele>1983.0</ele><time>2020-05-16T17:03:16Z</time></trkpt><trkpt lat="44.24711801111698" lon="-115.06571799516678"><ele>1988.0</ele><time>2020-05-16T17:03:47Z</time></trkpt><trkpt lat="44.2470480222255" lon="-115.06571003235877"><ele>1986.0</ele><time>2020-05-16T17:03:53Z</time></trkpt><trkpt lat="44.247018015012145" lon="-115.0656979624182"><ele>1986.0</ele><time>2020-05-16T17:03:55Z</time></trkpt><trkpt lat="44.24699496477842" lon="-115.06567197851837"><ele>1987.0</ele><time>2020-05-16T17:03:57Z</time></trkpt><trkpt lat="44.246979961171746" lon="-115.06563995964825"><ele>1986.0</ele><time>2020-05-16T17:03:59Z</time></trkpt><trkpt lat="44.24694400280714" lon="-115.06547299213707"><ele>1988.0</ele><time>2020-05-16T17:04:07Z</time></trkpt><trkpt lat="44.24689304083586" lon="-115.06537199020386"><ele>1987.0</ele><time>2020-05-16T17:04:13Z</time></trkpt><trkpt lat="44.2468529753387" lon="-115.06532899104059"><ele>1988.0</ele><time>2020-05-16T17:04:28Z</time></trkpt><trkpt lat="44.24668902531266" lon="-115.06522002629936"><ele>1986.0</ele><time>2020-05-16T17:04:43Z</time></trkpt><trkpt lat="44.24657201394439" lon="-115.06506303325295"><ele>1986.0</ele><time>2020-05-16T17:04:56Z</time></trkpt><trkpt lat="44.24648903310299" lon="-115.06499396637082"><ele>1986.0</ele><time>2020-05-16T17:05:04Z</time></trkpt><trkpt lat="44.24644896760583" lon="-115.06498298607767"><ele>1980.0</ele><time>2020-05-16T17:05:11Z</time></trkpt><trkpt lat="44.24644603393972" lon="-115.06495700217783"><ele>1986.0</ele><time>2020-05-16T17:05:19Z</time></trkpt><trkpt lat="44.246481992304325" lon="-115.06499899551272"><ele>1983.0</ele><time>2020-05-16T17:05:28Z</time></trkpt><trkpt lat="44.24644896760583" lon="-115.06502900272608"><ele>1985.0</ele><time>2020-05-16T17:05:38Z</time></trkpt><trkpt lat="44.246418038383126" lon="-115.06500603631139"><ele>1988.0</ele><time>2020-05-16T17:05:41Z</time></trkpt><trkpt lat="44.24631603062153" lon="-115.06483303382993"><ele>1987.0</ele><time>2020-05-16T17:05:50Z</time></trkpt><trkpt lat="44.24627403728664" lon="-115.06480797193944"><ele>1986.0</ele><time>2020-05-16T17:05:52Z</time></trkpt><trkpt lat="44.24623003229499" lon="-115.06480897776783"><ele>1987.0</ele><time>2020-05-16T17:05:54Z</time></trkpt><trkpt lat="44.2460810020566" lon="-115.06484200246632"><ele>1986.0</ele><time>2020-05-16T17:06:00Z</time></trkpt><trkpt lat="44.246010007336736" lon="-115.06486899219453"><ele>1986.0</ele><time>2020-05-16T17:06:05Z</time></trkpt><trkpt lat="44.245978994295" lon="-115.06489397026598"><ele>1986.0</ele><time>2020-05-16T17:06:08Z</time></trkpt><trkpt lat="44.24580096267164" lon="-115.06495499052107"><ele>1986.0</ele><time>2020-05-16T17:06:22Z</time></trkpt><trkpt lat="44.245684035122395" lon="-115.06494903936982"><ele>1986.0</ele><time>2020-05-16T17:06:31Z</time></trkpt><trkpt lat="44.24558496102691" lon="-115.06493202410638"><ele>1989.0</ele><time>2020-05-16T17:06:39Z</time></trkpt><trkpt lat="44.24551899544895" lon="-115.06497502326965"><ele>1986.0</ele><time>2020-05-16T17:06:46Z</time></trkpt><trkpt lat="44.245511032640934" lon="-115.06493596360087"><ele>1983.0</ele><time>2020-05-16T17:06:55Z</time></trkpt><trkpt lat="44.245556965470314" lon="-115.06492800079286"><ele>1986.0</ele><time>2020-05-16T17:07:01Z</time></trkpt><trkpt lat="44.24578101374209" lon="-115.06494401022792"><ele>1986.0</ele><time>2020-05-16T17:07:17Z</time></trkpt><trkpt lat="44.24587598070502" lon="-115.06491299718618"><ele>1986.0</ele><time>2020-05-16T17:07:23Z</time></trkpt><trkpt lat="44.24591202288866" lon="-115.06491400301456"><ele>1986.0</ele><time>2020-05-16T17:07:26Z</time></trkpt><trkpt lat="44.2462329659611" lon="-115.06477796472609"><ele>1986.0</ele><time>2020-05-16T17:07:48Z</time></trkpt><trkpt lat="44.24630496650934" lon="-115.06479104049504"><ele>1987.0</ele><time>2020-05-16T17:07:52Z</time></trkpt><trkpt lat="44.24639901146293" lon="-115.06486002355814"><ele>1987.6</ele><time>2020-05-16T17:08:00Z</time></trkpt><trkpt lat="44.24643203616142" lon="-115.06486304104328"><ele>1985.0</ele><time>2020-05-16T17:08:04Z</time></trkpt><trkpt lat="44.24644603393972" lon="-115.06491098552942"><ele>1988.0</ele><time>2020-05-16T17:08:07Z</time></trkpt><trkpt lat="44.24643496982753" lon="-115.0650689844042"><ele>1988.0</ele><time>2020-05-16T17:08:15Z</time></trkpt><trkpt lat="44.246418038383126" lon="-115.06513603962958"><ele>1987.0</ele><time>2020-05-16T17:08:19Z</time></trkpt><trkpt lat="44.246415020897985" lon="-115.0653279852122"><ele>1986.0</ele><time>2020-05-16T17:08:32Z</time></trkpt><trkpt lat="44.24640404060483" lon="-115.06540702655911"><ele>1988.0</ele><time>2020-05-16T17:08:36Z</time></trkpt><trkpt lat="44.24641300924122" lon="-115.06548003293574"><ele>1986.0</ele><time>2020-05-16T17:08:41Z</time></trkpt><trkpt lat="44.24643295817077" lon="-115.0655269715935"><ele>1988.0</ele><time>2020-05-16T17:08:46Z</time></trkpt><trkpt lat="44.246457014232874" lon="-115.06554298102856"><ele>1986.0</ele><time>2020-05-16T17:08:53Z</time></trkpt><trkpt lat="44.24638501368463" lon="-115.06561799906194"><ele>1986.0</ele><time>2020-05-16T17:09:23Z</time></trkpt><trkpt lat="44.24634100869298" lon="-115.06560802459717"><ele>1985.0</ele><time>2020-05-16T17:09:29Z</time></trkpt><trkpt lat="44.246285017579794" lon="-115.06565596908331"><ele>1984.0</ele><time>2020-05-16T17:09:36Z</time></trkpt><trkpt lat="44.246269008144736" lon="-115.06568999961019"><ele>1986.0</ele><time>2020-05-16T17:09:40Z</time></trkpt><trkpt lat="44.24623003229499" lon="-115.0657360162586"><ele>1986.0</ele><time>2020-05-16T17:09:54Z</time></trkpt><trkpt lat="44.24623397178948" lon="-115.06577398627996"><ele>1981.0</ele><time>2020-05-16T17:10:01Z</time></trkpt><trkpt lat="44.2462519928813" lon="-115.0657999701798"><ele>1986.0</ele><time>2020-05-16T17:10:06Z</time></trkpt><trkpt lat="44.24620698206127" lon="-115.0658980384469"><ele>1980.0</ele><time>2020-05-16T17:10:24Z</time></trkpt><trkpt lat="44.24617496319115" lon="-115.06589099764824"><ele>1984.0</ele><time>2020-05-16T17:10:59Z</time></trkpt><trkpt lat="44.2461880389601" lon="-115.06584598682821"><ele>1986.0</ele><time>2020-05-16T17:11:10Z</time></trkpt><trkpt lat="44.24614503979683" lon="-115.06579301320016"><ele>1981.0</ele><time>2020-05-16T17:11:21Z</time></trkpt><trkpt lat="44.246114026755095" lon="-115.06578798405826"><ele>1985.0</ele><time>2020-05-16T17:11:27Z</time></trkpt><trkpt lat="44.24610296264291" lon="-115.06575202569366"><ele>1985.9</ele><time>2020-05-16T17:11:52Z</time></trkpt><trkpt lat="44.24612098373473" lon="-115.06574800238013"><ele>1983.0</ele><time>2020-05-16T17:11:56Z</time></trkpt><trkpt lat="44.24602601677179" lon="-115.0656699668616"><ele>1981.0</ele><time>2020-05-16T17:12:16Z</time></trkpt><trkpt lat="44.2459290381521" lon="-115.06569603458047"><ele>1984.0</ele><time>2020-05-16T17:12:41Z</time></trkpt><trkpt lat="44.24591302871704" lon="-115.06575101986527"><ele>1985.0</ele><time>2020-05-16T17:12:47Z</time></trkpt><trkpt lat="44.24586500041187" lon="-115.0657999701798"><ele>1984.0</ele><time>2020-05-16T17:12:53Z</time></trkpt><trkpt lat="44.245858965441585" lon="-115.0658599846065"><ele>1985.0</ele><time>2020-05-16T17:13:06Z</time></trkpt><trkpt lat="44.245771039277315" lon="-115.06592502817512"><ele>1984.0</ele><time>2020-05-16T17:13:16Z</time></trkpt><trkpt lat="44.2457390204072" lon="-115.06590600125492"><ele>1985.0</ele><time>2020-05-16T17:13:20Z</time></trkpt><trkpt lat="44.24571697600186" lon="-115.06587297655642"><ele>1986.0</ele><time>2020-05-16T17:13:24Z</time></trkpt><trkpt lat="44.24567699432373" lon="-115.06586501374841"><ele>1986.0</ele><time>2020-05-16T17:13:32Z</time></trkpt><trkpt lat="44.24555000849068" lon="-115.06586199626327"><ele>1986.0</ele><time>2020-05-16T17:13:47Z</time></trkpt><trkpt lat="44.24548496492207" lon="-115.06587699986994"><ele>1986.0</ele><time>2020-05-16T17:13:53Z</time></trkpt><trkpt lat="44.24545302987099" lon="-115.06586702540517"><ele>1980.0</ele><time>2020-05-16T17:13:59Z</time></trkpt><trkpt lat="44.245430985465646" lon="-115.06589602679014"><ele>1985.0</ele><time>2020-05-16T17:14:06Z</time></trkpt><trkpt lat="44.24525496549904" lon="-115.0660309754312"><ele>1986.2</ele><time>2020-05-16T17:15:18Z</time></trkpt><trkpt lat="44.245196962729096" lon="-115.06604203954339"><ele>1986.0</ele><time>2020-05-16T17:15:25Z</time></trkpt><trkpt lat="44.24514197744429" lon="-115.06602100096643"><ele>1984.0</ele><time>2020-05-16T17:15:33Z</time></trkpt><trkpt lat="44.2450360301882" lon="-115.06603298708797"><ele>1986.0</ele><time>2020-05-16T17:15:48Z</time></trkpt><trkpt lat="44.245000993832946" lon="-115.06602301262319"><ele>1986.0</ele><time>2020-05-16T17:15:51Z</time></trkpt><trkpt lat="44.24497400410473" lon="-115.06600297987461"><ele>1986.0</ele><time>2020-05-16T17:15:54Z</time></trkpt><trkpt lat="44.244957994669676" lon="-115.06597498431802"><ele>1986.0</ele><time>2020-05-16T17:15:57Z</time></trkpt><trkpt lat="44.24490803852677" lon="-115.06596500985324"><ele>1986.0</ele><time>2020-05-16T17:16:02Z</time></trkpt><trkpt lat="44.24485799856484" lon="-115.06599401123822"><ele>1986.0</ele><time>2020-05-16T17:16:06Z</time></trkpt><trkpt lat="44.24479303881526" lon="-115.06600096821785"><ele>1986.0</ele><time>2020-05-16T17:16:10Z</time></trkpt><trkpt lat="44.244761019945145" lon="-115.06601496599615"><ele>1986.0</ele><time>2020-05-16T17:16:13Z</time></trkpt><trkpt lat="44.24463001079857" lon="-115.06611001677811"><ele>1986.0</ele><time>2020-05-16T17:16:24Z</time></trkpt><trkpt lat="44.24459497444332" lon="-115.06612602621317"><ele>1986.0</ele><time>2020-05-16T17:16:33Z</time></trkpt><trkpt lat="44.24449698999524" lon="-115.06611596792936"><ele>1986.0</ele><time>2020-05-16T17:16:42Z</time></trkpt><trkpt lat="44.24439498223364" lon="-115.06615896709263"><ele>1986.0</ele><time>2020-05-16T17:16:51Z</time></trkpt><trkpt lat="44.24427101388574" lon="-115.06641897372901"><ele>1986.0</ele><time>2020-05-16T17:17:08Z</time></trkpt><trkpt lat="44.24406096339226" lon="-115.06662801839411"><ele>1986.0</ele><time>2020-05-16T17:17:26Z</time></trkpt><trkpt lat="44.24396096728742" lon="-115.06669297814369"><ele>1986.0</ele><time>2020-05-16T17:17:35Z</time></trkpt><trkpt lat="44.2438879609108" lon="-115.06681703031063"><ele>1986.0</ele><time>2020-05-16T17:17:45Z</time></trkpt><trkpt lat="44.24386499449611" lon="-115.0668880250305"><ele>1986.0</ele><time>2020-05-16T17:17:49Z</time></trkpt><trkpt lat="44.24385502003133" lon="-115.06708902306855"><ele>1986.0</ele><time>2020-05-16T17:17:59Z</time></trkpt><trkpt lat="44.243796011433005" lon="-115.0673450063914"><ele>1986.0</ele><time>2020-05-16T17:18:13Z</time></trkpt><trkpt lat="44.243773967027664" lon="-115.06755002774298"><ele>1984.0</ele><time>2020-05-16T17:18:25Z</time></trkpt><trkpt lat="44.24378301948309" lon="-115.06781397387385"><ele>1984.0</ele><time>2020-05-16T17:18:39Z</time></trkpt><trkpt lat="44.24371303059161" lon="-115.06827497854829"><ele>1984.0</ele><time>2020-05-16T17:19:03Z</time></trkpt><trkpt lat="44.24367195926607" lon="-115.06862400099635"><ele>1985.0</ele><time>2020-05-16T17:19:22Z</time></trkpt><trkpt lat="44.24367698840797" lon="-115.06869801320136"><ele>1985.0</ele><time>2020-05-16T17:19:26Z</time></trkpt><trkpt lat="44.24380196258426" lon="-115.06906103342772"><ele>1984.0</ele><time>2020-05-16T17:19:46Z</time></trkpt><trkpt lat="44.2438290361315" lon="-115.06927804090083"><ele>1984.0</ele><time>2020-05-16T17:19:58Z</time></trkpt><trkpt lat="44.243944035843015" lon="-115.06951600313187"><ele>1985.0</ele><time>2020-05-16T17:20:13Z</time></trkpt><trkpt lat="44.24398200586438" lon="-115.06966603919864"><ele>1984.0</ele><time>2020-05-16T17:20:21Z</time></trkpt><trkpt lat="44.244034979492426" lon="-115.0698060169816"><ele>1985.0</ele><time>2020-05-16T17:20:29Z</time></trkpt><trkpt lat="44.2440830077976" lon="-115.07010198198259"><ele>1985.0</ele><time>2020-05-16T17:20:45Z</time></trkpt><trkpt lat="44.24407001584768" lon="-115.07048402912915"><ele>1986.0</ele><time>2020-05-16T17:21:06Z</time></trkpt><trkpt lat="44.24403900280595" lon="-115.07064403966069"><ele>1986.0</ele><time>2020-05-16T17:21:14Z</time></trkpt><trkpt lat="44.24399801529944" lon="-115.07079399190843"><ele>1986.0</ele><time>2020-05-16T17:21:22Z</time></trkpt><trkpt lat="44.24399298615754" lon="-115.0708700157702"><ele>1986.0</ele><time>2020-05-16T17:21:26Z</time></trkpt><trkpt lat="44.24396398477256" lon="-115.07100496441126"><ele>1986.0</ele><time>2020-05-16T17:21:33Z</time></trkpt><trkpt lat="44.24393297173083" lon="-115.07129799574614"><ele>1986.0</ele><time>2020-05-16T17:21:48Z</time></trkpt><trkpt lat="44.24387102946639" lon="-115.07152196019888"><ele>1986.0</ele><time>2020-05-16T17:22:00Z</time></trkpt><trkpt lat="44.243856025859714" lon="-115.07176796905696"><ele>1986.0</ele><time>2020-05-16T17:22:12Z</time></trkpt><trkpt lat="44.24380598589778" lon="-115.07208597846329"><ele>1987.1</ele><time>2020-05-16T17:22:31Z</time></trkpt><trkpt lat="44.243753012269735" lon="-115.07221195846796"><ele>1986.0</ele><time>2020-05-16T17:22:38Z</time></trkpt><trkpt lat="44.24368201754987" lon="-115.0723029859364"><ele>1984.0</ele><time>2020-05-16T17:22:46Z</time></trkpt><trkpt lat="44.243600964546204" lon="-115.07251303642988"><ele>1986.0</ele><time>2020-05-16T17:22:59Z</time></trkpt><trkpt lat="44.24352896399796" lon="-115.07263398729265"><ele>1986.0</ele><time>2020-05-16T17:23:07Z</time></trkpt><trkpt lat="44.24350499175489" lon="-115.07278100587428"><ele>1986.0</ele><time>2020-05-16T17:23:16Z</time></trkpt><trkpt lat="44.24333701841533" lon="-115.07308300584555"><ele>1986.0</ele><time>2020-05-16T17:23:35Z</time></trkpt><trkpt lat="44.24333903007209" lon="-115.07327998057008"><ele>1986.0</ele><time>2020-05-16T17:23:56Z</time></trkpt><trkpt lat="44.24331899732351" lon="-115.07332499139011"><ele>1986.0</ele><time>2020-05-16T17:24:00Z</time></trkpt><trkpt lat="44.243277003988624" lon="-115.07352096028626"><ele>1986.0</ele><time>2020-05-16T17:24:10Z</time></trkpt><trkpt lat="44.24316401593387" lon="-115.07383997552097"><ele>1986.0</ele><time>2020-05-16T17:24:28Z</time></trkpt><trkpt lat="44.24308002926409" lon="-115.07397500798106"><ele>1986.0</ele><time>2020-05-16T17:24:36Z</time></trkpt><trkpt lat="44.2429640237242" lon="-115.07407098077238"><ele>1986.0</ele><time>2020-05-16T17:24:46Z</time></trkpt><trkpt lat="44.24288799986243" lon="-115.0741490162909"><ele>1986.0</ele><time>2020-05-16T17:24:53Z</time></trkpt><trkpt lat="44.242722038179636" lon="-115.07436602376401"><ele>1986.0</ele><time>2020-05-16T17:25:09Z</time></trkpt><trkpt lat="44.24262396991253" lon="-115.07458303123713"><ele>1986.0</ele><time>2020-05-16T17:25:22Z</time></trkpt><trkpt lat="44.242633022367954" lon="-115.07471102289855"><ele>1987.0</ele><time>2020-05-16T17:25:28Z</time></trkpt><trkpt lat="44.24270401708782" lon="-115.07493901066482"><ele>1987.0</ele><time>2020-05-16T17:25:40Z</time></trkpt><trkpt lat="44.24272698350251" lon="-115.07497396320105"><ele>1987.0</ele><time>2020-05-16T17:25:42Z</time></trkpt><trkpt lat="44.242788003757596" lon="-115.07502500899136"><ele>1987.0</ele><time>2020-05-16T17:25:47Z</time></trkpt><trkpt lat="44.24283301457763" lon="-115.0750779826194"><ele>1987.0</ele><time>2020-05-16T17:25:51Z</time></trkpt><trkpt lat="44.24290602095425" lon="-115.07520304061472"><ele>1987.0</ele><time>2020-05-16T17:25:59Z</time></trkpt><trkpt lat="44.24296603538096" lon="-115.07540403865278"><ele>1987.0</ele><time>2020-05-16T17:26:10Z</time></trkpt><trkpt lat="44.24301096238196" lon="-115.07573596201837"><ele>1988.0</ele><time>2020-05-16T17:26:28Z</time></trkpt><trkpt lat="44.24301196821034" lon="-115.07589999586344"><ele>1988.0</ele><time>2020-05-16T17:26:36Z</time></trkpt><trkpt lat="44.24298397265375" lon="-115.07612102665007"><ele>1988.0</ele><time>2020-05-16T17:26:48Z</time></trkpt><trkpt lat="44.24292102456093" lon="-115.07633903995156"><ele>1990.0</ele><time>2020-05-16T17:27:01Z</time></trkpt><trkpt lat="44.2428569868207" lon="-115.0764390360564"><ele>1989.0</ele><time>2020-05-16T17:27:08Z</time></trkpt><trkpt lat="44.24275699071586" lon="-115.07669996470213"><ele>1990.0</ele><time>2020-05-16T17:27:22Z</time></trkpt><trkpt lat="44.24272798933089" lon="-115.07700297050178"><ele>1990.0</ele><time>2020-05-16T17:27:38Z</time></trkpt><trkpt lat="44.242659006267786" lon="-115.07724202238023"><ele>1990.0</ele><time>2020-05-16T17:27:52Z</time></trkpt><trkpt lat="44.242591029033065" lon="-115.07742600515485"><ele>1990.0</ele><time>2020-05-16T17:28:02Z</time></trkpt><trkpt lat="44.242460019886494" lon="-115.07770403288305"><ele>1991.0</ele><time>2020-05-16T17:28:18Z</time></trkpt><trkpt lat="44.242400005459785" lon="-115.07790402509272"><ele>1992.0</ele><time>2020-05-16T17:28:29Z</time></trkpt><trkpt lat="44.24239003099501" lon="-115.07797300815582"><ele>1992.6</ele><time>2020-05-16T17:28:33Z</time></trkpt><trkpt lat="44.242400005459785" lon="-115.0780760217458"><ele>1991.0</ele><time>2020-05-16T17:28:38Z</time></trkpt><trkpt lat="44.24243303015828" lon="-115.07819001562893"><ele>1991.0</ele><time>2020-05-16T17:28:44Z</time></trkpt><trkpt lat="44.24247804097831" lon="-115.07829504087567"><ele>1992.0</ele><time>2020-05-16T17:28:50Z</time></trkpt><trkpt lat="44.24251802265644" lon="-115.07858103141189"><ele>1992.0</ele><time>2020-05-16T17:29:04Z</time></trkpt><trkpt lat="44.242507964372635" lon="-115.0786859728396"><ele>1991.0</ele><time>2020-05-16T17:29:11Z</time></trkpt><trkpt lat="44.24245499074459" lon="-115.07882301695645"><ele>1992.0</ele><time>2020-05-16T17:29:19Z</time></trkpt><trkpt lat="44.2424320243299" lon="-115.07913599722087"><ele>1992.0</ele><time>2020-05-16T17:29:35Z</time></trkpt><trkpt lat="44.2423939704895" lon="-115.07935300469398"><ele>1992.0</ele><time>2020-05-16T17:29:47Z</time></trkpt><trkpt lat="44.242396987974644" lon="-115.07954000495374"><ele>1992.0</ele><time>2020-05-16T17:29:57Z</time></trkpt><trkpt lat="44.24236496910453" lon="-115.07969004102051"><ele>1992.0</ele><time>2020-05-16T17:30:05Z</time></trkpt><trkpt lat="44.24232800491154" lon="-115.0797460321337"><ele>1992.0</ele><time>2020-05-16T17:30:09Z</time></trkpt><trkpt lat="44.24230101518333" lon="-115.07977000437677"><ele>1993.1</ele><time>2020-05-16T17:30:12Z</time></trkpt><trkpt lat="44.24227402545512" lon="-115.07998399436474"><ele>1993.0</ele><time>2020-05-16T17:30:22Z</time></trkpt><trkpt lat="44.242290034890175" lon="-115.08005901239812"><ele>1993.0</ele><time>2020-05-16T17:30:28Z</time></trkpt><trkpt lat="44.24227695912123" lon="-115.08018599823117"><ele>1992.0</ele><time>2020-05-16T17:30:34Z</time></trkpt><trkpt lat="44.242225997149944" lon="-115.08030602708459"><ele>1992.0</ele><time>2020-05-16T17:30:41Z</time></trkpt><trkpt lat="44.24220101907849" lon="-115.0804299954325"><ele>1992.0</ele><time>2020-05-16T17:30:47Z</time></trkpt><trkpt lat="44.24217101186514" lon="-115.08051599375904"><ele>1992.0</ele><time>2020-05-16T17:30:51Z</time></trkpt><trkpt lat="44.24208099022508" lon="-115.08065697737038"><ele>1992.0</ele><time>2020-05-16T17:30:58Z</time></trkpt><trkpt lat="44.241970013827085" lon="-115.08077901788056"><ele>1992.0</ele><time>2020-05-16T17:31:09Z</time></trkpt><trkpt lat="44.241858031600714" lon="-115.0809429679066"><ele>1994.0</ele><time>2020-05-16T17:31:19Z</time></trkpt><trkpt lat="44.24178301356733" lon="-115.08100398816168"><ele>1994.0</ele><time>2020-05-16T17:31:25Z</time></trkpt><trkpt lat="44.241754012182355" lon="-115.08101597428322"><ele>1992.0</ele><time>2020-05-16T17:31:27Z</time></trkpt><trkpt lat="44.24161001108587" lon="-115.08100599981844"><ele>1994.0</ele><time>2020-05-16T17:31:39Z</time></trkpt><trkpt lat="44.241471039131284" lon="-115.08102301508188"><ele>1994.0</ele><time>2020-05-16T17:31:48Z</time></trkpt><trkpt lat="44.24137498252094" lon="-115.08104899898171"><ele>1992.0</ele><time>2020-05-16T17:31:55Z</time></trkpt><trkpt lat="44.24130700528622" lon="-115.08110599592328"><ele>1994.0</ele><time>2020-05-16T17:32:00Z</time></trkpt><trkpt lat="44.2411869764328" lon="-115.08124597370625"><ele>1994.0</ele><time>2020-05-16T17:32:10Z</time></trkpt><trkpt lat="44.2411179933697" lon="-115.08137396536767"><ele>1994.0</ele><time>2020-05-16T17:32:19Z</time></trkpt><trkpt lat="44.24107801169157" lon="-115.08142601698637"><ele>1994.0</ele><time>2020-05-16T17:32:23Z</time></trkpt><trkpt lat="44.24099402502179" lon="-115.08150396868587"><ele>1994.0</ele><time>2020-05-16T17:32:30Z</time></trkpt><trkpt lat="44.240747010335326" lon="-115.08169298060238"><ele>1994.0</ele><time>2020-05-16T17:32:49Z</time></trkpt><trkpt lat="44.24046998843551" lon="-115.08182298392057"><ele>1995.0</ele><time>2020-05-16T17:33:11Z</time></trkpt><trkpt lat="44.24044903367758" lon="-115.08184796199203"><ele>1995.0</ele><time>2020-05-16T17:33:14Z</time></trkpt><trkpt lat="44.240421960130334" lon="-115.08192499168217"><ele>1995.0</ele><time>2020-05-16T17:33:18Z</time></trkpt><trkpt lat="44.24041802063584" lon="-115.08204602636397"><ele>1996.0</ele><time>2020-05-16T17:33:24Z</time></trkpt><trkpt lat="44.24045397900045" lon="-115.08225297555327"><ele>1994.0</ele><time>2020-05-16T17:33:35Z</time></trkpt><trkpt lat="44.24047803506255" lon="-115.08250099606812"><ele>1995.0</ele><time>2020-05-16T17:33:47Z</time></trkpt><trkpt lat="44.24046101979911" lon="-115.08273099549115"><ele>1994.0</ele><time>2020-05-16T17:33:58Z</time></trkpt><trkpt lat="44.240429000929" lon="-115.08280701935291"><ele>1994.0</ele><time>2020-05-16T17:34:02Z</time></trkpt><trkpt lat="44.240293968468904" lon="-115.08296200074255"><ele>1994.0</ele><time>2020-05-16T17:34:15Z</time></trkpt><trkpt lat="44.240253986790776" lon="-115.08302201516926"><ele>1995.0</ele><time>2020-05-16T17:34:19Z</time></trkpt><trkpt lat="44.24019103869796" lon="-115.08307700045407"><ele>1995.0</ele><time>2020-05-16T17:34:24Z</time></trkpt><trkpt lat="44.240014012902975" lon="-115.08331898599863"><ele>1995.0</ele><time>2020-05-16T17:34:40Z</time></trkpt><trkpt lat="44.23989800736308" lon="-115.08355099707842"><ele>1995.0</ele><time>2020-05-16T17:34:55Z</time></trkpt><trkpt lat="44.23978895880282" lon="-115.08373296819627"><ele>1996.0</ele><time>2020-05-16T17:35:07Z</time></trkpt><trkpt lat="44.239670019596815" lon="-115.08400403894484"><ele>1996.0</ele><time>2020-05-16T17:35:23Z</time></trkpt><trkpt lat="44.239566000178456" lon="-115.08415902033448"><ele>1995.0</ele><time>2020-05-16T17:35:33Z</time></trkpt><trkpt lat="44.23946097493172" lon="-115.0842460244894"><ele>1995.0</ele><time>2020-05-16T17:35:41Z</time></trkpt><trkpt lat="44.239391991868615" lon="-115.08432003669441"><ele>1995.0</ele><time>2020-05-16T17:35:47Z</time></trkpt><trkpt lat="44.23929702490568" lon="-115.08438097313046"><ele>1996.0</ele><time>2020-05-16T17:35:55Z</time></trkpt><trkpt lat="44.239156041294336" lon="-115.08450301364064"><ele>1996.0</ele><time>2020-05-16T17:36:08Z</time></trkpt><trkpt lat="44.23904196359217" lon="-115.08454802446067"><ele>1996.0</ele><time>2020-05-16T17:36:16Z</time></trkpt><trkpt lat="44.238943979144096" lon="-115.08457300253212"><ele>1996.0</ele><time>2020-05-16T17:36:23Z</time></trkpt><trkpt lat="44.238749016076326" lon="-115.08468196727335"><ele>1998.0</ele><time>2020-05-16T17:36:38Z</time></trkpt><trkpt lat="44.23862203024328" lon="-115.08486301638186"><ele>1998.0</ele><time>2020-05-16T17:36:51Z</time></trkpt><trkpt lat="44.238555980846286" lon="-115.08498103357852"><ele>1998.0</ele><time>2020-05-16T17:36:58Z</time></trkpt><trkpt lat="44.238464031368494" lon="-115.08510801941156"><ele>1998.0</ele><time>2020-05-16T17:37:09Z</time></trkpt><trkpt lat="44.23835498280823" lon="-115.08522503077984"><ele>1998.0</ele><time>2020-05-16T17:37:17Z</time></trkpt><trkpt lat="44.238254986703396" lon="-115.085384035483"><ele>1998.0</ele><time>2020-05-16T17:37:28Z</time></trkpt><trkpt lat="44.238147027790546" lon="-115.08545503020287"><ele>1998.0</ele><time>2020-05-16T17:37:37Z</time></trkpt><trkpt lat="44.23800000920892" lon="-115.0855169724673"><ele>1998.0</ele><time>2020-05-16T17:37:48Z</time></trkpt><trkpt lat="44.23796203918755" lon="-115.08553197607398"><ele>1998.9</ele><time>2020-05-16T17:37:56Z</time></trkpt><trkpt lat="44.23796396702528" lon="-115.0854759849608"><ele>1998.0</ele><time>2020-05-16T17:38:01Z</time></trkpt><trkpt lat="44.23792700283229" lon="-115.08525696583092"><ele>1998.0</ele><time>2020-05-16T17:38:11Z</time></trkpt><trkpt lat="44.237804962322116" lon="-115.08504699915648"><ele>1998.0</ele><time>2020-05-16T17:38:25Z</time></trkpt><trkpt lat="44.23773396760225" lon="-115.08501397445798"><ele>1998.0</ele><time>2020-05-16T17:38:30Z</time></trkpt><trkpt lat="44.23770597204566" lon="-115.08498899638653"><ele>1996.0</ele><time>2020-05-16T17:38:33Z</time></trkpt><trkpt lat="44.23768602311611" lon="-115.08494700305164"><ele>1996.0</ele><time>2020-05-16T17:38:42Z</time></trkpt><trkpt lat="44.237589966505766" lon="-115.08482898585498"><ele>1996.0</ele><time>2020-05-16T17:39:04Z</time></trkpt><trkpt lat="44.23746599815786" lon="-115.0847090408206"><ele>1995.0</ele><time>2020-05-16T17:39:14Z</time></trkpt><trkpt lat="44.23739802092314" lon="-115.08468699641526"><ele>1995.0</ele><time>2020-05-16T17:39:19Z</time></trkpt><trkpt lat="44.237368013709784" lon="-115.08466503582895"><ele>1996.0</ele><time>2020-05-16T17:39:22Z</time></trkpt><trkpt lat="44.2371909879148" lon="-115.08447099477053"><ele>1996.0</ele><time>2020-05-16T17:39:38Z</time></trkpt><trkpt lat="44.237136002629995" lon="-115.08444601669908"><ele>1995.0</ele><time>2020-05-16T17:39:43Z</time></trkpt><trkpt lat="44.23706500791013" lon="-115.08432003669441"><ele>1996.0</ele><time>2020-05-16T17:39:52Z</time></trkpt><trkpt lat="44.23684196546674" lon="-115.08402298204601"><ele>1996.0</ele><time>2020-05-16T17:40:14Z</time></trkpt><trkpt lat="44.23675202764571" lon="-115.08387302979827"><ele>1995.0</ele><time>2020-05-16T17:40:24Z</time></trkpt><trkpt lat="44.236597968265414" lon="-115.08372701704502"><ele>1995.0</ele><time>2020-05-16T17:40:37Z</time></trkpt><trkpt lat="44.2364520393312" lon="-115.08362500928342"><ele>1994.0</ele><time>2020-05-16T17:40:48Z</time></trkpt><trkpt lat="44.2363500315696" lon="-115.08357396349311"><ele>1994.0</ele><time>2020-05-16T17:40:56Z</time></trkpt><trkpt lat="44.23631499521434" lon="-115.08356801234186"><ele>1992.0</ele><time>2020-05-16T17:40:58Z</time></trkpt><trkpt lat="44.236127994954586" lon="-115.08359399624169"><ele>1992.0</ele><time>2020-05-16T17:41:14Z</time></trkpt><trkpt lat="44.235977958887815" lon="-115.08351403288543"><ele>1994.0</ele><time>2020-05-16T17:41:26Z</time></trkpt><trkpt lat="44.235763968899846" lon="-115.08347899653018"><ele>1993.5</ele><time>2020-05-16T17:41:42Z</time></trkpt><trkpt lat="44.23566497862339" lon="-115.08359299041331"><ele>1992.0</ele><time>2020-05-16T17:41:51Z</time></trkpt><trkpt lat="44.23560001887381" lon="-115.08360598236322"><ele>1992.0</ele><time>2020-05-16T17:42:00Z</time></trkpt><trkpt lat="44.23553204163909" lon="-115.08365199901164"><ele>1994.0</ele><time>2020-05-16T17:42:05Z</time></trkpt><trkpt lat="44.23546498641372" lon="-115.08366096764803"><ele>1992.0</ele><time>2020-05-16T17:42:09Z</time></trkpt><trkpt lat="44.235437996685505" lon="-115.08364797569811"><ele>1994.0</ele><time>2020-05-16T17:42:11Z</time></trkpt><trkpt lat="44.23536700196564" lon="-115.0837039668113"><ele>1992.0</ele><time>2020-05-16T17:42:21Z</time></trkpt><trkpt lat="44.235332971438766" lon="-115.08371695876122"><ele>1992.0</ele><time>2020-05-16T17:42:25Z</time></trkpt><trkpt lat="44.235246973112226" lon="-115.0837089959532"><ele>1992.0</ele><time>2020-05-16T17:42:47Z</time></trkpt><trkpt lat="44.235212020576" lon="-115.083689969033"><ele>1992.0</ele><time>2020-05-16T17:42:52Z</time></trkpt><trkpt lat="44.23517698422074" lon="-115.08369902148843"><ele>1995.0</ele><time>2020-05-16T17:42:56Z</time></trkpt><trkpt lat="44.23504203557968" lon="-115.08366599678993"><ele>1995.0</ele><time>2020-05-16T17:43:07Z</time></trkpt><trkpt lat="44.23496802337468" lon="-115.08367697708309"><ele>1995.0</ele><time>2020-05-16T17:43:12Z</time></trkpt><trkpt lat="44.23490499146283" lon="-115.08363699540496"><ele>1995.0</ele><time>2020-05-16T17:43:17Z</time></trkpt><trkpt lat="44.234833996742964" lon="-115.0835469737649"><ele>1996.0</ele><time>2020-05-16T17:43:23Z</time></trkpt><trkpt lat="44.23471497371793" lon="-115.08328101597726"><ele>1995.0</ele><time>2020-05-16T17:43:39Z</time></trkpt><trkpt lat="44.23456803895533" lon="-115.08316400460899"><ele>1994.0</ele><time>2020-05-16T17:43:51Z</time></trkpt><trkpt lat="44.234406016767025" lon="-115.08301296271384"><ele>1994.0</ele><time>2020-05-16T17:44:05Z</time></trkpt><trkpt lat="44.23430803231895" lon="-115.08297398686409"><ele>1995.0</ele><time>2020-05-16T17:44:12Z</time></trkpt><trkpt lat="44.23424701206386" lon="-115.08293601684272"><ele>1992.0</ele><time>2020-05-16T17:44:24Z</time></trkpt><trkpt lat="44.23420099541545" lon="-115.08294004015625"><ele>1995.0</ele><time>2020-05-16T17:44:28Z</time></trkpt><trkpt lat="44.23416503705084" lon="-115.08292797021568"><ele>1995.0</ele><time>2020-05-16T17:44:31Z</time></trkpt><trkpt lat="44.23409798182547" lon="-115.08288002572954"><ele>1995.0</ele><time>2020-05-16T17:44:38Z</time></trkpt><trkpt lat="44.233997985720634" lon="-115.08283702656627"><ele>1995.0</ele><time>2020-05-16T17:44:45Z</time></trkpt><trkpt lat="44.233763962984085" lon="-115.08266997523606"><ele>1995.0</ele><time>2020-05-16T17:45:03Z</time></trkpt><trkpt lat="44.23368802294135" lon="-115.0825989805162"><ele>1995.0</ele><time>2020-05-16T17:45:10Z</time></trkpt><trkpt lat="44.23345701768994" lon="-115.0824880041182"><ele>1995.0</ele><time>2020-05-16T17:45:27Z</time></trkpt><trkpt lat="44.233248978853226" lon="-115.08243402466178"><ele>1994.0</ele><time>2020-05-16T17:45:41Z</time></trkpt><trkpt lat="44.233202040195465" lon="-115.08240804076195"><ele>1994.9</ele><time>2020-05-16T17:45:45Z</time></trkpt><trkpt lat="44.233117969706655" lon="-115.08238197304308"><ele>1994.0</ele><time>2020-05-16T17:45:50Z</time></trkpt><trkpt lat="44.232944967225194" lon="-115.08240703493357"><ele>1992.0</ele><time>2020-05-16T17:46:03Z</time></trkpt><trkpt lat="44.23291496001184" lon="-115.08239697664976"><ele>1992.0</ele><time>2020-05-16T17:46:07Z</time></trkpt><trkpt lat="44.23282703384757" lon="-115.08233696222305"><ele>1995.0</ele><time>2020-05-16T17:46:15Z</time></trkpt><trkpt lat="44.232794009149075" lon="-115.08233402855694"><ele>1994.0</ele><time>2020-05-16T17:46:18Z</time></trkpt><trkpt lat="44.232559986412525" lon="-115.0823669694364"><ele>1994.0</ele><time>2020-05-16T17:46:35Z</time></trkpt><trkpt lat="44.23250500112772" lon="-115.08238800801337"><ele>1993.0</ele><time>2020-05-16T17:46:38Z</time></trkpt><trkpt lat="44.23247801139951" lon="-115.0824050232768"><ele>1994.0</ele><time>2020-05-16T17:46:40Z</time></trkpt><trkpt lat="44.232433000579476" lon="-115.08245699107647"><ele>1993.0</ele><time>2020-05-16T17:46:44Z</time></trkpt><trkpt lat="44.2323350161314" lon="-115.08249403908849"><ele>1994.0</ele><time>2020-05-16T17:46:50Z</time></trkpt><trkpt lat="44.232277013361454" lon="-115.08253402076662"><ele>1994.0</ele><time>2020-05-16T17:46:54Z</time></trkpt><trkpt lat="44.23209898173809" lon="-115.08260803297162"><ele>1992.0</ele><time>2020-05-16T17:47:07Z</time></trkpt><trkpt lat="44.23182296566665" lon="-115.08259797468781"><ele>1992.0</ele><time>2020-05-16T17:47:27Z</time></trkpt><trkpt lat="44.23175800591707" lon="-115.08256101049483"><ele>1992.0</ele><time>2020-05-16T17:47:32Z</time></trkpt><trkpt lat="44.23158198595047" lon="-115.08252697996795"><ele>1992.0</ele><time>2020-05-16T17:47:45Z</time></trkpt><trkpt lat="44.2313679959625" lon="-115.0825109705329"><ele>1993.0</ele><time>2020-05-16T17:48:02Z</time></trkpt><trkpt lat="44.2311919759959" lon="-115.08248004131019"><ele>1994.7</ele><time>2020-05-16T17:48:14Z</time></trkpt><trkpt lat="44.231117041781545" lon="-115.08249496109784"><ele>1992.0</ele><time>2020-05-16T17:48:20Z</time></trkpt><trkpt lat="44.230901040136814" lon="-115.08250401355326"><ele>1993.0</ele><time>2020-05-16T17:48:34Z</time></trkpt><trkpt lat="44.23070096410811" lon="-115.08241801522672"><ele>1992.0</ele><time>2020-05-16T17:48:50Z</time></trkpt><trkpt lat="44.23060800880194" lon="-115.08234903216362"><ele>1992.0</ele><time>2020-05-16T17:48:56Z</time></trkpt><trkpt lat="44.2305029835552" lon="-115.08230603300035"><ele>1991.0</ele><time>2020-05-16T17:49:04Z</time></trkpt><trkpt lat="44.23021397553384" lon="-115.08200998418033"><ele>1992.0</ele><time>2020-05-16T17:49:28Z</time></trkpt><trkpt lat="44.23014499247074" lon="-115.0818489678204"><ele>1991.0</ele><time>2020-05-16T17:49:38Z</time></trkpt><trkpt lat="44.23008497804403" lon="-115.08175601251423"><ele>1991.0</ele><time>2020-05-16T17:49:44Z</time></trkpt><trkpt lat="44.23003602772951" lon="-115.08165702223778"><ele>1991.0</ele><time>2020-05-16T17:49:50Z</time></trkpt><trkpt lat="44.229936031624675" lon="-115.08142802864313"><ele>1990.0</ele><time>2020-05-16T17:50:03Z</time></trkpt><trkpt lat="44.22991901636124" lon="-115.08134697563946"><ele>1990.0</ele><time>2020-05-16T17:50:07Z</time></trkpt><trkpt lat="44.22992597334087" lon="-115.08127799257636"><ele>1989.0</ele><time>2020-05-16T17:50:12Z</time></trkpt><trkpt lat="44.22995002940297" lon="-115.08120498619974"><ele>1990.0</ele><time>2020-05-16T17:50:17Z</time></trkpt><trkpt lat="44.23003896139562" lon="-115.080729983747"><ele>1990.0</ele><time>2020-05-16T17:50:48Z</time></trkpt><trkpt lat="44.23008296638727" lon="-115.08054801262915"><ele>1992.0</ele><time>2020-05-16T17:50:59Z</time></trkpt><trkpt lat="44.230109034106135" lon="-115.08048296906054"><ele>1992.0</ele><time>2020-05-16T17:51:03Z</time></trkpt><trkpt lat="44.23013803549111" lon="-115.08026696741581"><ele>1992.0</ele><time>2020-05-16T17:51:13Z</time></trkpt><trkpt lat="44.23018799163401" lon="-115.08011299185455"><ele>1992.0</ele><time>2020-05-16T17:51:21Z</time></trkpt><trkpt lat="44.23021296970546" lon="-115.07992096245289"><ele>1992.0</ele><time>2020-05-16T17:51:31Z</time></trkpt><trkpt lat="44.23021104186773" lon="-115.07979498244822"><ele>1992.0</ele><time>2020-05-16T17:51:37Z</time></trkpt><trkpt lat="44.23022503964603" lon="-115.07956397719681"><ele>1992.0</ele><time>2020-05-16T17:51:49Z</time></trkpt><trkpt lat="44.23028698191047" lon="-115.07918897084892"><ele>1992.0</ele><time>2020-05-16T17:52:09Z</time></trkpt><trkpt lat="44.23028999939561" lon="-115.07900901138783"><ele>1994.0</ele><time>2020-05-16T17:52:21Z</time></trkpt><trkpt lat="44.23014398664236" lon="-115.078539038077"><ele>1994.0</ele><time>2020-05-16T17:52:49Z</time></trkpt><trkpt lat="44.23013803549111" lon="-115.07849696092308"><ele>1994.0</ele><time>2020-05-16T17:52:51Z</time></trkpt><trkpt lat="44.23014499247074" lon="-115.07829504087567"><ele>1994.0</ele><time>2020-05-16T17:53:01Z</time></trkpt><trkpt lat="44.230174999684095" lon="-115.07818196900189"><ele>1993.0</ele><time>2020-05-16T17:53:07Z</time></trkpt><trkpt lat="44.23020400106907" lon="-115.07811600342393"><ele>1992.0</ele><time>2020-05-16T17:53:11Z</time></trkpt><trkpt lat="44.23022596165538" lon="-115.07783797569573"><ele>1992.0</ele><time>2020-05-16T17:53:25Z</time></trkpt><trkpt lat="44.230282958596945" lon="-115.07768601179123"><ele>1992.0</ele><time>2020-05-16T17:53:33Z</time></trkpt><trkpt lat="44.23030701465905" lon="-115.0774610415101"><ele>1992.0</ele><time>2020-05-16T17:53:44Z</time></trkpt><trkpt lat="44.23032604157925" lon="-115.07742097601295"><ele>1991.0</ele><time>2020-05-16T17:53:47Z</time></trkpt><trkpt lat="44.23044104129076" lon="-115.07731502875686"><ele>1992.0</ele><time>2020-05-16T17:53:57Z</time></trkpt><trkpt lat="44.23046400770545" lon="-115.07722400128841"><ele>1993.0</ele><time>2020-05-16T17:54:01Z</time></trkpt><trkpt lat="44.2305410373956" lon="-115.0771140307188"><ele>1992.0</ele><time>2020-05-16T17:54:08Z</time></trkpt><trkpt lat="44.2305769957602" lon="-115.07700003683567"><ele>1993.0</ele><time>2020-05-16T17:54:14Z</time></trkpt><trkpt lat="44.23065100796521" lon="-115.07687003351748"><ele>1994.0</ele><time>2020-05-16T17:54:23Z</time></trkpt><trkpt lat="44.23069501295686" lon="-115.07681203074753"><ele>1993.0</ele><time>2020-05-16T17:54:28Z</time></trkpt><trkpt lat="44.230734994634986" lon="-115.07679996080697"><ele>1992.0</ele><time>2020-05-16T17:54:31Z</time></trkpt><trkpt lat="44.23076097853482" lon="-115.07677397690713"><ele>1994.0</ele><time>2020-05-16T17:54:33Z</time></trkpt><trkpt lat="44.23078897409141" lon="-115.07669602520764"><ele>1994.0</ele><time>2020-05-16T17:54:37Z</time></trkpt><trkpt lat="44.23086499795318" lon="-115.07660801522434"><ele>1994.0</ele><time>2020-05-16T17:54:44Z</time></trkpt><trkpt lat="44.23091595992446" lon="-115.0764979608357"><ele>1996.0</ele><time>2020-05-16T17:54:50Z</time></trkpt><trkpt lat="44.23094496130943" lon="-115.07647298276424"><ele>1996.2</ele><time>2020-05-16T17:54:53Z</time></trkpt><trkpt lat="44.23100497573614" lon="-115.07646703161299"><ele>1995.0</ele><time>2020-05-16T17:54:57Z</time></trkpt><trkpt lat="44.231033977121115" lon="-115.07644096389413"><ele>1996.0</ele><time>2020-05-16T17:54:59Z</time></trkpt><trkpt lat="44.2312110029161" lon="-115.07636200636625"><ele>1996.0</ele><time>2020-05-16T17:55:11Z</time></trkpt><trkpt lat="44.23123204149306" lon="-115.0763370282948"><ele>1996.0</ele><time>2020-05-16T17:55:13Z</time></trkpt><trkpt lat="44.23127696849406" lon="-115.07617601193488"><ele>1997.0</ele><time>2020-05-16T17:55:47Z</time></trkpt><trkpt lat="44.231334971264005" lon="-115.07614499889314"><ele>1998.0</ele><time>2020-05-16T17:56:00Z</time></trkpt><trkpt lat="44.231358021497726" lon="-115.07606897503138"><ele>2000.0</ele><time>2020-05-16T17:56:06Z</time></trkpt><trkpt lat="44.23138501122594" lon="-115.07605103775859"><ele>2000.0</ele><time>2020-05-16T17:56:11Z</time></trkpt><trkpt lat="44.23144997097552" lon="-115.07584400475025"><ele>2002.0</ele><time>2020-05-16T17:56:25Z</time></trkpt><trkpt lat="44.231504034250975" lon="-115.07573797367513"><ele>2003.0</ele><time>2020-05-16T17:56:32Z</time></trkpt><trkpt lat="44.23160595819354" lon="-115.07563697174191"><ele>2003.0</ele><time>2020-05-16T17:56:41Z</time></trkpt><trkpt lat="44.23170503228903" lon="-115.07550998590887"><ele>2004.0</ele><time>2020-05-16T17:56:49Z</time></trkpt><trkpt lat="44.231722969561815" lon="-115.0754720158875"><ele>2003.0</ele><time>2020-05-16T17:56:51Z</time></trkpt><trkpt lat="44.23173696734011" lon="-115.07532902061939"><ele>2004.0</ele><time>2020-05-16T17:56:59Z</time></trkpt><trkpt lat="44.23179103061557" lon="-115.07523103617132"><ele>2004.0</ele><time>2020-05-16T17:57:05Z</time></trkpt><trkpt lat="44.23179698176682" lon="-115.07510798983276"><ele>2004.0</ele><time>2020-05-16T17:57:11Z</time></trkpt><trkpt lat="44.231808967888355" lon="-115.07506901398301"><ele>2004.0</ele><time>2020-05-16T17:57:14Z</time></trkpt><trkpt lat="44.23187803477049" lon="-115.07494797930121"><ele>2004.0</ele><time>2020-05-16T17:57:33Z</time></trkpt><trkpt lat="44.231893038377166" lon="-115.07488201372325"><ele>2005.0</ele><time>2020-05-16T17:57:37Z</time></trkpt><trkpt lat="44.231891026720405" lon="-115.074846977368"><ele>2004.0</ele><time>2020-05-16T17:57:40Z</time></trkpt><trkpt lat="44.23183201812208" lon="-115.07471496239305"><ele>2006.0</ele><time>2020-05-16T17:57:51Z</time></trkpt><trkpt lat="44.231766974553466" lon="-115.07462703622878"><ele>2007.0</ele><time>2020-05-16T17:57:58Z</time></trkpt><trkpt lat="44.23164501786232" lon="-115.07456903345883"><ele>2009.0</ele><time>2020-05-16T17:58:07Z</time></trkpt><trkpt lat="44.231569999828935" lon="-115.0745100248605"><ele>2010.0</ele><time>2020-05-16T17:58:13Z</time></trkpt><trkpt lat="44.23142901621759" lon="-115.07443400099874"><ele>2010.0</ele><time>2020-05-16T17:58:24Z</time></trkpt><trkpt lat="44.23119901679456" lon="-115.07420400157571"><ele>2014.0</ele><time>2020-05-16T17:58:51Z</time></trkpt><trkpt lat="44.231160040944815" lon="-115.07419402711093"><ele>2016.0</ele><time>2020-05-16T17:58:55Z</time></trkpt><trkpt lat="44.23104302957654" lon="-115.07410400547087"><ele>2016.0</ele><time>2020-05-16T17:59:06Z</time></trkpt><trkpt lat="44.230968011543155" lon="-115.07407701574266"><ele>2016.0</ele><time>2020-05-16T17:59:12Z</time></trkpt><trkpt lat="44.2308000382036" lon="-115.07394298911095"><ele>2019.0</ele><time>2020-05-16T17:59:26Z</time></trkpt><trkpt lat="44.23072703182697" lon="-115.0739230401814"><ele>2019.0</ele><time>2020-05-16T17:59:32Z</time></trkpt><trkpt lat="44.23065695911646" lon="-115.07389102131128"><ele>2017.0</ele><time>2020-05-16T17:59:40Z</time></trkpt><trkpt lat="44.230623012408614" lon="-115.07389303296804"><ele>2021.0</ele><time>2020-05-16T17:59:44Z</time></trkpt><trkpt lat="44.230494014918804" lon="-115.07383201271296"><ele>2022.0</ele><time>2020-05-16T17:59:56Z</time></trkpt><trkpt lat="44.23039795830846" lon="-115.0738569907844"><ele>2024.0</ele><time>2020-05-16T18:00:07Z</time></trkpt><trkpt lat="44.230238031595945" lon="-115.0738160032779"><ele>2026.0</ele><time>2020-05-16T18:00:26Z</time></trkpt><trkpt lat="44.23021296970546" lon="-115.0737829785794"><ele>2028.0</ele><time>2020-05-16T18:00:29Z</time></trkpt><trkpt lat="44.23015697859228" lon="-115.07375598885119"><ele>2028.0</ele><time>2020-05-16T18:00:36Z</time></trkpt><trkpt lat="44.23012495972216" lon="-115.0737279932946"><ele>2028.0</ele><time>2020-05-16T18:00:39Z</time></trkpt><trkpt lat="44.230068968608975" lon="-115.07371097803116"><ele>2030.0</ele><time>2020-05-16T18:00:47Z</time></trkpt><trkpt lat="44.229981964454055" lon="-115.07366303354502"><ele>2031.0</ele><time>2020-05-16T18:00:56Z</time></trkpt><trkpt lat="44.22993200831115" lon="-115.07367401383817"><ele>2027.0</ele><time>2020-05-16T18:01:22Z</time></trkpt><trkpt lat="44.22989998944104" lon="-115.07369698025286"><ele>2033.0</ele><time>2020-05-16T18:01:52Z</time></trkpt><trkpt lat="44.22988900914788" lon="-115.07365196943283"><ele>2032.0</ele><time>2020-05-16T18:02:15Z</time></trkpt><trkpt lat="44.22984299249947" lon="-115.07356597110629"><ele>2034.0</ele><time>2020-05-16T18:02:22Z</time></trkpt><trkpt lat="44.22981298528612" lon="-115.0734600238502"><ele>2036.0</ele><time>2020-05-16T18:02:41Z</time></trkpt><trkpt lat="44.22977501526475" lon="-115.07355499081314"><ele>2036.0</ele><time>2020-05-16T18:02:51Z</time></trkpt><trkpt lat="44.229767974466085" lon="-115.07362900301814"><ele>2037.0</ele><time>2020-05-16T18:02:56Z</time></trkpt><trkpt lat="44.22974903136492" lon="-115.07366303354502"><ele>2036.0</ele><time>2020-05-16T18:02:58Z</time></trkpt><trkpt lat="44.22966202721" lon="-115.07374500855803"><ele>2040.0</ele><time>2020-05-16T18:03:12Z</time></trkpt><trkpt lat="44.22962598502636" lon="-115.07374400272965"><ele>2042.4</ele><time>2020-05-16T18:03:21Z</time></trkpt><trkpt lat="44.22963101416826" lon="-115.0738300010562"><ele>2043.0</ele><time>2020-05-16T18:03:34Z</time></trkpt><trkpt lat="44.22962196171284" lon="-115.07389102131128"><ele>2046.0</ele><time>2020-05-16T18:03:43Z</time></trkpt><trkpt lat="44.22960603609681" lon="-115.0739230401814"><ele>2048.0</ele><time>2020-05-16T18:03:48Z</time></trkpt><trkpt lat="44.22955901362002" lon="-115.07397400215268"><ele>2047.0</ele><time>2020-05-16T18:03:56Z</time></trkpt><trkpt lat="44.22951199114323" lon="-115.07398003712296"><ele>2048.0</ele><time>2020-05-16T18:04:01Z</time></trkpt><trkpt lat="44.22948902472854" lon="-115.07393896579742"><ele>2047.0</ele><time>2020-05-16T18:04:10Z</time></trkpt><trkpt lat="44.22945197671652" lon="-115.07392999716103"><ele>2048.0</ele><time>2020-05-16T18:04:17Z</time></trkpt><trkpt lat="44.22936698421836" lon="-115.07396302185953"><ele>2051.0</ele><time>2020-05-16T18:04:41Z</time></trkpt><trkpt lat="44.229185013100505" lon="-115.07398297078907"><ele>2060.0</ele><time>2020-05-16T18:05:19Z</time></trkpt><trkpt lat="44.22915198840201" lon="-115.07396201603115"><ele>2060.0</ele><time>2020-05-16T18:05:24Z</time></trkpt><trkpt lat="44.22898099757731" lon="-115.07396000437438"><ele>2060.0</ele><time>2020-05-16T18:05:50Z</time></trkpt><trkpt lat="44.228862980380654" lon="-115.07401398383081"><ele>2061.0</ele><time>2020-05-16T18:06:13Z</time></trkpt><trkpt lat="44.228839008137584" lon="-115.0740750040859"><ele>2068.0</ele><time>2020-05-16T18:06:24Z</time></trkpt><trkpt lat="44.22883196733892" lon="-115.07412797771394"><ele>2069.0</ele><time>2020-05-16T18:06:35Z</time></trkpt><trkpt lat="44.22880598343909" lon="-115.07418497465551"><ele>2071.0</ele><time>2020-05-16T18:06:47Z</time></trkpt><trkpt lat="44.228755021467805" lon="-115.074217999354"><ele>2070.0</ele><time>2020-05-16T18:07:04Z</time></trkpt><trkpt lat="44.22869802452624" lon="-115.07428103126585"><ele>2076.6</ele><time>2020-05-16T18:07:28Z</time></trkpt><trkpt lat="44.22864203341305" lon="-115.07429502904415"><ele>2073.0</ele><time>2020-05-16T18:07:52Z</time></trkpt><trkpt lat="44.228585958480835" lon="-115.07438496686518"><ele>2080.0</ele><time>2020-05-16T18:08:08Z</time></trkpt><trkpt lat="44.228540025651455" lon="-115.07441103458405"><ele>2084.0</ele><time>2020-05-16T18:08:18Z</time></trkpt><trkpt lat="44.22848504036665" lon="-115.0744960270822"><ele>2085.0</ele><time>2020-05-16T18:08:36Z</time></trkpt><trkpt lat="44.228304997086525" lon="-115.07460599765182"><ele>2094.0</ele><time>2020-05-16T18:09:23Z</time></trkpt><trkpt lat="44.228243976831436" lon="-115.07457498461008"><ele>2094.0</ele><time>2020-05-16T18:09:32Z</time></trkpt><trkpt lat="44.22820801846683" lon="-115.07458998821676"><ele>2095.0</ele><time>2020-05-16T18:09:38Z</time></trkpt><trkpt lat="44.22818597406149" lon="-115.0746120326221"><ele>2096.0</ele><time>2020-05-16T18:09:44Z</time></trkpt><trkpt lat="44.22814196906984" lon="-115.07462502457201"><ele>2099.0</ele><time>2020-05-16T18:09:51Z</time></trkpt><trkpt lat="44.22809997573495" lon="-115.07458898238838"><ele>2099.0</ele><time>2020-05-16T18:09:58Z</time></trkpt><trkpt lat="44.22803702764213" lon="-115.07462100125849"><ele>2100.0</ele><time>2020-05-16T18:10:09Z</time></trkpt><trkpt lat="44.228005008772016" lon="-115.07461898960173"><ele>2100.0</ele><time>2020-05-16T18:10:14Z</time></trkpt><trkpt lat="44.22796502709389" lon="-115.0745930057019"><ele>2100.0</ele><time>2020-05-16T18:10:21Z</time></trkpt><trkpt lat="44.22788699157536" lon="-115.07458898238838"><ele>2104.0</ele><time>2020-05-16T18:10:32Z</time></trkpt><trkpt lat="44.227829994633794" lon="-115.07457498461008"><ele>2105.0</ele><time>2020-05-16T18:10:41Z</time></trkpt><trkpt lat="44.22777802683413" lon="-115.07458303123713"><ele>2107.1</ele><time>2020-05-16T18:10:48Z</time></trkpt><trkpt lat="44.2277190182358" lon="-115.07457096129656"><ele>2107.0</ele><time>2020-05-16T18:10:57Z</time></trkpt><trkpt lat="44.2275620251894" lon="-115.07461597211659"><ele>2110.0</ele><time>2020-05-16T18:11:23Z</time></trkpt><trkpt lat="44.227529000490904" lon="-115.07461102679372"><ele>2112.0</ele><time>2020-05-16T18:11:27Z</time></trkpt><trkpt lat="44.227424981072545" lon="-115.07463198155165"><ele>2114.0</ele><time>2020-05-16T18:11:49Z</time></trkpt><trkpt lat="44.22736597247422" lon="-115.07466902956367"><ele>2118.0</ele><time>2020-05-16T18:12:03Z</time></trkpt><trkpt lat="44.22723303548992" lon="-115.07464597932994"><ele>2121.0</ele><time>2020-05-16T18:12:29Z</time></trkpt><trkpt lat="44.22714703716338" lon="-115.07466902956367"><ele>2124.0</ele><time>2020-05-16T18:12:46Z</time></trkpt><trkpt lat="44.22711501829326" lon="-115.07466902956367"><ele>2125.0</ele><time>2020-05-16T18:12:52Z</time></trkpt><trkpt lat="44.22708601690829" lon="-115.07465402595699"><ele>2127.0</ele><time>2020-05-16T18:12:56Z</time></trkpt><trkpt lat="44.22705399803817" lon="-115.07465796545148"><ele>2127.0</ele><time>2020-05-16T18:12:59Z</time></trkpt><trkpt lat="44.22702197916806" lon="-115.07466902956367"><ele>2127.0</ele><time>2020-05-16T18:13:02Z</time></trkpt><trkpt lat="44.226865991950035" lon="-115.07476500235498"><ele>2131.0</ele><time>2020-05-16T18:13:17Z</time></trkpt><trkpt lat="44.226715033873916" lon="-115.07483096793294"><ele>2133.0</ele><time>2020-05-16T18:13:36Z</time></trkpt><trkpt lat="44.22667899169028" lon="-115.07483096793294"><ele>2130.0</ele><time>2020-05-16T18:13:40Z</time></trkpt><trkpt lat="44.22664697282016" lon="-115.07481697015464"><ele>2132.0</ele><time>2020-05-16T18:13:45Z</time></trkpt><trkpt lat="44.22644396312535" lon="-115.07491897791624"><ele>2139.0</ele><time>2020-05-16T18:14:19Z</time></trkpt><trkpt lat="44.226456033065915" lon="-115.07485602982342"><ele>2139.0</ele><time>2020-05-16T18:14:31Z</time></trkpt><trkpt lat="44.226434994488955" lon="-115.07484496571124"><ele>2138.0</ele><time>2020-05-16T18:14:44Z</time></trkpt><trkpt lat="44.22642602585256" lon="-115.07489601150155"><ele>2141.0</ele><time>2020-05-16T18:15:46Z</time></trkpt><trkpt lat="44.22646198421717" lon="-115.07489500567317"><ele>2124.0</ele><time>2020-05-16T18:16:52Z</time></trkpt><trkpt lat="44.22649199143052" lon="-115.0748609751463"><ele>2144.0</ele><time>2020-05-16T18:17:42Z</time></trkpt><trkpt lat="44.226481011137366" lon="-115.07492400705814"><ele>2140.0</ele><time>2020-05-16T18:20:08Z</time></trkpt><trkpt lat="44.226456033065915" lon="-115.07491998374462"><ele>2148.0</ele><time>2020-05-16T18:22:16Z</time></trkpt><trkpt lat="44.22642895951867" lon="-115.07490003481507"><ele>2142.0</ele><time>2020-05-16T18:22:44Z</time></trkpt><trkpt lat="44.226371040567756" lon="-115.07491403259337"><ele>2149.0</ele><time>2020-05-16T18:23:02Z</time></trkpt><trkpt lat="44.22635402530432" lon="-115.07488997653127"><ele>2150.0</ele><time>2020-05-16T18:23:06Z</time></trkpt><trkpt lat="44.22631496563554" lon="-115.07486399263144"><ele>2152.9</ele><time>2020-05-16T18:23:16Z</time></trkpt><trkpt lat="44.226305996999145" lon="-115.07483197376132"><ele>2140.0</ele><time>2020-05-16T18:23:31Z</time></trkpt><trkpt lat="44.22627003863454" lon="-115.07482602261007"><ele>2150.0</ele><time>2020-05-16T18:23:46Z</time></trkpt><trkpt lat="44.22627003863454" lon="-115.07478604093194"><ele>2154.0</ele><time>2020-05-16T18:23:52Z</time></trkpt><trkpt lat="44.22624900005758" lon="-115.07474203594029"><ele>2154.0</ele><time>2020-05-16T18:23:57Z</time></trkpt><trkpt lat="44.22618303447962" lon="-115.07471496239305"><ele>2154.0</ele><time>2020-05-16T18:24:14Z</time></trkpt><trkpt lat="44.22599796205759" lon="-115.07470800541341"><ele>2160.0</ele><time>2020-05-16T18:24:47Z</time></trkpt><trkpt lat="44.22595001757145" lon="-115.07477296516299"><ele>2156.0</ele><time>2020-05-16T18:25:10Z</time></trkpt><trkpt lat="44.22587198205292" lon="-115.07480196654797"><ele>2168.0</ele><time>2020-05-16T18:25:40Z</time></trkpt><trkpt lat="44.225770980119705" lon="-115.0747309718281"><ele>2163.0</ele><time>2020-05-16T18:26:22Z</time></trkpt><trkpt lat="44.22573301009834" lon="-115.07469400763512"><ele>2174.1</ele><time>2020-05-16T18:26:31Z</time></trkpt><trkpt lat="44.225660003721714" lon="-115.07457800209522"><ele>2172.0</ele><time>2020-05-16T18:26:57Z</time></trkpt><trkpt lat="44.22565497457981" lon="-115.07454003207386"><ele>2178.0</ele><time>2020-05-16T18:27:17Z</time></trkpt><trkpt lat="44.22563795931637" lon="-115.07451103068888"><ele>2178.0</ele><time>2020-05-16T18:27:27Z</time></trkpt><trkpt lat="44.22566503286362" lon="-115.0745980348438"><ele>2174.0</ele><time>2020-05-16T18:27:41Z</time></trkpt><trkpt lat="44.22550401650369" lon="-115.07461002096534"><ele>2179.0</ele><time>2020-05-16T18:28:31Z</time></trkpt><trkpt lat="44.22550200484693" lon="-115.07458495907485"><ele>2184.0</ele><time>2020-05-16T18:29:05Z</time></trkpt><trkpt lat="44.22545900568366" lon="-115.07457196712494"><ele>2184.0</ele><time>2020-05-16T18:29:26Z</time></trkpt><trkpt lat="44.2254239693284" lon="-115.07458596490324"><ele>2184.0</ele><time>2020-05-16T18:29:36Z</time></trkpt><trkpt lat="44.22541902400553" lon="-115.07464497350156"><ele>2191.0</ele><time>2020-05-16T18:29:51Z</time></trkpt><trkpt lat="44.22539697960019" lon="-115.0747090112418"><ele>2190.0</ele><time>2020-05-16T18:30:19Z</time></trkpt><trkpt lat="44.22535599209368" lon="-115.07474798709154"><ele>2193.0</ele><time>2020-05-16T18:30:40Z</time></trkpt><trkpt lat="44.22535004094243" lon="-115.0747169740498"><ele>2197.0</ele><time>2020-05-16T18:31:07Z</time></trkpt><trkpt lat="44.22537703067064" lon="-115.07468897849321"><ele>2200.0</ele><time>2020-05-16T18:31:18Z</time></trkpt><trkpt lat="44.225361021235585" lon="-115.07478796876967"><ele>2202.0</ele><time>2020-05-16T18:31:27Z</time></trkpt><trkpt lat="44.22532598488033" lon="-115.07478101179004"><ele>2203.0</ele><time>2020-05-16T18:31:41Z</time></trkpt><trkpt lat="44.22530100680888" lon="-115.0747449696064"><ele>2190.0</ele><time>2020-05-16T18:32:08Z</time></trkpt><trkpt lat="44.225297989323735" lon="-115.07476600818336"><ele>2201.0</ele><time>2020-05-16T18:32:22Z</time></trkpt><trkpt lat="44.225231017917395" lon="-115.07478402927518"><ele>2206.0</ele><time>2020-05-16T18:33:03Z</time></trkpt><trkpt lat="44.225188018754125" lon="-115.07483700290322"><ele>2210.0</ele><time>2020-05-16T18:33:24Z</time></trkpt><trkpt lat="44.22515298239887" lon="-115.07484898902476"><ele>2212.0</ele><time>2020-05-16T18:33:31Z</time></trkpt><trkpt lat="44.2251150123775" lon="-115.07481101900339"><ele>2214.0</ele><time>2020-05-16T18:33:44Z</time></trkpt><trkpt lat="44.22505700960755" lon="-115.07487396709621"><ele>2211.0</ele><time>2020-05-16T18:34:07Z</time></trkpt><trkpt lat="44.22500403597951" lon="-115.07483197376132"><ele>2222.0</ele><time>2020-05-16T18:34:47Z</time></trkpt><trkpt lat="44.22498500905931" lon="-115.07484798319638"><ele>2223.0</ele><time>2020-05-16T18:34:56Z</time></trkpt><trkpt lat="44.22493999823928" lon="-115.07485996931791"><ele>2222.0</ele><time>2020-05-16T18:35:12Z</time></trkpt><trkpt lat="44.22488501295447" lon="-115.07486499845982"><ele>2229.0</ele><time>2020-05-16T18:35:37Z</time></trkpt><trkpt lat="44.22485802322626" lon="-115.0748430378735"><ele>2220.0</ele><time>2020-05-16T18:35:48Z</time></trkpt><trkpt lat="44.22480999492109" lon="-115.07485896348953"><ele>2227.0</ele><time>2020-05-16T18:36:02Z</time></trkpt><trkpt lat="44.224784011021256" lon="-115.07488997653127"><ele>2232.0</ele><time>2020-05-16T18:36:27Z</time></trkpt><trkpt lat="44.22470698133111" lon="-115.07493398152292"><ele>2233.0</ele><time>2020-05-16T18:36:55Z</time></trkpt><trkpt lat="44.22460396774113" lon="-115.07501696236432"><ele>2238.0</ele><time>2020-05-16T18:37:17Z</time></trkpt><trkpt lat="44.22455702908337" lon="-115.07511402480304"><ele>2241.0</ele><time>2020-05-16T18:37:34Z</time></trkpt><trkpt lat="44.22455199994147" lon="-115.07517001591623"><ele>2240.0</ele><time>2020-05-16T18:37:45Z</time></trkpt><trkpt lat="44.22453498467803" lon="-115.07519599981606"><ele>2242.0</ele><time>2020-05-16T18:37:53Z</time></trkpt><trkpt lat="44.22449399717152" lon="-115.07519599981606"><ele>2244.0</ele><time>2020-05-16T18:38:05Z</time></trkpt><trkpt lat="44.22442995943129" lon="-115.07526598870754"><ele>2242.0</ele><time>2020-05-16T18:38:18Z</time></trkpt><trkpt lat="44.2243879660964" lon="-115.07524696178734"><ele>2244.0</ele><time>2020-05-16T18:38:27Z</time></trkpt><trkpt lat="44.224352007731795" lon="-115.07524402812123"><ele>2247.0</ele><time>2020-05-16T18:38:33Z</time></trkpt><trkpt lat="44.224331974983215" lon="-115.07527998648584"><ele>2244.0</ele><time>2020-05-16T18:38:39Z</time></trkpt><trkpt lat="44.22426098026335" lon="-115.07525299675763"><ele>2244.0</ele><time>2020-05-16T18:38:55Z</time></trkpt><trkpt lat="44.2241619899869" lon="-115.07524402812123"><ele>2247.0</ele><time>2020-05-16T18:39:17Z</time></trkpt><trkpt lat="44.224112033843994" lon="-115.07531703449786"><ele>2247.0</ele><time>2020-05-16T18:39:29Z</time></trkpt><trkpt lat="44.22408202663064" lon="-115.07530001923442"><ele>2250.0</ele><time>2020-05-16T18:39:35Z</time></trkpt><trkpt lat="44.224049001932144" lon="-115.07532600313425"><ele>2253.0</ele><time>2020-05-16T18:39:48Z</time></trkpt><trkpt lat="44.224009020254016" lon="-115.07532197982073"><ele>2251.0</ele><time>2020-05-16T18:39:54Z</time></trkpt><trkpt lat="44.22396099194884" lon="-115.07538300007582"><ele>2252.0</ele><time>2020-05-16T18:40:15Z</time></trkpt><trkpt lat="44.223901983350515" lon="-115.07532801479101"><ele>2257.0</ele><time>2020-05-16T18:40:26Z</time></trkpt><trkpt lat="44.22382797114551" lon="-115.07529398426414"><ele>2256.0</ele><time>2020-05-16T18:40:38Z</time></trkpt><trkpt lat="44.223853033035994" lon="-115.07531301118433"><ele>2258.0</ele><time>2020-05-16T18:40:43Z</time></trkpt><trkpt lat="44.223899971693754" lon="-115.07530395872891"><ele>2242.0</ele><time>2020-05-16T18:40:54Z</time></trkpt><trkpt lat="44.22388496808708" lon="-115.07533103227615"><ele>2252.0</ele><time>2020-05-16T18:41:24Z</time></trkpt><trkpt lat="44.22383802942932" lon="-115.0753099936992"><ele>2258.7</ele><time>2020-05-16T18:41:34Z</time></trkpt><trkpt lat="44.22381900250912" lon="-115.0752769690007"><ele>2256.0</ele><time>2020-05-16T18:41:40Z</time></trkpt><trkpt lat="44.223793018609285" lon="-115.07525500841439"><ele>2257.0</ele><time>2020-05-16T18:41:51Z</time></trkpt><trkpt lat="44.223767034709454" lon="-115.075364978984"><ele>2260.0</ele><time>2020-05-16T18:42:02Z</time></trkpt><trkpt lat="44.22375898808241" lon="-115.07551099173725"><ele>2262.0</ele><time>2020-05-16T18:42:23Z</time></trkpt><trkpt lat="44.223724035546184" lon="-115.07547101005912"><ele>2262.0</ele><time>2020-05-16T18:42:34Z</time></trkpt><trkpt lat="44.223620016127825" lon="-115.07555399090052"><ele>2268.0</ele><time>2020-05-16T18:43:25Z</time></trkpt><trkpt lat="44.22353804111481" lon="-115.07560302503407"><ele>2268.0</ele><time>2020-05-16T18:43:51Z</time></trkpt><trkpt lat="44.22351800836623" lon="-115.07557896897197"><ele>2268.0</ele><time>2020-05-16T18:44:00Z</time></trkpt><trkpt lat="44.223494958132505" lon="-115.07567100226879"><ele>2275.0</ele><time>2020-05-16T18:44:14Z</time></trkpt><trkpt lat="44.223491018638015" lon="-115.07573897950351"><ele>2270.0</ele><time>2020-05-16T18:44:29Z</time></trkpt><trkpt lat="44.223452964797616" lon="-115.07575599476695"><ele>2274.0</ele><time>2020-05-16T18:44:41Z</time></trkpt><trkpt lat="44.22341398894787" lon="-115.07584903389215"><ele>2274.0</ele><time>2020-05-16T18:45:08Z</time></trkpt><trkpt lat="44.223403008654714" lon="-115.07590603083372"><ele>2275.0</ele><time>2020-05-16T18:45:25Z</time></trkpt><trkpt lat="44.22335799783468" lon="-115.07596897892654"><ele>2279.0</ele><time>2020-05-16T18:45:47Z</time></trkpt><trkpt lat="44.22330603003502" lon="-115.07600996643305"><ele>2278.0</ele><time>2020-05-16T18:46:07Z</time></trkpt><trkpt lat="44.22326202504337" lon="-115.07609898224473"><ele>2285.0</ele><time>2020-05-16T18:46:39Z</time></trkpt><trkpt lat="44.223258001729846" lon="-115.07617601193488"><ele>2285.0</ele><time>2020-05-16T18:46:57Z</time></trkpt><trkpt lat="44.223233023658395" lon="-115.07619998417795"><ele>2282.0</ele><time>2020-05-16T18:47:07Z</time></trkpt><trkpt lat="44.223172003403306" lon="-115.07617601193488"><ele>2290.0</ele><time>2020-05-16T18:47:31Z</time></trkpt><trkpt lat="44.223145013675094" lon="-115.07612999528646"><ele>2272.0</ele><time>2020-05-16T18:47:55Z</time></trkpt><trkpt lat="44.22312104143202" lon="-115.07618699222803"><ele>2295.0</ele><time>2020-05-16T18:48:23Z</time></trkpt><trkpt lat="44.22313797287643" lon="-115.07617601193488"><ele>2296.0</ele><time>2020-05-16T18:48:38Z</time></trkpt><trkpt lat="44.223106959834695" lon="-115.0761610083282"><ele>2296.0</ele><time>2020-05-16T18:48:45Z</time></trkpt><trkpt lat="44.223129004240036" lon="-115.07625597529113"><ele>2296.0</ele><time>2020-05-16T18:48:56Z</time></trkpt><trkpt lat="44.2231310158968" lon="-115.07628195919096"><ele>2300.0</ele><time>2020-05-16T18:49:11Z</time></trkpt><trkpt lat="44.22311601229012" lon="-115.07629696279764"><ele>2300.0</ele><time>2020-05-16T18:49:22Z</time></trkpt><trkpt lat="44.22307795844972" lon="-115.07628899998963"><ele>2300.0</ele><time>2020-05-16T18:49:27Z</time></trkpt><trkpt lat="44.22304996289313" lon="-115.07629998028278"><ele>2302.0</ele><time>2020-05-16T18:49:33Z</time></trkpt><trkpt lat="44.223016016185284" lon="-115.07632898166776"><ele>2304.0</ele><time>2020-05-16T18:49:45Z</time></trkpt><trkpt lat="44.22298399731517" lon="-115.07626201026142"><ele>2306.0</ele><time>2020-05-16T18:49:56Z</time></trkpt><trkpt lat="44.22298701480031" lon="-115.0762299913913"><ele>2308.0</ele><time>2020-05-16T18:50:01Z</time></trkpt><trkpt lat="44.22298299148679" lon="-115.07625102996826"><ele>2310.0</ele><time>2020-05-16T18:50:10Z</time></trkpt><trkpt lat="44.22294502146542" lon="-115.07625597529113"><ele>2310.0</ele><time>2020-05-16T18:50:21Z</time></trkpt><trkpt lat="44.22291501425207" lon="-115.07624097168446"><ele>2310.0</ele><time>2020-05-16T18:50:31Z</time></trkpt><trkpt lat="44.222892969846725" lon="-115.0761750061065"><ele>2314.0</ele><time>2020-05-16T18:50:51Z</time></trkpt><trkpt lat="44.222849970683455" lon="-115.07618900388479"><ele>2316.0</ele><time>2020-05-16T18:51:06Z</time></trkpt><trkpt lat="44.22279397957027" lon="-115.0762989744544"><ele>2320.0</ele><time>2020-05-16T18:51:33Z</time></trkpt><trkpt lat="44.22277403064072" lon="-115.07630601525307"><ele>2323.0</ele><time>2020-05-16T18:51:43Z</time></trkpt><trkpt lat="44.22273103147745" lon="-115.07628397084773"><ele>2324.0</ele><time>2020-05-16T18:52:08Z</time></trkpt><trkpt lat="44.22274603508413" lon="-115.0763370282948"><ele>2328.0</ele><time>2020-05-16T18:52:26Z</time></trkpt><trkpt lat="44.222785010933876" lon="-115.07637801580131"><ele>2328.0</ele><time>2020-05-16T18:52:31Z</time></trkpt><trkpt lat="44.22282197512686" lon="-115.07644901052117"><ele>2328.0</ele><time>2020-05-16T18:52:45Z</time></trkpt><trkpt lat="44.222828010097146" lon="-115.07649100385606"><ele>2328.0</ele><time>2020-05-16T18:52:57Z</time></trkpt><trkpt lat="44.2227890342474" lon="-115.07645001634955"><ele>2328.9</ele><time>2020-05-16T18:53:07Z</time></trkpt><trkpt lat="44.222784005105495" lon="-115.07639997638762"><ele>2328.0</ele><time>2020-05-16T18:53:16Z</time></trkpt><trkpt lat="44.2227010242641" lon="-115.07626402191818"><ele>2326.0</ele><time>2020-05-16T18:53:37Z</time></trkpt><trkpt lat="44.22265903092921" lon="-115.07625002413988"><ele>2324.0</ele><time>2020-05-16T18:53:42Z</time></trkpt><trkpt lat="44.22262600623071" lon="-115.07628799416125"><ele>2320.0</ele><time>2020-05-16T18:53:53Z</time></trkpt><trkpt lat="44.22258401289582" lon="-115.07619897834957"><ele>2328.0</ele><time>2020-05-16T18:54:04Z</time></trkpt><trkpt lat="44.22254201956093" lon="-115.07617299444973"><ele>2325.0</ele><time>2020-05-16T18:54:13Z</time></trkpt><trkpt lat="44.222460966557264" lon="-115.07618900388479"><ele>2328.0</ele><time>2020-05-16T18:54:34Z</time></trkpt><trkpt lat="44.22244998626411" lon="-115.07613996975124"><ele>2329.0</ele><time>2020-05-16T18:54:43Z</time></trkpt><trkpt lat="44.22242601402104" lon="-115.07611901499331"><ele>2328.0</ele><time>2020-05-16T18:54:46Z</time></trkpt><trkpt lat="44.22235803678632" lon="-115.07614902220666"><ele>2330.0</ele><time>2020-05-16T18:54:53Z</time></trkpt><trkpt lat="44.22230598516762" lon="-115.07611298002303"><ele>2328.0</ele><time>2020-05-16T18:55:01Z</time></trkpt><trkpt lat="44.22227296046913" lon="-115.07616301998496"><ele>2328.0</ele><time>2020-05-16T18:55:11Z</time></trkpt><trkpt lat="44.22225896269083" lon="-115.07621197029948"><ele>2331.0</ele><time>2020-05-16T18:55:19Z</time></trkpt><trkpt lat="44.222246976569295" lon="-115.07610904052854"><ele>2334.0</ele><time>2020-05-16T18:55:32Z</time></trkpt><trkpt lat="44.22223096713424" lon="-115.07607903331518"><ele>2337.0</ele><time>2020-05-16T18:55:44Z</time></trkpt><trkpt lat="44.222232978791" lon="-115.07603402249515"><ele>2338.0</ele><time>2020-05-16T18:55:49Z</time></trkpt><trkpt lat="44.22225401736796" lon="-115.07608498446643"><ele>2338.0</ele><time>2020-05-16T18:55:59Z</time></trkpt><trkpt lat="44.222266003489494" lon="-115.0759989861399"><ele>2340.0</ele><time>2020-05-16T18:56:06Z</time></trkpt><trkpt lat="44.22221202403307" lon="-115.07602295838296"><ele>2340.0</ele><time>2020-05-16T18:56:15Z</time></trkpt><trkpt lat="44.22218402847648" lon="-115.07605497725308"><ele>2340.0</ele><time>2020-05-16T18:56:18Z</time></trkpt><trkpt lat="44.222156032919884" lon="-115.07612597197294"><ele>2340.0</ele><time>2020-05-16T18:56:25Z</time></trkpt><trkpt lat="44.22213197685778" lon="-115.07616000249982"><ele>2340.0</ele><time>2020-05-16T18:56:30Z</time></trkpt><trkpt lat="44.22210901044309" lon="-115.07614499889314"><ele>2340.0</ele><time>2020-05-16T18:56:36Z</time></trkpt><trkpt lat="44.222009014338255" lon="-115.07623996585608"><ele>2347.0</ele><time>2020-05-16T18:57:03Z</time></trkpt><trkpt lat="44.22198001295328" lon="-115.07628195919096"><ele>2346.0</ele><time>2020-05-16T18:57:09Z</time></trkpt><trkpt lat="44.22193902544677" lon="-115.07626201026142"><ele>2350.0</ele><time>2020-05-16T18:57:23Z</time></trkpt><trkpt lat="44.22192896716297" lon="-115.07628698833287"><ele>2350.0</ele><time>2020-05-16T18:57:29Z</time></trkpt><trkpt lat="44.22191899269819" lon="-115.0762630160898"><ele>2352.0</ele><time>2020-05-16T18:57:38Z</time></trkpt><trkpt lat="44.221884962171316" lon="-115.07625496946275"><ele>2352.0</ele><time>2020-05-16T18:57:46Z</time></trkpt><trkpt lat="44.22195000573993" lon="-115.076067969203"><ele>2352.0</ele><time>2020-05-16T18:58:01Z</time></trkpt><trkpt lat="44.221967021003366" lon="-115.07598398253322"><ele>2353.0</ele><time>2020-05-16T18:58:08Z</time></trkpt><trkpt lat="44.22192703932524" lon="-115.07601298391819"><ele>2354.0</ele><time>2020-05-16T18:58:13Z</time></trkpt><trkpt lat="44.22190901823342" lon="-115.07604902610183"><ele>2354.5</ele><time>2020-05-16T18:58:20Z</time></trkpt><trkpt lat="44.221921004354954" lon="-115.07600703276694"><ele>2340.0</ele><time>2020-05-16T18:58:29Z</time></trkpt><trkpt lat="44.221812039613724" lon="-115.07617902942002"><ele>2357.0</ele><time>2020-05-16T18:58:58Z</time></trkpt><trkpt lat="44.22168396413326" lon="-115.07610300555825"><ele>2358.0</ele><time>2020-05-16T18:59:13Z</time></trkpt><trkpt lat="44.22171900048852" lon="-115.0761330127716"><ele>2360.0</ele><time>2020-05-16T18:59:19Z</time></trkpt><trkpt lat="44.221754958853126" lon="-115.07611901499331"><ele>2358.0</ele><time>2020-05-16T18:59:26Z</time></trkpt><trkpt lat="44.22174599021673" lon="-115.07615296170115"><ele>2360.0</ele><time>2020-05-16T18:59:31Z</time></trkpt><trkpt lat="44.221707014366984" lon="-115.07621197029948"><ele>2360.0</ele><time>2020-05-16T18:59:45Z</time></trkpt><trkpt lat="44.22171799466014" lon="-115.07617098279297"><ele>2363.0</ele><time>2020-05-16T18:59:54Z</time></trkpt><trkpt lat="44.221643982455134" lon="-115.07625396363437"><ele>2364.0</ele><time>2020-05-16T19:00:12Z</time></trkpt><trkpt lat="44.221643982455134" lon="-115.07618296891451"><ele>2366.0</ele><time>2020-05-16T19:00:26Z</time></trkpt><trkpt lat="44.22159201465547" lon="-115.07624499499798"><ele>2368.0</ele><time>2020-05-16T19:00:36Z</time></trkpt><trkpt lat="44.22157298773527" lon="-115.07620995864272"><ele>2370.0</ele><time>2020-05-16T19:00:43Z</time></trkpt><trkpt lat="44.22153300605714" lon="-115.07624700665474"><ele>2372.0</ele><time>2020-05-16T19:00:50Z</time></trkpt><trkpt lat="44.22154800966382" lon="-115.07616201415658"><ele>2369.0</ele><time>2020-05-16T19:00:57Z</time></trkpt><trkpt lat="44.22152001410723" lon="-115.07611499167979"><ele>2368.0</ele><time>2020-05-16T19:01:16Z</time></trkpt><trkpt lat="44.221538035199046" lon="-115.07607903331518"><ele>2372.0</ele><time>2020-05-16T19:01:37Z</time></trkpt><trkpt lat="44.221515990793705" lon="-115.07612697780132"><ele>2370.0</ele><time>2020-05-16T19:01:52Z</time></trkpt><trkpt lat="44.22155396081507" lon="-115.07610099390149"><ele>2372.0</ele><time>2020-05-16T19:02:01Z</time></trkpt><trkpt lat="44.22149998135865" lon="-115.07612898945808"><ele>2372.0</ele><time>2020-05-16T19:02:10Z</time></trkpt><trkpt lat="44.22150299884379" lon="-115.07618196308613"><ele>2373.2</ele><time>2020-05-16T19:02:23Z</time></trkpt><trkpt lat="44.22151297330856" lon="-115.0761520396918"><ele>2372.0</ele><time>2020-05-16T19:02:43Z</time></trkpt><trkpt lat="44.22153904102743" lon="-115.07612002082169"><ele>2370.0</ele><time>2020-05-16T19:03:05Z</time></trkpt><trkpt lat="44.221538035199046" lon="-115.07615799084306"><ele>2371.0</ele><time>2020-05-16T19:03:13Z</time></trkpt><trkpt lat="44.22149604186416" lon="-115.07613100111485"><ele>2371.0</ele><time>2020-05-16T19:03:41Z</time></trkpt><trkpt lat="44.2215249594301" lon="-115.07616301998496"><ele>2368.0</ele><time>2020-05-16T19:04:39Z</time></trkpt><trkpt lat="44.22152001410723" lon="-115.07619202136993"><ele>2373.0</ele><time>2020-05-16T19:05:16Z</time></trkpt><trkpt lat="44.22148598358035" lon="-115.07619596086442"><ele>2372.0</ele><time>2020-05-16T19:05:19Z</time></trkpt><trkpt lat="44.221449019387364" lon="-115.0761470105499"><ele>2375.0</ele><time>2020-05-16T19:05:27Z</time></trkpt><trkpt lat="44.22141599468887" lon="-115.07614499889314"><ele>2375.0</ele><time>2020-05-16T19:05:30Z</time></trkpt><trkpt lat="44.221341982483864" lon="-115.07619998417795"><ele>2376.0</ele><time>2020-05-16T19:05:35Z</time></trkpt><trkpt lat="44.221281968057156" lon="-115.07620400749147"><ele>2376.0</ele><time>2020-05-16T19:05:45Z</time></trkpt><trkpt lat="44.22129596583545" lon="-115.0761969666928"><ele>2376.0</ele><time>2020-05-16T19:05:54Z</time></trkpt><trkpt lat="44.22116302885115" lon="-115.07630802690983"><ele>2384.0</ele><time>2020-05-16T19:06:33Z</time></trkpt><trkpt lat="44.22112103551626" lon="-115.07631598971784"><ele>2384.0</ele><time>2020-05-16T19:06:40Z</time></trkpt><trkpt lat="44.22107401303947" lon="-115.07635496556759"><ele>2383.0</ele><time>2020-05-16T19:06:48Z</time></trkpt><trkpt lat="44.22105096280575" lon="-115.07634096778929"><ele>2384.0</ele><time>2020-05-16T19:06:57Z</time></trkpt><trkpt lat="44.22096898779273" lon="-115.07639402523637"><ele>2391.0</ele><time>2020-05-16T19:07:23Z</time></trkpt><trkpt lat="44.22094099223614" lon="-115.07642596028745"><ele>2387.0</ele><time>2020-05-16T19:07:33Z</time></trkpt><trkpt lat="44.22092598862946" lon="-115.07648698054254"><ele>2394.0</ele><time>2020-05-16T19:07:54Z</time></trkpt><trkpt lat="44.220893969759345" lon="-115.07648102939129"><ele>2394.0</ele><time>2020-05-16T19:08:01Z</time></trkpt><trkpt lat="44.22081300057471" lon="-115.07651103660464"><ele>2399.0</ele><time>2020-05-16T19:08:13Z</time></trkpt><trkpt lat="44.22077997587621" lon="-115.07651003077626"><ele>2400.0</ele><time>2020-05-16T19:08:20Z</time></trkpt><trkpt lat="44.220741000026464" lon="-115.07662201300263"><ele>2406.0</ele><time>2020-05-16T19:08:59Z</time></trkpt><trkpt lat="44.22070504166186" lon="-115.07662000134587"><ele>2408.0</ele><time>2020-05-16T19:09:04Z</time></trkpt><trkpt lat="44.22062499448657" lon="-115.07665897719562"><ele>2404.0</ele><time>2020-05-16T19:09:21Z</time></trkpt><trkpt lat="44.22060496173799" lon="-115.07669501937926"><ele>2410.0</ele><time>2020-05-16T19:09:36Z</time></trkpt><trkpt lat="44.220528015866876" lon="-115.07668596692383"><ele>2412.0</ele><time>2020-05-16T19:09:50Z</time></trkpt><trkpt lat="44.22051502391696" lon="-115.07671102881432"><ele>2412.0</ele><time>2020-05-16T19:10:10Z</time></trkpt><trkpt lat="44.22047403641045" lon="-115.07671102881432"><ele>2419.0</ele><time>2020-05-16T19:10:43Z</time></trkpt><trkpt lat="44.2204609606415" lon="-115.07668102160096"><ele>2420.0</ele><time>2020-05-16T19:10:47Z</time></trkpt><trkpt lat="44.22043598257005" lon="-115.07680901326239"><ele>2420.0</ele><time>2020-05-16T19:11:11Z</time></trkpt><trkpt lat="44.220357025042176" lon="-115.076844971627"><ele>2428.0</ele><time>2020-05-16T19:11:33Z</time></trkpt><trkpt lat="44.22030698508024" lon="-115.07689199410379"><ele>2429.0</ele><time>2020-05-16T19:11:45Z</time></trkpt><trkpt lat="44.220269015058875" lon="-115.07690599188209"><ele>2428.0</ele><time>2020-05-16T19:11:49Z</time></trkpt><trkpt lat="44.22019802033901" lon="-115.0770209915936"><ele>2432.0</ele><time>2020-05-16T19:12:15Z</time></trkpt><trkpt lat="44.220206988975406" lon="-115.07708000019193"><ele>2436.0</ele><time>2020-05-16T19:12:24Z</time></trkpt><trkpt lat="44.220203971490264" lon="-115.07718896493316"><ele>2437.0</ele><time>2020-05-16T19:12:52Z</time></trkpt><trkpt lat="44.220164995640516" lon="-115.07723799906671"><ele>2443.0</ele><time>2020-05-16T19:13:11Z</time></trkpt><trkpt lat="44.22015896067023" lon="-115.07726800628006"><ele>2444.0</ele><time>2020-05-16T19:13:16Z</time></trkpt><trkpt lat="44.22007103450596" lon="-115.07737797684968"><ele>2444.0</ele><time>2020-05-16T19:13:32Z</time></trkpt><trkpt lat="44.22008997760713" lon="-115.07740496657789"><ele>2448.0</ele><time>2020-05-16T19:13:38Z</time></trkpt><trkpt lat="44.22004697844386" lon="-115.07744000293314"><ele>2450.0</ele><time>2020-05-16T19:13:56Z</time></trkpt><trkpt lat="44.22007103450596" lon="-115.07746397517622"><ele>2452.4</ele><time>2020-05-16T19:14:08Z</time></trkpt><trkpt lat="44.21999601647258" lon="-115.07757696323097"><ele>2452.0</ele><time>2020-05-16T19:14:26Z</time></trkpt><trkpt lat="44.21983298845589" lon="-115.07766103371978"><ele>2459.0</ele><time>2020-05-16T19:15:00Z</time></trkpt><trkpt lat="44.21988998539746" lon="-115.07765097543597"><ele>2460.0</ele><time>2020-05-16T19:15:15Z</time></trkpt><trkpt lat="44.21985402703285" lon="-115.0777430087328"><ele>2460.0</ele><time>2020-05-16T19:15:27Z</time></trkpt><trkpt lat="44.219776997342706" lon="-115.07784803397954"><ele>2461.0</ele><time>2020-05-16T19:15:42Z</time></trkpt><trkpt lat="44.219751013442874" lon="-115.07790897041559"><ele>2463.0</ele><time>2020-05-16T19:15:51Z</time></trkpt><trkpt lat="44.21974196098745" lon="-115.07797602564096"><ele>2460.0</ele><time>2020-05-16T19:16:01Z</time></trkpt><trkpt lat="44.21964196488261" lon="-115.0781259778887"><ele>2468.0</ele><time>2020-05-16T19:16:31Z</time></trkpt><trkpt lat="44.21959795989096" lon="-115.07817098870873"><ele>2472.0</ele><time>2020-05-16T19:16:45Z</time></trkpt><trkpt lat="44.219583962112665" lon="-115.0782330147922"><ele>2475.0</ele><time>2020-05-16T19:16:56Z</time></trkpt><trkpt lat="44.21953501179814" lon="-115.07831700146198"><ele>2475.0</ele><time>2020-05-16T19:17:12Z</time></trkpt><trkpt lat="44.21952302567661" lon="-115.0783630181104"><ele>2480.0</ele><time>2020-05-16T19:17:23Z</time></trkpt><trkpt lat="44.219477009028196" lon="-115.07841699756682"><ele>2483.0</ele><time>2020-05-16T19:17:36Z</time></trkpt><trkpt lat="44.219451025128365" lon="-115.07852202281356"><ele>2485.0</ele><time>2020-05-16T19:17:52Z</time></trkpt><trkpt lat="44.21931699849665" lon="-115.07862897589803"><ele>2493.0</ele><time>2020-05-16T19:18:36Z</time></trkpt><trkpt lat="44.219284979626536" lon="-115.07862897589803"><ele>2495.0</ele><time>2020-05-16T19:18:43Z</time></trkpt><trkpt lat="44.21926503069699" lon="-115.0786910019815"><ele>2495.0</ele><time>2020-05-16T19:18:54Z</time></trkpt><trkpt lat="44.219194035977125" lon="-115.07877498865128"><ele>2502.0</ele><time>2020-05-16T19:19:17Z</time></trkpt><trkpt lat="44.21912203542888" lon="-115.07881698198617"><ele>2504.0</ele><time>2020-05-16T19:19:35Z</time></trkpt><trkpt lat="44.21903897076845" lon="-115.07888403721154"><ele>2507.0</ele><time>2020-05-16T19:19:55Z</time></trkpt><trkpt lat="44.218913996592164" lon="-115.07895796559751"><ele>2515.0</ele><time>2020-05-16T19:20:31Z</time></trkpt><trkpt lat="44.21889002434909" lon="-115.07898503914475"><ele>2514.0</ele><time>2020-05-16T19:20:35Z</time></trkpt><trkpt lat="44.2188430018723" lon="-115.07900901138783"><ele>2517.0</ele><time>2020-05-16T19:20:43Z</time></trkpt><trkpt lat="44.218745017424226" lon="-115.0791400205344"><ele>2520.0</ele><time>2020-05-16T19:21:07Z</time></trkpt><trkpt lat="44.218682991340756" lon="-115.07917002774775"><ele>2520.0</ele><time>2020-05-16T19:21:25Z</time></trkpt><trkpt lat="44.21867100521922" lon="-115.07915602996945"><ele>2523.0</ele><time>2020-05-16T19:21:35Z</time></trkpt><trkpt lat="44.21866497024894" lon="-115.0792140327394"><ele>2520.0</ele><time>2020-05-16T19:22:30Z</time></trkpt><trkpt lat="44.218595987185836" lon="-115.07922995835543"><ele>2524.0</ele><time>2020-05-16T19:22:44Z</time></trkpt><trkpt lat="44.21852298080921" lon="-115.07930195890367"><ele>2526.0</ele><time>2020-05-16T19:22:55Z</time></trkpt><trkpt lat="44.21845500357449" lon="-115.07933598943055"><ele>2526.0</ele><time>2020-05-16T19:23:04Z</time></trkpt><trkpt lat="44.21843899413943" lon="-115.0793659966439"><ele>2530.0</ele><time>2020-05-16T19:23:10Z</time></trkpt><trkpt lat="44.21841200441122" lon="-115.07937001995742"><ele>2530.0</ele><time>2020-05-16T19:23:15Z</time></trkpt><trkpt lat="44.218335980549455" lon="-115.07941503077745"><ele>2530.0</ele><time>2020-05-16T19:23:32Z</time></trkpt><trkpt lat="44.218312008306384" lon="-115.0794400088489"><ele>2532.0</ele><time>2020-05-16T19:23:40Z</time></trkpt><trkpt lat="44.21830203384161" lon="-115.07946901023388"><ele>2535.0</ele><time>2020-05-16T19:23:46Z</time></trkpt><trkpt lat="44.218249982222915" lon="-115.07950203493237"><ele>2536.0</ele><time>2020-05-16T19:23:55Z</time></trkpt><trkpt lat="44.21821402385831" lon="-115.07955299690366"><ele>2538.0</ele><time>2020-05-16T19:24:02Z</time></trkpt><trkpt lat="44.21813397668302" lon="-115.07962801493704"><ele>2538.0</ele><time>2020-05-16T19:24:12Z</time></trkpt><trkpt lat="44.218100029975176" lon="-115.07971703074872"><ele>2538.0</ele><time>2020-05-16T19:24:25Z</time></trkpt><trkpt lat="44.21809097751975" lon="-115.0797819904983"><ele>2538.0</ele><time>2020-05-16T19:24:30Z</time></trkpt><trkpt lat="44.218076979741454" lon="-115.07980898022652"><ele>2536.0</ele><time>2020-05-16T19:24:33Z</time></trkpt><trkpt lat="44.21802903525531" lon="-115.07985399104655"><ele>2538.0</ele><time>2020-05-16T19:24:40Z</time></trkpt><trkpt lat="44.21801503747702" lon="-115.07988701574504"><ele>2538.0</ele><time>2020-05-16T19:24:43Z</time></trkpt><trkpt lat="44.21800598502159" lon="-115.07998198270798"><ele>2542.0</ele><time>2020-05-16T19:24:52Z</time></trkpt><trkpt lat="44.21798695810139" lon="-115.08001500740647"><ele>2542.3</ele><time>2020-05-16T19:24:56Z</time></trkpt><trkpt lat="44.21798201277852" lon="-115.08005297742784"><ele>2540.0</ele><time>2020-05-16T19:24:59Z</time></trkpt><trkpt lat="44.217950999736786" lon="-115.08010896854103"><ele>2542.0</ele><time>2020-05-16T19:25:06Z</time></trkpt><trkpt lat="44.21792401000857" lon="-115.08013696409762"><ele>2544.0</ele><time>2020-05-16T19:25:11Z</time></trkpt><trkpt lat="44.217753019183874" lon="-115.08020795881748"><ele>2544.0</ele><time>2020-05-16T19:25:28Z</time></trkpt><trkpt lat="44.21768001280725" lon="-115.08022103458643"><ele>2544.0</ele><time>2020-05-16T19:25:38Z</time></trkpt><trkpt lat="44.21768101863563" lon="-115.08033997379243"><ele>2546.0</ele><time>2020-05-16T19:26:02Z</time></trkpt><trkpt lat="44.21765201725066" lon="-115.08035900071263"><ele>2547.0</ele><time>2020-05-16T19:26:16Z</time></trkpt><trkpt lat="44.21763399615884" lon="-115.08039101958275"><ele>2554.0</ele><time>2020-05-16T19:26:24Z</time></trkpt><trkpt lat="44.217604994773865" lon="-115.08041499182582"><ele>2557.6</ele><time>2020-05-16T19:26:32Z</time></trkpt><trkpt lat="44.217543974518776" lon="-115.0804159976542"><ele>2556.0</ele><time>2020-05-16T19:26:45Z</time></trkpt><trkpt lat="44.21751002781093" lon="-115.08042597211897"><ele>2559.0</ele><time>2020-05-16T19:26:50Z</time></trkpt><trkpt lat="44.21748597174883" lon="-115.08045296184719"><ele>2559.0</ele><time>2020-05-16T19:26:53Z</time></trkpt><trkpt lat="44.21754699200392" lon="-115.08047601208091"><ele>2559.0</ele><time>2020-05-16T19:26:58Z</time></trkpt><trkpt lat="44.21748697757721" lon="-115.08048598654568"><ele>2562.0</ele><time>2020-05-16T19:27:04Z</time></trkpt><trkpt lat="44.217454958707094" lon="-115.08050601929426"><ele>2560.0</ele><time>2020-05-16T19:27:08Z</time></trkpt><trkpt lat="44.217477003112435" lon="-115.08054197765887"><ele>2563.0</ele><time>2020-05-16T19:27:16Z</time></trkpt><trkpt lat="44.217455964535475" lon="-115.0805589929223"><ele>2565.0</ele><time>2020-05-16T19:27:22Z</time></trkpt><trkpt lat="44.21738597564399" lon="-115.0805729907006"><ele>2566.0</ele><time>2020-05-16T19:27:26Z</time></trkpt><trkpt lat="44.21732001006603" lon="-115.08065395988524"><ele>2567.0</ele><time>2020-05-16T19:27:46Z</time></trkpt><trkpt lat="44.21733400784433" lon="-115.08072797209024"><ele>2571.0</ele><time>2020-05-16T19:27:57Z</time></trkpt><trkpt lat="44.21740299090743" lon="-115.08076996542513"><ele>2569.0</ele><time>2020-05-16T19:28:04Z</time></trkpt><trkpt lat="44.21738103032112" lon="-115.080796033144"><ele>2572.0</ele><time>2020-05-16T19:28:09Z</time></trkpt><trkpt lat="44.21733300201595" lon="-115.08078304119408"><ele>2573.0</ele><time>2020-05-16T19:28:12Z</time></trkpt><trkpt lat="44.21728698536754" lon="-115.08072897791862"><ele>2575.1</ele><time>2020-05-16T19:28:19Z</time></trkpt><trkpt lat="44.217176008969545" lon="-115.08076099678874"><ele>2576.2</ele><time>2020-05-16T19:28:27Z</time></trkpt><trkpt lat="44.216984985396266" lon="-115.08087297901511"><ele>2576.0</ele><time>2020-05-16T19:28:35Z</time></trkpt><trkpt lat="44.21686897985637" lon="-115.08091296069324"><ele>2576.0</ele><time>2020-05-16T19:28:40Z</time></trkpt><trkpt lat="44.21707701869309" lon="-115.08078396320343"><ele>2581.0</ele><time>2020-05-16T19:29:02Z</time></trkpt><trkpt lat="44.21705698594451" lon="-115.08075596764684"><ele>2582.0</ele><time>2020-05-16T19:29:07Z</time></trkpt><trkpt lat="44.216896975412965" lon="-115.08070399984717"><ele>2585.1</ele><time>2020-05-16T19:29:29Z</time></trkpt><trkpt lat="44.216981967911124" lon="-115.08059796877205"><ele>2584.0</ele><time>2020-05-16T19:29:36Z</time></trkpt><trkpt lat="44.217023961246014" lon="-115.08059503510594"><ele>2584.0</ele><time>2020-05-16T19:29:38Z</time></trkpt><trkpt lat="44.217023961246014" lon="-115.08053803816438"><ele>2585.5</ele><time>2020-05-16T19:29:41Z</time></trkpt><trkpt lat="44.21700904145837" lon="-115.08049797266722"><ele>2584.0</ele><time>2020-05-16T19:29:45Z</time></trkpt><trkpt lat="44.217108031734824" lon="-115.08047500625253"><ele>2585.6</ele><time>2020-05-16T19:30:01Z</time></trkpt><trkpt lat="44.21705296263099" lon="-115.08049202151597"><ele>2584.0</ele><time>2020-05-16T19:30:04Z</time></trkpt><trkpt lat="44.21700803562999" lon="-115.0804900098592"><ele>2583.0</ele><time>2020-05-16T19:30:07Z</time></trkpt><trkpt lat="44.21695698983967" lon="-115.08046897128224"><ele>2585.0</ele><time>2020-05-16T19:30:14Z</time></trkpt><trkpt lat="44.21716100536287" lon="-115.08042396046221"><ele>2583.0</ele><time>2020-05-16T19:30:41Z</time></trkpt><trkpt lat="44.2171679623425" lon="-115.08046603761613"><ele>2585.5</ele><time>2020-05-16T19:30:53Z</time></trkpt><trkpt lat="44.217196041718125" lon="-115.08048799820244"><ele>2581.0</ele><time>2020-05-16T19:31:08Z</time></trkpt><trkpt lat="44.21712404116988" lon="-115.08049797266722"><ele>2585.4</ele><time>2020-05-16T19:31:30Z</time></trkpt><trkpt lat="44.21701398678124" lon="-115.0805510301143"><ele>2584.0</ele><time>2020-05-16T19:31:42Z</time></trkpt><trkpt lat="44.21700904145837" lon="-115.0805090367794"><ele>2587.0</ele><time>2020-05-16T19:31:53Z</time></trkpt><trkpt lat="44.21697199344635" lon="-115.08050803095102"><ele>2588.0</ele><time>2020-05-16T19:31:55Z</time></trkpt><trkpt lat="44.21690703369677" lon="-115.08052797988057"><ele>2590.3</ele><time>2020-05-16T19:31:58Z</time></trkpt><trkpt lat="44.21684098429978" lon="-115.08049202151597"><ele>2592.0</ele><time>2020-05-16T19:32:19Z</time></trkpt><trkpt lat="44.21678197570145" lon="-115.0805729907006"><ele>2594.0</ele><time>2020-05-16T19:32:23Z</time></trkpt><trkpt lat="44.216788010671735" lon="-115.08055597543716"><ele>2594.0</ele><time>2020-05-16T19:32:29Z</time></trkpt><trkpt lat="44.21673000790179" lon="-115.08054197765887"><ele>2597.0</ele><time>2020-05-16T19:32:32Z</time></trkpt><trkpt lat="44.216658007353544" lon="-115.0805539637804"><ele>2595.0</ele><time>2020-05-16T19:32:35Z</time></trkpt><trkpt lat="44.21660997904837" lon="-115.0805320031941"><ele>2597.0</ele><time>2020-05-16T19:32:38Z</time></trkpt><trkpt lat="44.21660897321999" lon="-115.08046100847423"><ele>2598.0</ele><time>2020-05-16T19:32:45Z</time></trkpt><trkpt lat="44.21658399514854" lon="-115.08044399321079"><ele>2597.0</ele><time>2020-05-16T19:32:50Z</time></trkpt><trkpt lat="44.216615008190274" lon="-115.08040996268392"><ele>2601.1</ele><time>2020-05-16T19:32:54Z</time></trkpt><trkpt lat="44.21674903482199" lon="-115.08039403706789"><ele>2600.0</ele><time>2020-05-16T19:32:57Z</time></trkpt><trkpt lat="44.216852970421314" lon="-115.08035900071263"><ele>2597.0</ele><time>2020-05-16T19:33:03Z</time></trkpt><trkpt lat="44.216811982914805" lon="-115.0803330168128"><ele>2602.9</ele><time>2020-05-16T19:33:07Z</time></trkpt><trkpt lat="44.216763032600284" lon="-115.08032203651965"><ele>2602.4</ele><time>2020-05-16T19:33:08Z</time></trkpt><trkpt lat="44.21670997515321" lon="-115.08028498850763"><ele>2602.0</ele><time>2020-05-16T19:33:10Z</time></trkpt><trkpt lat="44.21665599569678" lon="-115.08028297685087"><ele>2603.0</ele><time>2020-05-16T19:33:12Z</time></trkpt><trkpt lat="44.216487016528845" lon="-115.08034802041948"><ele>2605.2</ele><time>2020-05-16T19:33:23Z</time></trkpt><trkpt lat="44.21637000516057" lon="-115.08037098683417"><ele>2606.5</ele><time>2020-05-16T19:33:25Z</time></trkpt><trkpt lat="44.2162440251559" lon="-115.0804159976542"><ele>2606.0</ele><time>2020-05-16T19:33:27Z</time></trkpt><trkpt lat="44.216190967708826" lon="-115.08041901513934"><ele>2607.0</ele><time>2020-05-16T19:33:30Z</time></trkpt><trkpt lat="44.21638702042401" lon="-115.08037299849093"><ele>2607.3</ele><time>2020-05-16T19:33:32Z</time></trkpt><trkpt lat="44.216423984616995" lon="-115.08037601597607"><ele>2607.0</ele><time>2020-05-16T19:33:34Z</time></trkpt><trkpt lat="44.2164839990437" lon="-115.08031499572098"><ele>2606.0</ele><time>2020-05-16T19:33:39Z</time></trkpt><trkpt lat="44.21643102541566" lon="-115.08030099794269"><ele>2607.0</ele><time>2020-05-16T19:33:45Z</time></trkpt><trkpt lat="44.21636598184705" lon="-115.0802640337497"><ele>2610.0</ele><time>2020-05-16T19:33:51Z</time></trkpt><trkpt lat="44.2163320351392" lon="-115.0802949629724"><ele>2611.0</ele><time>2020-05-16T19:33:57Z</time></trkpt><trkpt lat="44.21632801182568" lon="-115.0803330168128"><ele>2610.0</ele><time>2020-05-16T19:34:00Z</time></trkpt><trkpt lat="44.21629901044071" lon="-115.08034600876272"><ele>2612.0</ele><time>2020-05-16T19:34:02Z</time></trkpt><trkpt lat="44.2162249982357" lon="-115.08033502846956"><ele>2607.0</ele><time>2020-05-16T19:34:13Z</time></trkpt><trkpt lat="44.21633396297693" lon="-115.08026202209294"><ele>2615.4</ele><time>2020-05-16T19:34:21Z</time></trkpt><trkpt lat="44.21639297157526" lon="-115.08024400100112"><ele>2615.0</ele><time>2020-05-16T19:34:24Z</time></trkpt><trkpt lat="44.21629901044071" lon="-115.08024601265788"><ele>2616.8</ele><time>2020-05-16T19:34:29Z</time></trkpt><trkpt lat="44.21604202128947" lon="-115.08021801710129"><ele>2617.1</ele><time>2020-05-16T19:34:31Z</time></trkpt><trkpt lat="44.2159990221262" lon="-115.08023000322282"><ele>2615.0</ele><time>2020-05-16T19:34:36Z</time></trkpt><trkpt lat="44.21596197411418" lon="-115.08026302792132"><ele>2618.0</ele><time>2020-05-16T19:34:41Z</time></trkpt><trkpt lat="44.21591796912253" lon="-115.08026998490095"><ele>2619.6</ele><time>2020-05-16T19:34:43Z</time></trkpt><trkpt lat="44.21576701104641" lon="-115.0803330168128"><ele>2620.0</ele><time>2020-05-16T19:34:46Z</time></trkpt><trkpt lat="44.215717976912856" lon="-115.08033502846956"><ele>2620.0</ele><time>2020-05-16T19:34:50Z</time></trkpt><trkpt lat="44.215754019096494" lon="-115.08035195991397"><ele>2621.0</ele><time>2020-05-16T19:34:53Z</time></trkpt><trkpt lat="44.21581101603806" lon="-115.08033997379243"><ele>2622.3</ele><time>2020-05-16T19:34:57Z</time></trkpt><trkpt lat="44.216037997975945" lon="-115.08018197491765"><ele>2622.0</ele><time>2020-05-16T19:35:00Z</time></trkpt><trkpt lat="44.21611703932285" lon="-115.08019102737308"><ele>2622.0</ele><time>2020-05-16T19:35:04Z</time></trkpt><trkpt lat="44.216078985482454" lon="-115.08021399378777"><ele>2624.0</ele><time>2020-05-16T19:35:07Z</time></trkpt><trkpt lat="44.21600203961134" lon="-115.08022899739444"><ele>2623.0</ele><time>2020-05-16T19:35:12Z</time></trkpt><trkpt lat="44.21602098271251" lon="-115.08020502515137"><ele>2624.0</ele><time>2020-05-16T19:35:14Z</time></trkpt><trkpt lat="44.216185016557574" lon="-115.08008600212634"><ele>2624.0</ele><time>2020-05-16T19:35:17Z</time></trkpt><trkpt lat="44.21596398577094" lon="-115.08017200045288"><ele>2624.0</ele><time>2020-05-16T19:35:29Z</time></trkpt><trkpt lat="44.216018971055746" lon="-115.08008700795472"><ele>2627.0</ele><time>2020-05-16T19:35:36Z</time></trkpt><trkpt lat="44.21606699936092" lon="-115.08003504015505"><ele>2628.0</ele><time>2020-05-16T19:35:42Z</time></trkpt><trkpt lat="44.21600296162069" lon="-115.08003504015505"><ele>2630.3</ele><time>2020-05-16T19:35:45Z</time></trkpt><trkpt lat="44.21579098328948" lon="-115.08015297353268"><ele>2630.0</ele><time>2020-05-16T19:35:50Z</time></trkpt><trkpt lat="44.21572803519666" lon="-115.08014098741114"><ele>2628.0</ele><time>2020-05-16T19:35:54Z</time></trkpt><trkpt lat="44.21586901880801" lon="-115.08003797382116"><ele>2631.6</ele><time>2020-05-16T19:35:59Z</time></trkpt><trkpt lat="44.21586097218096" lon="-115.07997301407158"><ele>2632.0</ele><time>2020-05-16T19:36:04Z</time></trkpt><trkpt lat="44.21574496664107" lon="-115.08004702627659"><ele>2636.0</ele><time>2020-05-16T19:36:27Z</time></trkpt><trkpt lat="44.21581001020968" lon="-115.0800000037998"><ele>2637.0</ele><time>2020-05-16T19:36:33Z</time></trkpt><trkpt lat="44.21579198911786" lon="-115.08002699352801"><ele>2635.0</ele><time>2020-05-16T19:36:42Z</time></trkpt><trkpt lat="44.21575301326811" lon="-115.08005700074136"><ele>2640.0</ele><time>2020-05-16T19:36:49Z</time></trkpt><trkpt lat="44.215760976076126" lon="-115.08009798824787"><ele>2639.0</ele><time>2020-05-16T19:37:00Z</time></trkpt><trkpt lat="44.2157260235399" lon="-115.08013403043151"><ele>2640.0</ele><time>2020-05-16T19:37:17Z</time></trkpt><trkpt lat="44.21569601632655" lon="-115.08013503625989"><ele>2641.0</ele><time>2020-05-16T19:37:23Z</time></trkpt><trkpt lat="44.21570900827646" lon="-115.08015800267458"><ele>2637.0</ele><time>2020-05-16T19:37:30Z</time></trkpt><trkpt lat="44.21564497053623" lon="-115.08020603097975"><ele>2644.0</ele><time>2020-05-16T19:37:42Z</time></trkpt><trkpt lat="44.21565402299166" lon="-115.08024903014302"><ele>2642.0</ele><time>2020-05-16T19:37:57Z</time></trkpt><trkpt lat="44.21564396470785" lon="-115.08028700016439"><ele>2647.0</ele><time>2020-05-16T19:38:07Z</time></trkpt><trkpt lat="44.21568201854825" lon="-115.0803419854492"><ele>2649.0</ele><time>2020-05-16T19:38:12Z</time></trkpt><trkpt lat="44.21572803519666" lon="-115.08036897517741"><ele>2649.0</ele><time>2020-05-16T19:38:17Z</time></trkpt><trkpt lat="44.215760976076126" lon="-115.08045899681747"><ele>2652.0</ele><time>2020-05-16T19:38:29Z</time></trkpt><trkpt lat="44.21581202186644" lon="-115.08051096461713"><ele>2650.0</ele><time>2020-05-16T19:38:49Z</time></trkpt><trkpt lat="44.21581797301769" lon="-115.08053896017373"><ele>2654.0</ele><time>2020-05-16T19:39:02Z</time></trkpt><trkpt lat="44.21586097218096" lon="-115.08061003871262"><ele>2655.0</ele><time>2020-05-16T19:39:11Z</time></trkpt><trkpt lat="44.215862983837724" lon="-115.08070601150393"><ele>2656.0</ele><time>2020-05-16T19:39:23Z</time></trkpt><trkpt lat="44.215887961909175" lon="-115.08072897791862"><ele>2656.0</ele><time>2020-05-16T19:39:27Z</time></trkpt><trkpt lat="44.21593699604273" lon="-115.08072797209024"><ele>2658.0</ele><time>2020-05-16T19:39:32Z</time></trkpt><trkpt lat="44.215970020741224" lon="-115.08078899234533"><ele>2662.0</ele><time>2020-05-16T19:39:52Z</time></trkpt><trkpt lat="44.21591897495091" lon="-115.08084003813565"><ele>2664.0</ele><time>2020-05-16T19:40:09Z</time></trkpt><trkpt lat="44.21593900769949" lon="-115.08091203868389"><ele>2665.0</ele><time>2020-05-16T19:40:30Z</time></trkpt><trkpt lat="44.21600103378296" lon="-115.08097096346319"><ele>2668.0</ele><time>2020-05-16T19:40:44Z</time></trkpt><trkpt lat="44.215884022414684" lon="-115.08108504116535"><ele>2670.0</ele><time>2020-05-16T19:41:19Z</time></trkpt><trkpt lat="44.21585703268647" lon="-115.08116500452161"><ele>2672.0</ele><time>2020-05-16T19:41:32Z</time></trkpt><trkpt lat="44.21589600853622" lon="-115.08125997148454"><ele>2672.0</ele><time>2020-05-16T19:41:53Z</time></trkpt><trkpt lat="44.21581503935158" lon="-115.0812899786979"><ele>2672.0</ele><time>2020-05-16T19:42:07Z</time></trkpt><trkpt lat="44.215842029079795" lon="-115.08134001865983"><ele>2680.0</ele><time>2020-05-16T19:42:22Z</time></trkpt><trkpt lat="44.21588100492954" lon="-115.08135301060975"><ele>2681.8</ele><time>2020-05-16T19:42:28Z</time></trkpt><trkpt lat="44.215823002159595" lon="-115.08136298507452"><ele>2682.0</ele><time>2020-05-16T19:42:32Z</time></trkpt><trkpt lat="44.21578201465309" lon="-115.081358961761"><ele>2676.0</ele><time>2020-05-16T19:42:39Z</time></trkpt><trkpt lat="44.21581897884607" lon="-115.08129903115332"><ele>2682.0</ele><time>2020-05-16T19:42:47Z</time></trkpt><trkpt lat="44.215888967737556" lon="-115.08131001144648"><ele>2679.0</ele><time>2020-05-16T19:43:02Z</time></trkpt><trkpt lat="44.21587002463639" lon="-115.08137497119606"><ele>2682.0</ele><time>2020-05-16T19:43:12Z</time></trkpt><trkpt lat="44.21583901159465" lon="-115.08141696453094"><ele>2684.0</ele><time>2020-05-16T19:43:20Z</time></trkpt><trkpt lat="44.21581001020968" lon="-115.08143599145114"><ele>2683.0</ele><time>2020-05-16T19:43:25Z</time></trkpt><trkpt lat="44.21574697829783" lon="-115.08145300671458"><ele>2682.0</ele><time>2020-05-16T19:43:36Z</time></trkpt><trkpt lat="44.21568604186177" lon="-115.08150002919137"><ele>2692.0</ele><time>2020-05-16T19:44:04Z</time></trkpt><trkpt lat="44.21564698219299" lon="-115.0815629772842"><ele>2690.0</ele><time>2020-05-16T19:44:28Z</time></trkpt><trkpt lat="44.21558998525143" lon="-115.08150296285748"><ele>2700.0</ele><time>2020-05-16T19:44:53Z</time></trkpt><trkpt lat="44.2155169788748" lon="-115.08158401586115"><ele>2700.0</ele><time>2020-05-16T19:45:05Z</time></trkpt><trkpt lat="44.21551303938031" lon="-115.0816319603473"><ele>2702.0</ele><time>2020-05-16T19:45:20Z</time></trkpt><trkpt lat="44.215459981933236" lon="-115.08168300613761"><ele>2706.0</ele><time>2020-05-16T19:45:33Z</time></trkpt><trkpt lat="44.21543802134693" lon="-115.08172198198736"><ele>2706.0</ele><time>2020-05-16T19:45:42Z</time></trkpt><trkpt lat="44.21540399082005" lon="-115.08174201473594"><ele>2700.0</ele><time>2020-05-16T19:45:56Z</time></trkpt><trkpt lat="44.21544698998332" lon="-115.08167697116733"><ele>2700.0</ele><time>2020-05-16T19:46:16Z</time></trkpt><trkpt lat="44.215308018028736" lon="-115.08171502500772"><ele>2714.0</ele><time>2020-05-16T19:46:32Z</time></trkpt><trkpt lat="44.21530198305845" lon="-115.08164796978235"><ele>2710.0</ele><time>2020-05-16T19:46:50Z</time></trkpt><trkpt lat="44.2152719758451" lon="-115.08164696395397"><ele>2713.0</ele><time>2020-05-16T19:47:00Z</time></trkpt><trkpt lat="44.21524699777365" lon="-115.08162600919604"><ele>2718.0</ele><time>2020-05-16T19:47:08Z</time></trkpt><trkpt lat="44.215200981125236" lon="-115.08154998533428"><ele>2722.0</ele><time>2020-05-16T19:47:22Z</time></trkpt><trkpt lat="44.21516502276063" lon="-115.0815349817276"><ele>2723.9</ele><time>2020-05-16T19:47:27Z</time></trkpt><trkpt lat="44.21515395864844" lon="-115.08150002919137"><ele>2725.8</ele><time>2020-05-16T19:47:34Z</time></trkpt><trkpt lat="44.2151940241456" lon="-115.08153598755598"><ele>2724.0</ele><time>2020-05-16T19:47:41Z</time></trkpt><trkpt lat="44.21526996418834" lon="-115.08155602030456"><ele>2724.0</ele><time>2020-05-16T19:47:46Z</time></trkpt><trkpt lat="44.21531899832189" lon="-115.08153095841408"><ele>2724.0</ele><time>2020-05-16T19:47:50Z</time></trkpt><trkpt lat="44.21524900943041" lon="-115.08131101727486"><ele>2728.0</ele><time>2020-05-16T19:48:12Z</time></trkpt><trkpt lat="44.21522403135896" lon="-115.08127103559673"><ele>2730.0</ele><time>2020-05-16T19:48:23Z</time></trkpt><trkpt lat="44.215222019702196" lon="-115.08120398037136"><ele>2730.0</ele><time>2020-05-16T19:48:32Z</time></trkpt><trkpt lat="44.21518698334694" lon="-115.08106500841677"><ele>2732.0</ele><time>2020-05-16T19:48:47Z</time></trkpt><trkpt lat="44.21516200527549" lon="-115.08104003034532"><ele>2731.0</ele><time>2020-05-16T19:48:52Z</time></trkpt><trkpt lat="44.21505999751389" lon="-115.08103801868856"><ele>2735.0</ele><time>2020-05-16T19:49:11Z</time></trkpt><trkpt lat="44.21503501944244" lon="-115.08101496845484"><ele>2736.0</ele><time>2020-05-16T19:49:16Z</time></trkpt><trkpt lat="44.21502496115863" lon="-115.08096802979708"><ele>2737.0</ele><time>2020-05-16T19:49:28Z</time></trkpt><trkpt lat="44.21503996476531" lon="-115.08100398816168"><ele>2739.0</ele><time>2020-05-16T19:49:44Z</time></trkpt><trkpt lat="44.21492697671056" lon="-115.08107003755867"><ele>2744.0</ele><time>2020-05-16T19:50:03Z</time></trkpt><trkpt lat="44.21494600363076" lon="-115.08115503005683"><ele>2745.0</ele><time>2020-05-16T19:50:19Z</time></trkpt><trkpt lat="44.21484801918268" lon="-115.08119702339172"><ele>2749.0</ele><time>2020-05-16T19:50:43Z</time></trkpt><trkpt lat="44.21486000530422" lon="-115.08124203421175"><ele>2743.0</ele><time>2020-05-16T19:51:00Z</time></trkpt><trkpt lat="44.214896969497204" lon="-115.08126097731292"><ele>2752.0</ele><time>2020-05-16T19:51:08Z</time></trkpt><trkpt lat="44.21486402861774" lon="-115.08129601366818"><ele>2754.0</ele><time>2020-05-16T19:51:22Z</time></trkpt><trkpt lat="44.21477903611958" lon="-115.0813449639827"><ele>2745.0</ele><time>2020-05-16T19:51:44Z</time></trkpt><trkpt lat="44.21472396701574" lon="-115.08146801032126"><ele>2763.0</ele><time>2020-05-16T19:52:26Z</time></trkpt><trkpt lat="44.21476596035063" lon="-115.08147203363478"><ele>2760.0</ele><time>2020-05-16T19:52:40Z</time></trkpt><trkpt lat="44.21471198089421" lon="-115.08148603141308"><ele>2764.0</ele><time>2020-05-16T19:52:51Z</time></trkpt><trkpt lat="44.21467300504446" lon="-115.08151897229254"><ele>2766.0</ele><time>2020-05-16T19:53:12Z</time></trkpt><trkpt lat="44.21472396701574" lon="-115.08152701891959"><ele>2767.7</ele><time>2020-05-16T19:53:18Z</time></trkpt><trkpt lat="44.21468800865114" lon="-115.08151997812092"><ele>2760.0</ele><time>2020-05-16T19:53:25Z</time></trkpt><trkpt lat="44.21463302336633" lon="-115.08147002197802"><ele>2768.0</ele><time>2020-05-16T19:53:35Z</time></trkpt><trkpt lat="44.2145880125463" lon="-115.08146197535098"><ele>2769.3</ele><time>2020-05-16T19:53:37Z</time></trkpt><trkpt lat="44.21454903669655" lon="-115.0814799964428"><ele>2768.0</ele><time>2020-05-16T19:53:39Z</time></trkpt><trkpt lat="44.21460301615298" lon="-115.08146197535098"><ele>2768.0</ele><time>2020-05-16T19:53:44Z</time></trkpt><trkpt lat="44.214661018922925" lon="-115.0813970156014"><ele>2763.0</ele><time>2020-05-16T19:53:52Z</time></trkpt><trkpt lat="44.21467996202409" lon="-115.08142299950123"><ele>2768.0</ele><time>2020-05-16T19:53:57Z</time></trkpt><trkpt lat="44.214659007266164" lon="-115.08149701170623"><ele>2768.0</ele><time>2020-05-16T19:54:02Z</time></trkpt><trkpt lat="44.21460402198136" lon="-115.08161896839738"><ele>2766.0</ele><time>2020-05-16T19:54:19Z</time></trkpt><trkpt lat="44.214552976191044" lon="-115.0816369894892"><ele>2760.0</ele><time>2020-05-16T19:54:29Z</time></trkpt><trkpt lat="44.214552976191044" lon="-115.08154998533428"><ele>2768.0</ele><time>2020-05-16T19:54:38Z</time></trkpt><trkpt lat="44.214536966755986" lon="-115.08148301392794"><ele>2765.0</ele><time>2020-05-16T19:54:44Z</time></trkpt><trkpt lat="44.21454702503979" lon="-115.08144202642143"><ele>2766.0</ele><time>2020-05-16T19:54:51Z</time></trkpt><trkpt lat="44.214640986174345" lon="-115.08145501837134"><ele>2767.0</ele><time>2020-05-16T19:55:19Z</time></trkpt><trkpt lat="44.21465297229588" lon="-115.08140497840941"><ele>2772.0</ele><time>2020-05-16T19:55:53Z</time></trkpt><trkpt lat="44.21462900005281" lon="-115.08134303614497"><ele>2771.0</ele><time>2020-05-16T19:56:23Z</time></trkpt><trkpt lat="44.21463101170957" lon="-115.08142199367285"><ele>2772.0</ele><time>2020-05-16T19:56:32Z</time></trkpt><trkpt lat="44.2146020103246" lon="-115.08147697895765"><ele>2772.6</ele><time>2020-05-16T19:56:35Z</time></trkpt><trkpt lat="44.21458700671792" lon="-115.08140497840941"><ele>2772.0</ele><time>2020-05-16T19:56:44Z</time></trkpt><trkpt lat="44.21459496952593" lon="-115.0813639909029"><ele>2770.0</ele><time>2020-05-16T19:56:50Z</time></trkpt><trkpt lat="44.21465800143778" lon="-115.08141696453094"><ele>2768.0</ele><time>2020-05-16T19:57:04Z</time></trkpt><trkpt lat="44.214641992002726" lon="-115.08138201199472"><ele>2772.0</ele><time>2020-05-16T19:57:14Z</time></trkpt><trkpt lat="44.21461500227451" lon="-115.08141595870256"><ele>2772.0</ele><time>2020-05-16T19:57:17Z</time></trkpt><trkpt lat="44.21459002420306" lon="-115.08148301392794"><ele>2773.0</ele><time>2020-05-16T19:57:25Z</time></trkpt><trkpt lat="44.21458499506116" lon="-115.08144001476467"><ele>2774.0</ele><time>2020-05-16T19:57:33Z</time></trkpt><trkpt lat="44.21462497673929" lon="-115.08141797035933"><ele>2771.0</ele><time>2020-05-16T19:57:46Z</time></trkpt><trkpt lat="44.21456404030323" lon="-115.08134001865983"><ele>2778.0</ele><time>2020-05-16T19:58:11Z</time></trkpt><trkpt lat="44.21453503891826" lon="-115.08141797035933"><ele>2780.0</ele><time>2020-05-16T19:58:20Z</time></trkpt><trkpt lat="44.21453897841275" lon="-115.08147496730089"><ele>2777.0</ele><time>2020-05-16T19:58:35Z</time></trkpt><trkpt lat="44.21455901116133" lon="-115.08138704113662"><ele>2780.0</ele><time>2020-05-16T19:58:47Z</time></trkpt><trkpt lat="44.214489022269845" lon="-115.08157001808286"><ele>2784.7</ele><time>2020-05-16T19:59:02Z</time></trkpt><trkpt lat="44.21452296897769" lon="-115.08150002919137"><ele>2784.8</ele><time>2020-05-16T19:59:05Z</time></trkpt><trkpt lat="44.21452296897769" lon="-115.08146801032126"><ele>2784.0</ele><time>2020-05-16T19:59:09Z</time></trkpt><trkpt lat="44.21450603753328" lon="-115.0814380031079"><ele>2784.0</ele><time>2020-05-16T19:59:14Z</time></trkpt><trkpt lat="44.21452196314931" lon="-115.08135996758938"><ele>2786.0</ele><time>2020-05-16T19:59:18Z</time></trkpt><trkpt lat="44.21450302004814" lon="-115.08133398368955"><ele>2783.0</ele><time>2020-05-16T19:59:29Z</time></trkpt><trkpt lat="44.21445700339973" lon="-115.0813830178231"><ele>2780.0</ele><time>2020-05-16T19:59:45Z</time></trkpt><trkpt lat="44.2144949734211" lon="-115.08121898397803"><ele>2788.0</ele><time>2020-05-16T19:59:58Z</time></trkpt><trkpt lat="44.21450302004814" lon="-115.08125997148454"><ele>2788.0</ele><time>2020-05-16T20:00:08Z</time></trkpt><trkpt lat="44.2144860047847" lon="-115.08129701949656"><ele>2790.0</ele><time>2020-05-16T20:00:12Z</time></trkpt><trkpt lat="44.214445017278194" lon="-115.08130397647619"><ele>2790.0</ele><time>2020-05-16T20:00:25Z</time></trkpt><trkpt lat="44.214407969266176" lon="-115.08138000033796"><ele>2793.0</ele><time>2020-05-16T20:00:33Z</time></trkpt><trkpt lat="44.21440998092294" lon="-115.08133498951793"><ele>2794.0</ele><time>2020-05-16T20:00:36Z</time></trkpt><trkpt lat="44.21447200700641" lon="-115.081240022555"><ele>2794.0</ele><time>2020-05-16T20:00:42Z</time></trkpt><trkpt lat="44.214426996186376" lon="-115.08130498230457"><ele>2794.5</ele><time>2020-05-16T20:00:47Z</time></trkpt><trkpt lat="44.2144119925797" lon="-115.0813830178231"><ele>2795.0</ele><time>2020-05-16T20:00:52Z</time></trkpt><trkpt lat="44.214424984529614" lon="-115.08133398368955"><ele>2794.0</ele><time>2020-05-16T20:00:55Z</time></trkpt><trkpt lat="44.21441903337836" lon="-115.08120096288621"><ele>2795.0</ele><time>2020-05-16T20:01:03Z</time></trkpt><trkpt lat="44.214380979537964" lon="-115.08117598481476"><ele>2792.0</ele><time>2020-05-16T20:01:09Z</time></trkpt><trkpt lat="44.214362036436796" lon="-115.08121797814965"><ele>2796.0</ele><time>2020-05-16T20:01:25Z</time></trkpt><trkpt lat="44.21437704004347" lon="-115.08126298896968"><ele>2797.0</ele><time>2020-05-16T20:01:30Z</time></trkpt><trkpt lat="44.214361030608416" lon="-115.08124899119139"><ele>2799.0</ele><time>2020-05-16T20:01:35Z</time></trkpt><trkpt lat="44.21433697454631" lon="-115.08131998591125"><ele>2797.0</ele><time>2020-05-16T20:01:44Z</time></trkpt><trkpt lat="44.21437502838671" lon="-115.08123499341309"><ele>2800.0</ele><time>2020-05-16T20:01:52Z</time></trkpt><trkpt lat="44.21437796205282" lon="-115.0811930000782"><ele>2800.0</ele><time>2020-05-16T20:01:55Z</time></trkpt><trkpt lat="44.214363964274526" lon="-115.08108504116535"><ele>2800.0</ele><time>2020-05-16T20:02:03Z</time></trkpt><trkpt lat="44.21431300230324" lon="-115.08113399147987"><ele>2798.0</ele><time>2020-05-16T20:02:16Z</time></trkpt><trkpt lat="44.21430596150458" lon="-115.0813280325383"><ele>2802.0</ele><time>2020-05-16T20:02:31Z</time></trkpt><trkpt lat="44.21433697454631" lon="-115.0812950078398"><ele>2800.0</ele><time>2020-05-16T20:02:41Z</time></trkpt><trkpt lat="44.214318031445146" lon="-115.08127698674798"><ele>2801.0</ele><time>2020-05-16T20:02:46Z</time></trkpt><trkpt lat="44.214297998696566" lon="-115.08132501505315"><ele>2802.0</ele><time>2020-05-16T20:02:51Z</time></trkpt><trkpt lat="44.214252987876534" lon="-115.08122401311994"><ele>2802.0</ele><time>2020-05-16T20:03:02Z</time></trkpt><trkpt lat="44.214254999533296" lon="-115.08131696842611"><ele>2805.0</ele><time>2020-05-16T20:03:12Z</time></trkpt><trkpt lat="44.21424703672528" lon="-115.0813499931246"><ele>2804.0</ele><time>2020-05-16T20:03:14Z</time></trkpt><trkpt lat="44.214234966784716" lon="-115.08129400201142"><ele>2804.0</ele><time>2020-05-16T20:03:19Z</time></trkpt><trkpt lat="44.21424896456301" lon="-115.08121596649289"><ele>2802.0</ele><time>2020-05-16T20:03:26Z</time></trkpt><trkpt lat="44.21423697844148" lon="-115.08108504116535"><ele>2807.0</ele><time>2020-05-16T20:03:38Z</time></trkpt><trkpt lat="44.214251982048154" lon="-115.08098596706986"><ele>2805.0</ele><time>2020-05-16T20:03:42Z</time></trkpt><trkpt lat="44.21426204033196" lon="-115.08109400980175"><ele>2807.5</ele><time>2020-05-16T20:03:47Z</time></trkpt><trkpt lat="44.21424896456301" lon="-115.08116399869323"><ele>2806.0</ele><time>2020-05-16T20:03:49Z</time></trkpt><trkpt lat="44.214256005361676" lon="-115.08126600645483"><ele>2807.0</ele><time>2020-05-16T20:03:56Z</time></trkpt><trkpt lat="44.214277965947986" lon="-115.08124697953463"><ele>2808.0</ele><time>2020-05-16T20:04:02Z</time></trkpt><trkpt lat="44.214295987039804" lon="-115.08127296343446"><ele>2809.7</ele><time>2020-05-16T20:04:06Z</time></trkpt><trkpt lat="44.214358013123274" lon="-115.0812950078398"><ele>2810.0</ele><time>2020-05-16T20:04:08Z</time></trkpt><trkpt lat="44.21438902616501" lon="-115.08129199035466"><ele>2808.0</ele><time>2020-05-16T20:04:10Z</time></trkpt><trkpt lat="44.21439497731626" lon="-115.08124304004014"><ele>2810.0</ele><time>2020-05-16T20:04:12Z</time></trkpt><trkpt lat="44.21435700729489" lon="-115.08121797814965"><ele>2810.0</ele><time>2020-05-16T20:04:14Z</time></trkpt><trkpt lat="44.21432297676802" lon="-115.08122703060508"><ele>2811.0</ele><time>2020-05-16T20:04:17Z</time></trkpt><trkpt lat="44.214401012286544" lon="-115.08126500062644"><ele>2808.0</ele><time>2020-05-16T20:04:23Z</time></trkpt><trkpt lat="44.21432498842478" lon="-115.08123599924147"><ele>2812.4</ele><time>2020-05-16T20:04:28Z</time></trkpt><trkpt lat="44.21423899009824" lon="-115.08123398758471"><ele>2812.0</ele><time>2020-05-16T20:04:30Z</time></trkpt><trkpt lat="44.214124996215105" lon="-115.08129098452628"><ele>2810.0</ele><time>2020-05-16T20:04:38Z</time></trkpt><trkpt lat="44.21426899731159" lon="-115.08138796314597"><ele>2810.0</ele><time>2020-05-16T20:04:51Z</time></trkpt><trkpt lat="44.2142270039767" lon="-115.08137396536767"><ele>2812.7</ele><time>2020-05-16T20:04:56Z</time></trkpt><trkpt lat="44.21415098011494" lon="-115.08129400201142"><ele>2810.0</ele><time>2020-05-16T20:05:03Z</time></trkpt><trkpt lat="44.21417302452028" lon="-115.08125997148454"><ele>2808.0</ele><time>2020-05-16T20:05:09Z</time></trkpt><trkpt lat="44.21418400481343" lon="-115.08121797814965"><ele>2814.0</ele><time>2020-05-16T20:05:15Z</time></trkpt><trkpt lat="44.214241001755" lon="-115.08112804032862"><ele>2814.0</ele><time>2020-05-16T20:05:26Z</time></trkpt><trkpt lat="44.21431099064648" lon="-115.08108504116535"><ele>2814.0</ele><time>2020-05-16T20:05:33Z</time></trkpt><trkpt lat="44.214317025616765" lon="-115.08105201646686"><ele>2814.0</ele><time>2020-05-16T20:05:38Z</time></trkpt><trkpt lat="44.21435700729489" lon="-115.08104396983981"><ele>2815.0</ele><time>2020-05-16T20:05:42Z</time></trkpt><trkpt lat="44.214360024780035" lon="-115.08107598870993"><ele>2814.0</ele><time>2020-05-16T20:05:44Z</time></trkpt><trkpt lat="44.21426103450358" lon="-115.08111303672194"><ele>2814.0</ele><time>2020-05-16T20:06:01Z</time></trkpt><trkpt lat="44.214232033118606" lon="-115.08115503005683"><ele>2814.0</ele><time>2020-05-16T20:06:03Z</time></trkpt><trkpt lat="44.21421803534031" lon="-115.0811980292201"><ele>2814.0</ele><time>2020-05-16T20:06:05Z</time></trkpt><trkpt lat="44.21421803534031" lon="-115.08123700506985"><ele>2805.0</ele><time>2020-05-16T20:06:14Z</time></trkpt><trkpt lat="44.2143290117383" lon="-115.08116500452161"><ele>2814.0</ele><time>2020-05-16T20:06:36Z</time></trkpt><trkpt lat="44.214315013960004" lon="-115.08110700175166"><ele>2812.0</ele><time>2020-05-16T20:06:49Z</time></trkpt><trkpt lat="44.21434401534498" lon="-115.08106601424515"><ele>2814.0</ele><time>2020-05-16T20:06:55Z</time></trkpt><trkpt lat="44.21429296955466" lon="-115.08101396262646"><ele>2814.0</ele><time>2020-05-16T20:07:02Z</time></trkpt><trkpt lat="44.21434502117336" lon="-115.08102796040475"><ele>2814.0</ele><time>2020-05-16T20:07:08Z</time></trkpt><trkpt lat="44.21432498842478" lon="-115.0810909923166"><ele>2814.0</ele><time>2020-05-16T20:07:22Z</time></trkpt><trkpt lat="44.214278971776366" lon="-115.081099960953"><ele>2814.0</ele><time>2020-05-16T20:07:26Z</time></trkpt><trkpt lat="44.21426396816969" lon="-115.08112703450024"><ele>2813.0</ele><time>2020-05-16T20:07:31Z</time></trkpt><trkpt lat="44.214296992868185" lon="-115.08115301840007"><ele>2814.0</ele><time>2020-05-16T20:07:38Z</time></trkpt><trkpt lat="44.2143480386585" lon="-115.08111496455967"><ele>2810.0</ele><time>2020-05-16T20:07:44Z</time></trkpt><trkpt lat="44.21429397538304" lon="-115.08114899508655"><ele>2812.0</ele><time>2020-05-16T20:07:53Z</time></trkpt><trkpt lat="44.214299004524946" lon="-115.0811139587313"><ele>2809.0</ele><time>2020-05-16T20:08:06Z</time></trkpt><trkpt lat="44.21434602700174" lon="-115.08111798204482"><ele>2813.0</ele><time>2020-05-16T20:08:15Z</time></trkpt><trkpt lat="44.21430202201009" lon="-115.08115100674331"><ele>2816.0</ele><time>2020-05-16T20:08:26Z</time></trkpt><trkpt lat="44.21428802423179" lon="-115.08119702339172"><ele>2814.0</ele><time>2020-05-16T20:08:32Z</time></trkpt><trkpt lat="44.214232033118606" lon="-115.08118503727019"><ele>2815.0</ele><time>2020-05-16T20:08:41Z</time></trkpt><trkpt lat="44.21420596539974" lon="-115.08115896955132"><ele>2816.0</ele><time>2020-05-16T20:08:45Z</time></trkpt><trkpt lat="44.21420202590525" lon="-115.08109803311527"><ele>2816.0</ele><time>2020-05-16T20:08:55Z</time></trkpt><trkpt lat="44.21419900842011" lon="-115.08114396594465"><ele>2819.0</ele><time>2020-05-16T20:09:02Z</time></trkpt><trkpt lat="44.21416196040809" lon="-115.08115301840007"><ele>2820.0</ele><time>2020-05-16T20:09:05Z</time></trkpt><trkpt lat="44.214167995378375" lon="-115.0812069978565"><ele>2820.0</ele><time>2020-05-16T20:09:46Z</time></trkpt><trkpt lat="44.214124996215105" lon="-115.08128302171826"><ele>2828.0</ele><time>2020-05-16T20:10:59Z</time></trkpt><trkpt lat="44.21409297734499" lon="-115.08129299618304"><ele>2829.0</ele><time>2020-05-16T20:11:01Z</time></trkpt><trkpt lat="44.21405299566686" lon="-115.08125997148454"><ele>2828.0</ele><time>2020-05-16T20:11:08Z</time></trkpt><trkpt lat="44.21408501453698" lon="-115.08127296343446"><ele>2826.0</ele><time>2020-05-16T20:11:21Z</time></trkpt><trkpt lat="44.21406900510192" lon="-115.08130297064781"><ele>2832.0</ele><time>2020-05-16T20:11:33Z</time></trkpt><trkpt lat="44.21407797373831" lon="-115.08128696121275"><ele>2830.0</ele><time>2020-05-16T20:11:41Z</time></trkpt><trkpt lat="44.214060036465526" lon="-115.08123700506985"><ele>2827.0</ele><time>2020-05-16T20:11:52Z</time></trkpt><trkpt lat="44.21403002925217" lon="-115.08125502616167"><ele>2832.0</ele><time>2020-05-16T20:11:59Z</time></trkpt><trkpt lat="44.214017037302256" lon="-115.08129098452628"><ele>2834.0</ele><time>2020-05-16T20:12:02Z</time></trkpt><trkpt lat="44.21398996375501" lon="-115.08131302893162"><ele>2832.0</ele><time>2020-05-16T20:12:07Z</time></trkpt><trkpt lat="44.214056013152" lon="-115.0812810100615"><ele>2836.0</ele><time>2020-05-16T20:12:21Z</time></trkpt><trkpt lat="44.214106975123286" lon="-115.08120096288621"><ele>2830.0</ele><time>2020-05-16T20:12:53Z</time></trkpt><trkpt lat="44.214148968458176" lon="-115.08117497898638"><ele>2835.0</ele><time>2020-05-16T20:13:02Z</time></trkpt><trkpt lat="44.21408702619374" lon="-115.0811980292201"><ele>2835.0</ele><time>2020-05-16T20:13:17Z</time></trkpt><trkpt lat="44.21404201537371" lon="-115.08125200867653"><ele>2838.0</ele><time>2020-05-16T20:13:35Z</time></trkpt><trkpt lat="44.21400303952396" lon="-115.08123298175633"><ele>2835.0</ele><time>2020-05-16T20:13:43Z</time></trkpt><trkpt lat="44.21398904174566" lon="-115.08126298896968"><ele>2841.0</ele><time>2020-05-16T20:13:59Z</time></trkpt><trkpt lat="44.21383297070861" lon="-115.08136298507452"><ele>2845.0</ele><time>2020-05-16T20:14:46Z</time></trkpt><trkpt lat="44.213865995407104" lon="-115.08131797425449"><ele>2848.2</ele><time>2020-05-16T20:15:02Z</time></trkpt><trkpt lat="44.21391603536904" lon="-115.08130598813295"><ele>2849.0</ele><time>2020-05-16T20:15:18Z</time></trkpt><trkpt lat="44.21400999650359" lon="-115.08131504058838"><ele>2848.0</ele><time>2020-05-16T20:15:25Z</time></trkpt><trkpt lat="44.21388301067054" lon="-115.08131403476"><ele>2852.0</ele><time>2020-05-16T20:15:41Z</time></trkpt><trkpt lat="44.21377697959542" lon="-115.0812860392034"><ele>2852.0</ele><time>2020-05-16T20:16:28Z</time></trkpt><trkpt lat="44.213824002072215" lon="-115.08131001144648"><ele>2856.0</ele><time>2020-05-16T20:16:34Z</time></trkpt><trkpt lat="44.21384998597205" lon="-115.08124597370625"><ele>2856.0</ele><time>2020-05-16T20:16:42Z</time></trkpt><trkpt lat="44.21386398375034" lon="-115.08128201588988"><ele>2852.0</ele><time>2020-05-16T20:16:57Z</time></trkpt><trkpt lat="44.213826013728976" lon="-115.08127296343446"><ele>2856.0</ele><time>2020-05-16T20:17:14Z</time></trkpt><trkpt lat="44.21383598819375" lon="-115.08130196481943"><ele>2856.0</ele><time>2020-05-16T20:17:27Z</time></trkpt><trkpt lat="44.21381302177906" lon="-115.08134001865983"><ele>2856.0</ele><time>2020-05-16T20:17:41Z</time></trkpt><trkpt lat="44.213779997080564" lon="-115.08133700117469"><ele>2848.0</ele><time>2020-05-16T20:17:52Z</time></trkpt><trkpt lat="44.2137779854238" lon="-115.08139802142978"><ele>2862.0</ele><time>2020-05-16T20:18:11Z</time></trkpt><trkpt lat="44.2137779854238" lon="-115.08132501505315"><ele>2860.0</ele><time>2020-05-16T20:18:30Z</time></trkpt><trkpt lat="44.21375099569559" lon="-115.08137103170156"><ele>2862.0</ele><time>2020-05-16T20:19:02Z</time></trkpt><trkpt lat="44.21374303288758" lon="-115.0814110133797"><ele>2865.0</ele><time>2020-05-16T20:19:21Z</time></trkpt><trkpt lat="44.2136899754405" lon="-115.08138896897435"><ele>2868.0</ele><time>2020-05-16T20:19:50Z</time></trkpt><trkpt lat="44.213736997917295" lon="-115.08150002919137"><ele>2870.0</ele><time>2020-05-16T20:20:04Z</time></trkpt><trkpt lat="44.213716965168715" lon="-115.08142400532961"><ele>2871.0</ele><time>2020-05-16T20:20:41Z</time></trkpt><trkpt lat="44.21374797821045" lon="-115.08138603530824"><ele>2870.0</ele><time>2020-05-16T20:20:50Z</time></trkpt><trkpt lat="44.21373297460377" lon="-115.08135099895298"><ele>2872.0</ele><time>2020-05-16T20:20:55Z</time></trkpt><trkpt lat="44.21370296739042" lon="-115.08136499673128"><ele>2865.0</ele><time>2020-05-16T20:21:05Z</time></trkpt><trkpt lat="44.21366700902581" lon="-115.08132501505315"><ele>2868.0</ele><time>2020-05-16T20:21:38Z</time></trkpt><trkpt lat="44.21365502290428" lon="-115.0814469717443"><ele>2876.0</ele><time>2020-05-16T20:22:36Z</time></trkpt><trkpt lat="44.213588973507285" lon="-115.08141201920807"><ele>2880.0</ele><time>2020-05-16T20:23:35Z</time></trkpt><trkpt lat="44.21360498294234" lon="-115.08145401254296"><ele>2884.0</ele><time>2020-05-16T20:23:42Z</time></trkpt><trkpt lat="44.21365502290428" lon="-115.08147396147251"><ele>2883.0</ele><time>2020-05-16T20:24:01Z</time></trkpt><trkpt lat="44.213565001264215" lon="-115.08140497840941"><ele>2883.0</ele><time>2020-05-16T20:24:29Z</time></trkpt><trkpt lat="44.213588973507285" lon="-115.081432973966"><ele>2884.0</ele><time>2020-05-16T20:24:48Z</time></trkpt><trkpt lat="44.21353499405086" lon="-115.08145501837134"><ele>2885.0</ele><time>2020-05-16T20:25:00Z</time></trkpt><trkpt lat="44.21353599987924" lon="-115.081573035568"><ele>2888.0</ele><time>2020-05-16T20:25:09Z</time></trkpt><trkpt lat="44.21357396990061" lon="-115.08159399032593"><ele>2888.0</ele><time>2020-05-16T20:25:14Z</time></trkpt><trkpt lat="44.21359299682081" lon="-115.08153699338436"><ele>2889.0</ele><time>2020-05-16T20:25:22Z</time></trkpt><trkpt lat="44.21358201652765" lon="-115.08156901225448"><ele>2889.0</ele><time>2020-05-16T20:25:30Z</time></trkpt><trkpt lat="44.21359299682081" lon="-115.08154403418303"><ele>2890.0</ele><time>2020-05-16T20:25:41Z</time></trkpt><trkpt lat="44.21357899904251" lon="-115.08151100948453"><ele>2892.0</ele><time>2020-05-16T20:25:48Z</time></trkpt><trkpt lat="44.21353499405086" lon="-115.08147396147251"><ele>2892.0</ele><time>2020-05-16T20:25:58Z</time></trkpt><trkpt lat="44.21350699849427" lon="-115.08149399422109"><ele>2893.0</ele><time>2020-05-16T20:26:05Z</time></trkpt><trkpt lat="44.213456036522985" lon="-115.08150396868587"><ele>2890.0</ele><time>2020-05-16T20:26:15Z</time></trkpt><trkpt lat="44.213522002100945" lon="-115.08149701170623"><ele>2893.0</ele><time>2020-05-16T20:26:32Z</time></trkpt><trkpt lat="44.21358302235603" lon="-115.08150396868587"><ele>2895.7</ele><time>2020-05-16T20:26:36Z</time></trkpt><trkpt lat="44.21353901736438" lon="-115.08151796646416"><ele>2892.0</ele><time>2020-05-16T20:26:45Z</time></trkpt><trkpt lat="44.21348797157407" lon="-115.08151000365615"><ele>2896.0</ele><time>2020-05-16T20:26:55Z</time></trkpt><trkpt lat="44.21352602541447" lon="-115.08151503279805"><ele>2892.0</ele><time>2020-05-16T20:27:10Z</time></trkpt><trkpt lat="44.213463999331" lon="-115.08148997090757"><ele>2899.0</ele><time>2020-05-16T20:27:21Z</time></trkpt><trkpt lat="44.21351303346455" lon="-115.08154101669788"><ele>2893.0</ele><time>2020-05-16T20:27:33Z</time></trkpt><trkpt lat="44.21348696574569" lon="-115.08157102391124"><ele>2900.0</ele><time>2020-05-16T20:27:51Z</time></trkpt><trkpt lat="44.21349300071597" lon="-115.08160497061908"><ele>2902.0</ele><time>2020-05-16T20:28:11Z</time></trkpt><trkpt lat="44.213459976017475" lon="-115.08155501447618"><ele>2900.0</ele><time>2020-05-16T20:28:26Z</time></trkpt><trkpt lat="44.21347003430128" lon="-115.08151696063578"><ele>2905.0</ele><time>2020-05-16T20:30:52Z</time></trkpt><trkpt lat="44.21344597823918" lon="-115.08156498894095"><ele>2907.0</ele><time>2020-05-16T20:31:17Z</time></trkpt><trkpt lat="44.21335796825588" lon="-115.08156901225448"><ele>2903.0</ele><time>2020-05-16T20:32:08Z</time></trkpt><trkpt lat="44.213396022096276" lon="-115.08160698227584"><ele>2912.0</ele><time>2020-05-16T20:32:22Z</time></trkpt><trkpt lat="44.2133569624275" lon="-115.08162600919604"><ele>2912.0</ele><time>2020-05-16T20:32:28Z</time></trkpt><trkpt lat="44.213309017941356" lon="-115.08178501389921"><ele>2912.0</ele><time>2020-05-16T20:32:37Z</time></trkpt><trkpt lat="44.213330978527665" lon="-115.08174997754395"><ele>2910.0</ele><time>2020-05-16T20:32:43Z</time></trkpt><trkpt lat="44.21331999823451" lon="-115.08165702223778"><ele>2911.0</ele><time>2020-05-16T20:33:00Z</time></trkpt><trkpt lat="44.21338898129761" lon="-115.08165903389454"><ele>2914.0</ele><time>2020-05-16T20:33:11Z</time></trkpt><trkpt lat="44.21347104012966" lon="-115.08164403028786"><ele>2915.0</ele><time>2020-05-16T20:33:20Z</time></trkpt><trkpt lat="44.213413037359715" lon="-115.08166397921741"><ele>2914.0</ele><time>2020-05-16T20:33:30Z</time></trkpt><trkpt lat="44.21336400322616" lon="-115.08165501058102"><ele>2907.0</ele><time>2020-05-16T20:33:45Z</time></trkpt><trkpt lat="44.2133670207113" lon="-115.0816970039159"><ele>2916.0</ele><time>2020-05-16T20:33:55Z</time></trkpt><trkpt lat="44.2133569624275" lon="-115.08173396810889"><ele>2916.0</ele><time>2020-05-16T20:33:58Z</time></trkpt><trkpt lat="44.21334103681147" lon="-115.08169398643076"><ele>2916.0</ele><time>2020-05-16T20:34:01Z</time></trkpt><trkpt lat="44.213352017104626" lon="-115.08173597976565"><ele>2916.9</ele><time>2020-05-16T20:34:06Z</time></trkpt><trkpt lat="44.21340800821781" lon="-115.08166003972292"><ele>2916.0</ele><time>2020-05-16T20:34:19Z</time></trkpt><trkpt lat="44.21335796825588" lon="-115.08163103833795"><ele>2916.0</ele><time>2020-05-16T20:34:30Z</time></trkpt><trkpt lat="44.21338403597474" lon="-115.08165501058102"><ele>2915.0</ele><time>2020-05-16T20:34:47Z</time></trkpt><trkpt lat="44.213329972699285" lon="-115.0816509872675"><ele>2918.0</ele><time>2020-05-16T20:35:07Z</time></trkpt><trkpt lat="44.213279010728" lon="-115.08170102722943"><ele>2919.0</ele><time>2020-05-16T20:35:14Z</time></trkpt><trkpt lat="44.21326803043485" lon="-115.08166699670255"><ele>2922.0</ele><time>2020-05-16T20:35:18Z</time></trkpt><trkpt lat="44.213266018778086" lon="-115.08159700781107"><ele>2920.0</ele><time>2020-05-16T20:35:24Z</time></trkpt><trkpt lat="44.21329703181982" lon="-115.08159499615431"><ele>2922.8</ele><time>2020-05-16T20:35:41Z</time></trkpt><trkpt lat="44.21328202821314" lon="-115.0816039647907"><ele>2917.0</ele><time>2020-05-16T20:35:49Z</time></trkpt><trkpt lat="44.213287979364395" lon="-115.0817300286144"><ele>2924.0</ele><time>2020-05-16T20:36:14Z</time></trkpt><trkpt lat="44.21327297575772" lon="-115.08176900446415"><ele>2915.0</ele><time>2020-05-16T20:36:21Z</time></trkpt><trkpt lat="44.21327196992934" lon="-115.08165903389454"><ele>2924.0</ele><time>2020-05-16T20:36:43Z</time></trkpt><trkpt lat="44.213224025443196" lon="-115.08158803917468"><ele>2928.0</ele><time>2020-05-16T20:37:21Z</time></trkpt><trkpt lat="44.21323299407959" lon="-115.08162600919604"><ele>2929.1</ele><time>2020-05-16T20:37:39Z</time></trkpt><trkpt lat="44.21322796493769" lon="-115.08159600198269"><ele>2925.0</ele><time>2020-05-16T20:37:49Z</time></trkpt><trkpt lat="44.21327699907124" lon="-115.08161502890289"><ele>2930.0</ele><time>2020-05-16T20:37:58Z</time></trkpt><trkpt lat="44.213308012112975" lon="-115.08164796978235"><ele>2926.0</ele><time>2020-05-16T20:38:05Z</time></trkpt><trkpt lat="44.21327800489962" lon="-115.0816509872675"><ele>2930.0</ele><time>2020-05-16T20:38:11Z</time></trkpt><trkpt lat="44.21325302682817" lon="-115.08167403750122"><ele>2928.0</ele><time>2020-05-16T20:38:22Z</time></trkpt><trkpt lat="44.213285967707634" lon="-115.0816970039159"><ele>2926.0</ele><time>2020-05-16T20:38:34Z</time></trkpt><trkpt lat="44.21327196992934" lon="-115.08166800253093"><ele>2929.0</ele><time>2020-05-16T20:39:00Z</time></trkpt><trkpt lat="44.21315202489495" lon="-115.08162399753928"><ele>2934.0</ele><time>2020-05-16T20:39:17Z</time></trkpt><trkpt lat="44.213137021288276" lon="-115.0815870333463"><ele>2930.0</ele><time>2020-05-16T20:39:23Z</time></trkpt><trkpt lat="44.213220002129674" lon="-115.08159600198269"><ele>2931.0</ele><time>2020-05-16T20:39:48Z</time></trkpt><trkpt lat="44.213177002966404" lon="-115.08168501779437"><ele>2934.0</ele><time>2020-05-16T20:40:45Z</time></trkpt><trkpt lat="44.213136015459895" lon="-115.08169499225914"><ele>2935.0</ele><time>2020-05-16T20:40:59Z</time></trkpt><trkpt lat="44.21314397826791" lon="-115.08167102001607"><ele>2935.0</ele><time>2020-05-16T20:41:05Z</time></trkpt><trkpt lat="44.213222013786435" lon="-115.08172600530088"><ele>2937.0</ele><time>2020-05-16T20:41:19Z</time></trkpt><trkpt lat="44.213138027116656" lon="-115.08173799142241"><ele>2937.0</ele><time>2020-05-16T20:41:30Z</time></trkpt><trkpt lat="44.213200975209475" lon="-115.0817440263927"><ele>2938.0</ele><time>2020-05-16T20:41:35Z</time></trkpt><trkpt lat="44.21322503127158" lon="-115.08171896450222"><ele>2937.0</ele><time>2020-05-16T20:41:38Z</time></trkpt><trkpt lat="44.21317096799612" lon="-115.081691974774"><ele>2939.0</ele><time>2020-05-16T20:42:10Z</time></trkpt><trkpt lat="44.213137021288276" lon="-115.0816970039159"><ele>2942.0</ele><time>2020-05-16T20:43:04Z</time></trkpt><trkpt lat="44.213113971054554" lon="-115.0817249994725"><ele>2945.0</ele><time>2020-05-16T20:43:15Z</time></trkpt><trkpt lat="44.21316300518811" lon="-115.08176104165614"><ele>2945.0</ele><time>2020-05-16T20:43:31Z</time></trkpt><trkpt lat="44.21317499130964" lon="-115.08178903721273"><ele>2925.0</ele><time>2020-05-16T20:43:46Z</time></trkpt><trkpt lat="44.21312302350998" lon="-115.08172600530088"><ele>2948.0</ele><time>2020-05-16T20:44:09Z</time></trkpt><trkpt lat="44.21311195939779" lon="-115.08169096894562"><ele>2940.0</ele><time>2020-05-16T20:44:17Z</time></trkpt><trkpt lat="44.21307901851833" lon="-115.08170496672392"><ele>2949.0</ele><time>2020-05-16T20:44:26Z</time></trkpt><trkpt lat="44.213054962456226" lon="-115.08168401196599"><ele>2940.0</ele><time>2020-05-16T20:44:34Z</time></trkpt><trkpt lat="44.21309703961015" lon="-115.08172399364412"><ele>2950.0</ele><time>2020-05-16T20:44:52Z</time></trkpt><trkpt lat="44.213092010468245" lon="-115.08168099448085"><ele>2950.0</ele><time>2020-05-16T20:45:08Z</time></trkpt><trkpt lat="44.21308999881148" lon="-115.08174503222108"><ele>2949.0</ele><time>2020-05-16T20:45:49Z</time></trkpt><trkpt lat="44.21304599381983" lon="-115.08177696727216"><ele>2956.0</ele><time>2020-05-16T20:46:22Z</time></trkpt><trkpt lat="44.21309603378177" lon="-115.08183295838535"><ele>2959.0</ele><time>2020-05-16T20:46:31Z</time></trkpt><trkpt lat="44.21312696300447" lon="-115.08181502111256"><ele>2951.0</ele><time>2020-05-16T20:46:46Z</time></trkpt><trkpt lat="44.21315101906657" lon="-115.08175701834261"><ele>2960.0</ele><time>2020-05-16T20:48:21Z</time></trkpt><trkpt lat="44.21310500241816" lon="-115.0817440263927"><ele>2960.0</ele><time>2020-05-16T20:49:01Z</time></trkpt><trkpt lat="44.21310902573168" lon="-115.08180999197066"><ele>2957.0</ele><time>2020-05-16T20:49:57Z</time></trkpt><trkpt lat="44.213091004639864" lon="-115.08180999197066"><ele>2960.0</ele><time>2020-05-16T20:52:46Z</time></trkpt><trkpt lat="44.213070971891284" lon="-115.08169499225914"><ele>2961.0</ele><time>2020-05-16T20:55:41Z</time></trkpt><trkpt lat="44.2131080199033" lon="-115.08174897171557"><ele>2959.0</ele><time>2020-05-16T20:58:49Z</time></trkpt><trkpt lat="44.21315202489495" lon="-115.08178903721273"><ele>2947.0</ele><time>2020-05-16T21:00:36Z</time></trkpt><trkpt lat="44.213054962456226" lon="-115.08167202584445"><ele>2958.0</ele><time>2020-05-16T21:02:00Z</time></trkpt><trkpt lat="44.213027972728014" lon="-115.08166196756065"><ele>2958.0</ele><time>2020-05-16T21:02:22Z</time></trkpt><trkpt lat="44.21305898576975" lon="-115.0816779769957"><ele>2957.0</ele><time>2020-05-16T21:02:43Z</time></trkpt><trkpt lat="44.21305797994137" lon="-115.08173698559403"><ele>2956.0</ele><time>2020-05-16T21:04:53Z</time></trkpt><trkpt lat="44.2131029907614" lon="-115.0817249994725"><ele>2948.0</ele><time>2020-05-16T21:05:47Z</time></trkpt><trkpt lat="44.213159987702966" lon="-115.08172701112926"><ele>2954.0</ele><time>2020-05-16T21:06:29Z</time></trkpt><trkpt lat="44.2131029907614" lon="-115.08175198920071"><ele>2954.6</ele><time>2020-05-16T21:06:37Z</time></trkpt><trkpt lat="44.21312101185322" lon="-115.081691974774"><ele>2947.0</ele><time>2020-05-16T21:06:45Z</time></trkpt><trkpt lat="44.213242968544364" lon="-115.0816229917109"><ele>2947.0</ele><time>2020-05-16T21:07:31Z</time></trkpt><trkpt lat="44.213181026279926" lon="-115.08164403028786"><ele>2942.0</ele><time>2020-05-16T21:07:49Z</time></trkpt><trkpt lat="44.21324799768627" lon="-115.08159399032593"><ele>2943.2</ele><time>2020-05-16T21:08:11Z</time></trkpt><trkpt lat="44.21327196992934" lon="-115.08160103112459"><ele>2940.0</ele><time>2020-05-16T21:08:15Z</time></trkpt><trkpt lat="44.21329401433468" lon="-115.08157596923411"><ele>2925.0</ele><time>2020-05-16T21:08:36Z</time></trkpt><trkpt lat="44.21334497630596" lon="-115.08156498894095"><ele>2927.0</ele><time>2020-05-16T21:08:53Z</time></trkpt><trkpt lat="44.21335503458977" lon="-115.08163103833795"><ele>2923.0</ele><time>2020-05-16T21:08:59Z</time></trkpt><trkpt lat="44.213373977690935" lon="-115.08165802806616"><ele>2926.0</ele><time>2020-05-16T21:09:01Z</time></trkpt><trkpt lat="44.213437009602785" lon="-115.08159298449755"><ele>2924.0</ele><time>2020-05-16T21:09:08Z</time></trkpt><trkpt lat="44.21344203874469" lon="-115.08155501447618"><ele>2916.0</ele><time>2020-05-16T21:09:19Z</time></trkpt><trkpt lat="44.21342502348125" lon="-115.08160203695297"><ele>2917.0</ele><time>2020-05-16T21:09:33Z</time></trkpt><trkpt lat="44.213477997109294" lon="-115.08151503279805"><ele>2907.0</ele><time>2020-05-16T21:09:43Z</time></trkpt><trkpt lat="44.2135710362345" lon="-115.08143498562276"><ele>2902.0</ele><time>2020-05-16T21:09:51Z</time></trkpt><trkpt lat="44.21361403539777" lon="-115.08142501115799"><ele>2898.0</ele><time>2020-05-16T21:09:59Z</time></trkpt><trkpt lat="44.213654017075896" lon="-115.08146801032126"><ele>2896.0</ele><time>2020-05-16T21:10:02Z</time></trkpt><trkpt lat="44.213695004582405" lon="-115.08147396147251"><ele>2893.0</ele><time>2020-05-16T21:10:05Z</time></trkpt><trkpt lat="44.213717970997095" lon="-115.08144202642143"><ele>2892.0</ele><time>2020-05-16T21:10:08Z</time></trkpt><trkpt lat="44.213696010410786" lon="-115.0813830178231"><ele>2884.0</ele><time>2020-05-16T21:10:26Z</time></trkpt><trkpt lat="44.21365602873266" lon="-115.08142400532961"><ele>2892.0</ele><time>2020-05-16T21:10:41Z</time></trkpt><trkpt lat="44.21365703456104" lon="-115.08146298117936"><ele>2888.8</ele><time>2020-05-16T21:10:49Z</time></trkpt><trkpt lat="44.213759964331985" lon="-115.08141000755131"><ele>2883.0</ele><time>2020-05-16T21:10:56Z</time></trkpt><trkpt lat="44.21378502622247" lon="-115.08137203752995"><ele>2878.0</ele><time>2020-05-16T21:10:58Z</time></trkpt><trkpt lat="44.21385996043682" lon="-115.08131898008287"><ele>2873.7</ele><time>2020-05-16T21:11:03Z</time></trkpt><trkpt lat="44.21394000761211" lon="-115.08129400201142"><ele>2867.6</ele><time>2020-05-16T21:11:05Z</time></trkpt><trkpt lat="44.21398401260376" lon="-115.0813000369817"><ele>2861.0</ele><time>2020-05-16T21:11:07Z</time></trkpt><trkpt lat="44.214015025645494" lon="-115.0812670122832"><ele>2859.0</ele><time>2020-05-16T21:11:09Z</time></trkpt><trkpt lat="44.21406699344516" lon="-115.08111102506518"><ele>2856.1</ele><time>2020-05-16T21:11:12Z</time></trkpt><trkpt lat="44.21407403424382" lon="-115.08093601092696"><ele>2856.3</ele><time>2020-05-16T21:11:15Z</time></trkpt><trkpt lat="44.214062970131636" lon="-115.08085504174232"><ele>2855.0</ele><time>2020-05-16T21:11:17Z</time></trkpt><trkpt lat="44.21417503617704" lon="-115.08105302229524"><ele>2846.9</ele><time>2020-05-16T21:11:25Z</time></trkpt><trkpt lat="44.214340997859836" lon="-115.0811380147934"><ele>2831.0</ele><time>2020-05-16T21:11:31Z</time></trkpt><trkpt lat="44.21443797647953" lon="-115.08113399147987"><ele>2827.7</ele><time>2020-05-16T21:11:34Z</time></trkpt><trkpt lat="44.21456303447485" lon="-115.08114798925817"><ele>2822.9</ele><time>2020-05-16T21:11:36Z</time></trkpt><trkpt lat="44.21480099670589" lon="-115.08114798925817"><ele>2810.8</ele><time>2020-05-16T21:11:40Z</time></trkpt><trkpt lat="44.21487903222442" lon="-115.08115402422845"><ele>2807.4</ele><time>2020-05-16T21:11:41Z</time></trkpt><trkpt lat="44.214938040822744" lon="-115.08117799647152"><ele>2806.4</ele><time>2020-05-16T21:11:42Z</time></trkpt><trkpt lat="44.21497098170221" lon="-115.08123901672661"><ele>2804.8</ele><time>2020-05-16T21:11:43Z</time></trkpt><trkpt lat="44.21465003862977" lon="-115.08138997480273"><ele>2805.2</ele><time>2020-05-16T21:11:44Z</time></trkpt><trkpt lat="44.214599998667836" lon="-115.08134697563946"><ele>2800.0</ele><time>2020-05-16T21:11:49Z</time></trkpt><trkpt lat="44.214638974517584" lon="-115.08133197203279"><ele>2799.0</ele><time>2020-05-16T21:11:55Z</time></trkpt><trkpt lat="44.21466403640807" lon="-115.0812860392034"><ele>2797.0</ele><time>2020-05-16T21:11:57Z</time></trkpt><trkpt lat="44.2146900203079" lon="-115.0812619831413"><ele>2794.9</ele><time>2020-05-16T21:11:58Z</time></trkpt><trkpt lat="44.21477501280606" lon="-115.08130498230457"><ele>2787.0</ele><time>2020-05-16T21:12:00Z</time></trkpt><trkpt lat="44.21480099670589" lon="-115.08124597370625"><ele>2784.3</ele><time>2020-05-16T21:12:02Z</time></trkpt><trkpt lat="44.21486997976899" lon="-115.08128503337502"><ele>2781.8</ele><time>2020-05-16T21:12:03Z</time></trkpt><trkpt lat="44.21493896283209" lon="-115.08142601698637"><ele>2775.9</ele><time>2020-05-16T21:12:06Z</time></trkpt><trkpt lat="44.214966958388686" lon="-115.0814570300281"><ele>2775.0</ele><time>2020-05-16T21:12:07Z</time></trkpt><trkpt lat="44.215027978643775" lon="-115.08149298839271"><ele>2772.1</ele><time>2020-05-16T21:12:08Z</time></trkpt><trkpt lat="44.2150679603219" lon="-115.08149600587785"><ele>2769.9</ele><time>2020-05-16T21:12:09Z</time></trkpt><trkpt lat="44.21510199084878" lon="-115.08145904168487"><ele>2767.1</ele><time>2020-05-16T21:12:10Z</time></trkpt><trkpt lat="44.21514096669853" lon="-115.08138997480273"><ele>2762.7</ele><time>2020-05-16T21:12:11Z</time></trkpt><trkpt lat="44.21516301110387" lon="-115.08122703060508"><ele>2759.7</ele><time>2020-05-16T21:12:13Z</time></trkpt><trkpt lat="44.21519301831722" lon="-115.08114899508655"><ele>2757.2</ele><time>2020-05-16T21:12:14Z</time></trkpt><trkpt lat="44.21525001525879" lon="-115.08108101785183"><ele>2756.2</ele><time>2020-05-16T21:12:15Z</time></trkpt><trkpt lat="44.215284967795014" lon="-115.0810220092535"><ele>2751.8</ele><time>2020-05-16T21:12:16Z</time></trkpt><trkpt lat="44.21534397639334" lon="-115.08111999370158"><ele>2747.5</ele><time>2020-05-16T21:12:17Z</time></trkpt><trkpt lat="44.21542402356863" lon="-115.08118403144181"><ele>2740.0</ele><time>2020-05-16T21:12:19Z</time></trkpt><trkpt lat="44.21540097333491" lon="-115.08107397705317"><ele>2736.0</ele><time>2020-05-16T21:12:21Z</time></trkpt><trkpt lat="44.21542704105377" lon="-115.08100700564682"><ele>2733.5</ele><time>2020-05-16T21:12:22Z</time></trkpt><trkpt lat="44.21550700441003" lon="-115.08100901730359"><ele>2730.5</ele><time>2020-05-16T21:12:23Z</time></trkpt><trkpt lat="44.215585039928555" lon="-115.08090298622847"><ele>2723.8</ele><time>2020-05-16T21:12:25Z</time></trkpt><trkpt lat="44.215734992176294" lon="-115.08086996152997"><ele>2720.6</ele><time>2020-05-16T21:12:26Z</time></trkpt><trkpt lat="44.2157759796828" lon="-115.08088898845017"><ele>2715.4</ele><time>2020-05-16T21:12:27Z</time></trkpt><trkpt lat="44.2158970143646" lon="-115.08060802705586"><ele>2694.5</ele><time>2020-05-16T21:12:32Z</time></trkpt><trkpt lat="44.21596197411418" lon="-115.08060299791396"><ele>2689.8</ele><time>2020-05-16T21:12:33Z</time></trkpt><trkpt lat="44.21602400019765" lon="-115.08045002818108"><ele>2681.2</ele><time>2020-05-16T21:12:35Z</time></trkpt><trkpt lat="44.2160489782691" lon="-115.08030099794269"><ele>2676.0</ele><time>2020-05-16T21:12:36Z</time></trkpt><trkpt lat="44.216166995465755" lon="-115.08023302070796"><ele>2666.7</ele><time>2020-05-16T21:12:38Z</time></trkpt><trkpt lat="44.21619700267911" lon="-115.08017803542316"><ele>2660.0</ele><time>2020-05-16T21:12:40Z</time></trkpt><trkpt lat="44.21619901433587" lon="-115.08011198602617"><ele>2651.8</ele><time>2020-05-16T21:12:42Z</time></trkpt><trkpt lat="44.216233966872096" lon="-115.07994996383786"><ele>2648.5</ele><time>2020-05-16T21:12:43Z</time></trkpt><trkpt lat="44.216443011537194" lon="-115.07991400547326"><ele>2635.6</ele><time>2020-05-16T21:12:45Z</time></trkpt><trkpt lat="44.21662699431181" lon="-115.07999698631465"><ele>2631.6</ele><time>2020-05-16T21:12:46Z</time></trkpt><trkpt lat="44.216726990416646" lon="-115.08001701906323"><ele>2624.3</ele><time>2020-05-16T21:12:47Z</time></trkpt><trkpt lat="44.21677895821631" lon="-115.08005901239812"><ele>2622.1</ele><time>2020-05-16T21:12:48Z</time></trkpt><trkpt lat="44.216832015663385" lon="-115.08012497797608"><ele>2616.0</ele><time>2020-05-16T21:12:52Z</time></trkpt><trkpt lat="44.21688700094819" lon="-115.0801290012896"><ele>2619.0</ele><time>2020-05-16T21:13:15Z</time></trkpt><trkpt lat="44.216917008161545" lon="-115.08017904125154"><ele>2633.4</ele><time>2020-05-16T21:13:30Z</time></trkpt><trkpt lat="44.21701398678124" lon="-115.08022799156606"><ele>2627.2</ele><time>2020-05-16T21:13:32Z</time></trkpt><trkpt lat="44.217024967074394" lon="-115.08031600154936"><ele>2625.0</ele><time>2020-05-16T21:13:33Z</time></trkpt><trkpt lat="44.21725002117455" lon="-115.08041197434068"><ele>2614.6</ele><time>2020-05-16T21:13:36Z</time></trkpt><trkpt lat="44.21731003560126" lon="-115.08045296184719"><ele>2611.4</ele><time>2020-05-16T21:13:37Z</time></trkpt><trkpt lat="44.21738002449274" lon="-115.08048003539443"><ele>2606.9</ele><time>2020-05-16T21:13:38Z</time></trkpt><trkpt lat="44.21744800172746" lon="-115.08049101568758"><ele>2604.6</ele><time>2020-05-16T21:13:39Z</time></trkpt><trkpt lat="44.21763198450208" lon="-115.08046796545386"><ele>2597.7</ele><time>2020-05-16T21:13:41Z</time></trkpt><trkpt lat="44.217755030840635" lon="-115.08040602318943"><ele>2592.3</ele><time>2020-05-16T21:13:43Z</time></trkpt><trkpt lat="44.21785603277385" lon="-115.08039101958275"><ele>2587.8</ele><time>2020-05-16T21:13:44Z</time></trkpt><trkpt lat="44.21797597780824" lon="-115.0803139898926"><ele>2581.6</ele><time>2020-05-16T21:13:46Z</time></trkpt><trkpt lat="44.21800497919321" lon="-115.0802500359714"><ele>2577.9</ele><time>2020-05-16T21:13:47Z</time></trkpt><trkpt lat="44.21813196502626" lon="-115.08019597269595"><ele>2574.2</ele><time>2020-05-16T21:13:49Z</time></trkpt><trkpt lat="44.21813699416816" lon="-115.08007200434804"><ele>2575.6</ele><time>2020-05-16T21:13:51Z</time></trkpt><trkpt lat="44.21817395836115" lon="-115.0799770373851"><ele>2574.1</ele><time>2020-05-16T21:13:53Z</time></trkpt><trkpt lat="44.21821201220155" lon="-115.07983496412635"><ele>2572.6</ele><time>2020-05-16T21:13:56Z</time></trkpt><trkpt lat="44.21824101358652" lon="-115.07979799993336"><ele>2571.0</ele><time>2020-05-16T21:14:01Z</time></trkpt><trkpt lat="44.21827403828502" lon="-115.07982197217643"><ele>2561.0</ele><time>2020-05-16T21:14:10Z</time></trkpt><trkpt lat="44.21825802884996" lon="-115.07977402769029"><ele>2550.0</ele><time>2020-05-16T21:14:29Z</time></trkpt><trkpt lat="44.218205977231264" lon="-115.07975801825523"><ele>2561.0</ele><time>2020-05-16T21:14:55Z</time></trkpt><trkpt lat="44.21823900192976" lon="-115.07956196554005"><ele>2544.0</ele><time>2020-05-16T21:15:18Z</time></trkpt><trkpt lat="44.218272026628256" lon="-115.07954603992403"><ele>2559.0</ele><time>2020-05-16T21:15:25Z</time></trkpt><trkpt lat="44.21849297359586" lon="-115.07934797555208"><ele>2565.8</ele><time>2020-05-16T21:15:41Z</time></trkpt><trkpt lat="44.21868500299752" lon="-115.07915896363556"><ele>2558.4</ele><time>2020-05-16T21:15:45Z</time></trkpt><trkpt lat="44.21877502463758" lon="-115.079057039693"><ele>2556.7</ele><time>2020-05-16T21:15:47Z</time></trkpt><trkpt lat="44.21879396773875" lon="-115.07902200333774"><ele>2554.7</ele><time>2020-05-16T21:15:48Z</time></trkpt><trkpt lat="44.218829004094005" lon="-115.07902099750936"><ele>2553.2</ele><time>2020-05-16T21:15:49Z</time></trkpt><trkpt lat="44.21892900019884" lon="-115.07904203608632"><ele>2549.0</ele><time>2020-05-16T21:16:13Z</time></trkpt><trkpt lat="44.21932999044657" lon="-115.07870097644627"><ele>2530.2</ele><time>2020-05-16T21:16:27Z</time></trkpt><trkpt lat="44.21942001208663" lon="-115.07858597673476"><ele>2522.0</ele><time>2020-05-16T21:16:29Z</time></trkpt><trkpt lat="44.219477009028196" lon="-115.07856301032007"><ele>2517.9</ele><time>2020-05-16T21:16:31Z</time></trkpt><trkpt lat="44.21952797099948" lon="-115.07849997840822"><ele>2515.3</ele><time>2020-05-16T21:16:32Z</time></trkpt><trkpt lat="44.21956803649664" lon="-115.0784269720316"><ele>2511.2</ele><time>2020-05-16T21:16:33Z</time></trkpt><trkpt lat="44.219628972932696" lon="-115.07815598510206"><ele>2500.5</ele><time>2020-05-16T21:16:36Z</time></trkpt><trkpt lat="44.21970197930932" lon="-115.07799496874213"><ele>2496.3</ele><time>2020-05-16T21:16:38Z</time></trkpt><trkpt lat="44.21974799595773" lon="-115.07793101482093"><ele>2493.8</ele><time>2020-05-16T21:16:39Z</time></trkpt><trkpt lat="44.21981203369796" lon="-115.0777789670974"><ele>2489.9</ele><time>2020-05-16T21:16:41Z</time></trkpt><trkpt lat="44.219903983175755" lon="-115.0776769593358"><ele>2485.3</ele><time>2020-05-16T21:16:43Z</time></trkpt><trkpt lat="44.2199619859457" lon="-115.0775939784944"><ele>2482.6</ele><time>2020-05-16T21:16:45Z</time></trkpt><trkpt lat="44.219992998987436" lon="-115.07758702151477"><ele>2481.1</ele><time>2020-05-16T21:16:46Z</time></trkpt><trkpt lat="44.220057958737016" lon="-115.07755097933114"><ele>2479.4</ele><time>2020-05-16T21:16:48Z</time></trkpt><trkpt lat="44.22009098343551" lon="-115.07754896767437"><ele>2477.0</ele><time>2020-05-16T21:16:49Z</time></trkpt><trkpt lat="44.22010397538543" lon="-115.0774840079248"><ele>2474.0</ele><time>2020-05-16T21:16:56Z</time></trkpt><trkpt lat="44.22012803144753" lon="-115.07744897156954"><ele>2474.3</ele><time>2020-05-16T21:16:58Z</time></trkpt><trkpt lat="44.22019701451063" lon="-115.07739901542664"><ele>2465.0</ele><time>2020-05-16T21:17:03Z</time></trkpt><trkpt lat="44.22021000646055" lon="-115.07736196741462"><ele>2468.0</ele><time>2020-05-16T21:17:07Z</time></trkpt><trkpt lat="44.22023699618876" lon="-115.07732701487839"><ele>2468.0</ele><time>2020-05-16T21:17:09Z</time></trkpt><trkpt lat="44.22028100118041" lon="-115.07729700766504"><ele>2464.0</ele><time>2020-05-16T21:17:14Z</time></trkpt><trkpt lat="44.22027597203851" lon="-115.07724998518825"><ele>2464.0</ele><time>2020-05-16T21:17:19Z</time></trkpt><trkpt lat="44.22029701061547" lon="-115.0772059801966"><ele>2463.4</ele><time>2020-05-16T21:17:21Z</time></trkpt><trkpt lat="44.22031997703016" lon="-115.07716801017523"><ele>2462.4</ele><time>2020-05-16T21:17:22Z</time></trkpt><trkpt lat="44.220379991456866" lon="-115.07712501101196"><ele>2459.3</ele><time>2020-05-16T21:17:24Z</time></trkpt><trkpt lat="44.220440005883574" lon="-115.07700799964368"><ele>2457.5</ele><time>2020-05-16T21:17:26Z</time></trkpt><trkpt lat="44.2205130122602" lon="-115.07681001909077"><ele>2444.0</ele><time>2020-05-16T21:17:34Z</time></trkpt><trkpt lat="44.220545031130314" lon="-115.07678696885705"><ele>2442.0</ele><time>2020-05-16T21:17:43Z</time></trkpt><trkpt lat="44.22055601142347" lon="-115.07675603963435"><ele>2441.0</ele><time>2020-05-16T21:17:47Z</time></trkpt><trkpt lat="44.22060303390026" lon="-115.07674698717892"><ele>2440.0</ele><time>2020-05-16T21:17:49Z</time></trkpt><trkpt lat="44.22066799364984" lon="-115.07671798579395"><ele>2435.0</ele><time>2020-05-16T21:17:53Z</time></trkpt><trkpt lat="44.22068601474166" lon="-115.07669200189412"><ele>2435.0</ele><time>2020-05-16T21:17:56Z</time></trkpt><trkpt lat="44.220743011683226" lon="-115.07665897719562"><ele>2430.0</ele><time>2020-05-16T21:18:10Z</time></trkpt><trkpt lat="44.22086698003113" lon="-115.07653802633286"><ele>2425.7</ele><time>2020-05-16T21:18:14Z</time></trkpt><trkpt lat="44.22093101777136" lon="-115.07648597471416"><ele>2423.2</ele><time>2020-05-16T21:18:15Z</time></trkpt><trkpt lat="44.22100603580475" lon="-115.07644800469279"><ele>2417.2</ele><time>2020-05-16T21:18:16Z</time></trkpt><trkpt lat="44.22105398029089" lon="-115.07639503106475"><ele>2415.7</ele><time>2020-05-16T21:18:17Z</time></trkpt><trkpt lat="44.22109798528254" lon="-115.07637399248779"><ele>2409.0</ele><time>2020-05-16T21:18:18Z</time></trkpt><trkpt lat="44.221195969730616" lon="-115.07635496556759"><ele>2407.3</ele><time>2020-05-16T21:18:21Z</time></trkpt><trkpt lat="44.22127501107752" lon="-115.0762770138681"><ele>2404.6</ele><time>2020-05-16T21:18:23Z</time></trkpt><trkpt lat="44.22133100219071" lon="-115.07624600082636"><ele>2401.8</ele><time>2020-05-16T21:18:24Z</time></trkpt><trkpt lat="44.22139403410256" lon="-115.0762249622494"><ele>2395.0</ele><time>2020-05-16T21:18:25Z</time></trkpt><trkpt lat="44.2214419785887" lon="-115.0762490183115"><ele>2394.0</ele><time>2020-05-16T21:18:37Z</time></trkpt><trkpt lat="44.22148799523711" lon="-115.07623803801835"><ele>2395.0</ele><time>2020-05-16T21:18:48Z</time></trkpt><trkpt lat="44.221516996622086" lon="-115.07622404024005"><ele>2394.0</ele><time>2020-05-16T21:18:50Z</time></trkpt><trkpt lat="44.22157097607851" lon="-115.07616897113621"><ele>2393.7</ele><time>2020-05-16T21:18:53Z</time></trkpt><trkpt lat="44.221685975790024" lon="-115.07612496614456"><ele>2390.9</ele><time>2020-05-16T21:18:56Z</time></trkpt><trkpt lat="44.22176300548017" lon="-115.07611499167979"><ele>2389.0</ele><time>2020-05-16T21:18:58Z</time></trkpt><trkpt lat="44.221817990764976" lon="-115.07614600472152"><ele>2388.0</ele><time>2020-05-16T21:19:00Z</time></trkpt><trkpt lat="44.22182603739202" lon="-115.07618699222803"><ele>2387.0</ele><time>2020-05-16T21:19:05Z</time></trkpt><trkpt lat="44.22184699214995" lon="-115.0762109644711"><ele>2386.0</ele><time>2020-05-16T21:19:07Z</time></trkpt><trkpt lat="44.22195503488183" lon="-115.07627801969647"><ele>2383.6</ele><time>2020-05-16T21:19:11Z</time></trkpt><trkpt lat="44.22198303043842" lon="-115.07630702108145"><ele>2382.1</ele><time>2020-05-16T21:19:12Z</time></trkpt><trkpt lat="44.22201597131789" lon="-115.07636401802301"><ele>2381.3</ele><time>2020-05-16T21:19:13Z</time></trkpt><trkpt lat="44.22212602570653" lon="-115.07645102217793"><ele>2377.1</ele><time>2020-05-16T21:19:17Z</time></trkpt><trkpt lat="44.22214203514159" lon="-115.07648999802768"><ele>2368.0</ele><time>2020-05-16T21:19:25Z</time></trkpt><trkpt lat="44.222158966585994" lon="-115.07645403966308"><ele>2368.0</ele><time>2020-05-16T21:19:34Z</time></trkpt><trkpt lat="44.22220800071955" lon="-115.07644901052117"><ele>2367.3</ele><time>2020-05-16T21:19:35Z</time></trkpt><trkpt lat="44.22228000126779" lon="-115.0765439774841"><ele>2366.4</ele><time>2020-05-16T21:19:36Z</time></trkpt><trkpt lat="44.22236801125109" lon="-115.07653400301933"><ele>2364.3</ele><time>2020-05-16T21:19:37Z</time></trkpt><trkpt lat="44.222398018464446" lon="-115.07656501606107"><ele>2360.0</ele><time>2020-05-16T21:19:49Z</time></trkpt><trkpt lat="44.222522992640734" lon="-115.07658395916224"><ele>2361.0</ele><time>2020-05-16T21:20:09Z</time></trkpt><trkpt lat="44.22255299985409" lon="-115.07656602188945"><ele>2361.0</ele><time>2020-05-16T21:20:11Z</time></trkpt><trkpt lat="44.2226679995656" lon="-115.07634499110281"><ele>2352.0</ele><time>2020-05-16T21:20:17Z</time></trkpt><trkpt lat="44.22272399067879" lon="-115.07637600414455"><ele>2341.0</ele><time>2020-05-16T21:20:22Z</time></trkpt><trkpt lat="44.2227700073272" lon="-115.07632596418262"><ele>2344.0</ele><time>2020-05-16T21:20:28Z</time></trkpt><trkpt lat="44.22286396846175" lon="-115.07629796862602"><ele>2342.4</ele><time>2020-05-16T21:20:39Z</time></trkpt><trkpt lat="44.222892969846725" lon="-115.0762770138681"><ele>2337.5</ele><time>2020-05-16T21:20:40Z</time></trkpt><trkpt lat="44.22293798066676" lon="-115.07628195919096"><ele>2335.0</ele><time>2020-05-16T21:20:43Z</time></trkpt><trkpt lat="44.22298399731517" lon="-115.07629998028278"><ele>2324.0</ele><time>2020-05-16T21:20:55Z</time></trkpt><trkpt lat="44.22303001396358" lon="-115.07625496946275"><ele>2331.0</ele><time>2020-05-16T21:21:07Z</time></trkpt><trkpt lat="44.22305499203503" lon="-115.07628103718162"><ele>2333.6</ele><time>2020-05-16T21:21:12Z</time></trkpt><trkpt lat="44.22309204004705" lon="-115.07620995864272"><ele>2330.0</ele><time>2020-05-16T21:21:16Z</time></trkpt><trkpt lat="44.22311902977526" lon="-115.0760920252651"><ele>2330.1</ele><time>2020-05-16T21:21:18Z</time></trkpt><trkpt lat="44.223146019503474" lon="-115.07607400417328"><ele>2325.6</ele><time>2020-05-16T21:21:19Z</time></trkpt><trkpt lat="44.22317996621132" lon="-115.07608003914356"><ele>2324.7</ele><time>2020-05-16T21:21:20Z</time></trkpt><trkpt lat="44.223211985081434" lon="-115.07610996253788"><ele>2324.0</ele><time>2020-05-16T21:21:21Z</time></trkpt><trkpt lat="44.22325096093118" lon="-115.0761060230434"><ele>2322.7</ele><time>2020-05-16T21:21:23Z</time></trkpt><trkpt lat="44.2233020067215" lon="-115.07616201415658"><ele>2319.8</ele><time>2020-05-16T21:21:24Z</time></trkpt><trkpt lat="44.223317010328174" lon="-115.07619503885508"><ele>2318.0</ele><time>2020-05-16T21:21:29Z</time></trkpt><trkpt lat="44.22333100810647" lon="-115.07618196308613"><ele>2316.0</ele><time>2020-05-16T21:21:36Z</time></trkpt><trkpt lat="44.223429998382926" lon="-115.07622596807778"><ele>2314.0</ele><time>2020-05-16T21:21:48Z</time></trkpt><trkpt lat="44.2235610075295" lon="-115.07624700665474"><ele>2310.9</ele><time>2020-05-16T21:21:54Z</time></trkpt><trkpt lat="44.223601995036006" lon="-115.0762389600277"><ele>2308.0</ele><time>2020-05-16T21:21:55Z</time></trkpt><trkpt lat="44.22369796782732" lon="-115.07615103386343"><ele>2303.9</ele><time>2020-05-16T21:21:57Z</time></trkpt><trkpt lat="44.223859990015626" lon="-115.07593000307679"><ele>2295.5</ele><time>2020-05-16T21:22:02Z</time></trkpt><trkpt lat="44.223880022764206" lon="-115.07589203305542"><ele>2292.0</ele><time>2020-05-16T21:22:04Z</time></trkpt><trkpt lat="44.223857978358865" lon="-115.07585096172988"><ele>2287.0</ele><time>2020-05-16T21:22:20Z</time></trkpt><trkpt lat="44.22391698695719" lon="-115.07583796977997"><ele>2288.7</ele><time>2020-05-16T21:22:36Z</time></trkpt><trkpt lat="44.224047996103764" lon="-115.07577099837363"><ele>2280.0</ele><time>2020-05-16T21:22:40Z</time></trkpt><trkpt lat="44.22408202663064" lon="-115.07579295895994"><ele>2277.0</ele><time>2020-05-16T21:22:47Z</time></trkpt><trkpt lat="44.22410901635885" lon="-115.07576303556561"><ele>2277.8</ele><time>2020-05-16T21:22:52Z</time></trkpt><trkpt lat="44.224137011915445" lon="-115.07574903778732"><ele>2276.8</ele><time>2020-05-16T21:22:53Z</time></trkpt><trkpt lat="44.22418504022062" lon="-115.07574199698865"><ele>2274.0</ele><time>2020-05-16T21:22:54Z</time></trkpt><trkpt lat="44.22423901967704" lon="-115.07571802474558"><ele>2274.1</ele><time>2020-05-16T21:22:56Z</time></trkpt><trkpt lat="44.224265003576875" lon="-115.07567100226879"><ele>2272.0</ele><time>2020-05-16T21:22:57Z</time></trkpt><trkpt lat="44.22425997443497" lon="-115.07562800310552"><ele>2271.3</ele><time>2020-05-16T21:22:59Z</time></trkpt><trkpt lat="44.22432200051844" lon="-115.07551803253591"><ele>2268.0</ele><time>2020-05-16T21:23:09Z</time></trkpt><trkpt lat="44.224351001903415" lon="-115.07544200867414"><ele>2267.3</ele><time>2020-05-16T21:23:12Z</time></trkpt><trkpt lat="44.2243879660964" lon="-115.07540403865278"><ele>2265.0</ele><time>2020-05-16T21:23:23Z</time></trkpt><trkpt lat="44.22439903020859" lon="-115.07534997537732"><ele>2263.0</ele><time>2020-05-16T21:23:32Z</time></trkpt><trkpt lat="44.2244209907949" lon="-115.07532298564911"><ele>2260.0</ele><time>2020-05-16T21:23:35Z</time></trkpt><trkpt lat="44.224482011049986" lon="-115.07519599981606"><ele>2257.2</ele><time>2020-05-16T21:23:39Z</time></trkpt><trkpt lat="44.224546970799565" lon="-115.07511301897466"><ele>2254.3</ele><time>2020-05-16T21:23:41Z</time></trkpt><trkpt lat="44.22458401881158" lon="-115.07507999427617"><ele>2253.5</ele><time>2020-05-16T21:23:42Z</time></trkpt><trkpt lat="44.224628023803234" lon="-115.07505903951824"><ele>2253.2</ele><time>2020-05-16T21:23:43Z</time></trkpt><trkpt lat="44.22483597882092" lon="-115.074995001778"><ele>2245.0</ele><time>2020-05-16T21:23:50Z</time></trkpt><trkpt lat="44.224865986034274" lon="-115.07495703175664"><ele>2246.0</ele><time>2020-05-16T21:23:59Z</time></trkpt><trkpt lat="44.2249249946326" lon="-115.07491000927985"><ele>2244.0</ele><time>2020-05-16T21:24:15Z</time></trkpt><trkpt lat="44.22491502016783" lon="-115.07485896348953"><ele>2240.0</ele><time>2020-05-16T21:28:23Z</time></trkpt><trkpt lat="44.22495902515948" lon="-115.07487296126783"><ele>2238.0</ele><time>2020-05-16T21:30:46Z</time></trkpt><trkpt lat="44.224995989352465" lon="-115.07486801594496"><ele>2235.0</ele><time>2020-05-16T21:30:50Z</time></trkpt><trkpt lat="44.22505399212241" lon="-115.07488603703678"><ele>2235.0</ele><time>2020-05-16T21:31:06Z</time></trkpt><trkpt lat="44.22508902847767" lon="-115.07484002038836"><ele>2230.0</ele><time>2020-05-16T21:31:17Z</time></trkpt><trkpt lat="44.22513202764094" lon="-115.07480699568987"><ele>2229.0</ele><time>2020-05-16T21:31:28Z</time></trkpt><trkpt lat="44.225191036239266" lon="-115.07480498403311"><ele>2225.0</ele><time>2020-05-16T21:31:40Z</time></trkpt><trkpt lat="44.22520603984594" lon="-115.07483197376132"><ele>2226.0</ele><time>2020-05-16T21:31:46Z</time></trkpt><trkpt lat="44.22528902068734" lon="-115.07483197376132"><ele>2219.0</ele><time>2020-05-16T21:32:40Z</time></trkpt><trkpt lat="44.22533403150737" lon="-115.07481596432626"><ele>2214.0</ele><time>2020-05-16T21:32:57Z</time></trkpt><trkpt lat="44.22539496794343" lon="-115.07482996210456"><ele>2214.0</ele><time>2020-05-16T21:33:10Z</time></trkpt><trkpt lat="44.22543603926897" lon="-115.07481697015464"><ele>2201.0</ele><time>2020-05-16T21:33:35Z</time></trkpt><trkpt lat="44.225508039817214" lon="-115.0748380087316"><ele>2205.0</ele><time>2020-05-16T21:34:32Z</time></trkpt><trkpt lat="44.22558004036546" lon="-115.07483096793294"><ele>2205.0</ele><time>2020-05-16T21:34:49Z</time></trkpt><trkpt lat="44.22560703009367" lon="-115.07480699568987"><ele>2202.0</ele><time>2020-05-16T21:34:55Z</time></trkpt><trkpt lat="44.22565103508532" lon="-115.07480498403311"><ele>2196.0</ele><time>2020-05-16T21:35:03Z</time></trkpt><trkpt lat="44.2256279848516" lon="-115.07482702843845"><ele>2196.0</ele><time>2020-05-16T21:35:16Z</time></trkpt><trkpt lat="44.22564600594342" lon="-115.07485100068152"><ele>2199.0</ele><time>2020-05-16T21:35:28Z</time></trkpt><trkpt lat="44.22561599873006" lon="-115.0748850312084"><ele>2197.0</ele><time>2020-05-16T21:35:40Z</time></trkpt><trkpt lat="44.225621027871966" lon="-115.07491998374462"><ele>2196.0</ele><time>2020-05-16T21:35:52Z</time></trkpt><trkpt lat="44.22567701898515" lon="-115.07496901787817"><ele>2196.0</ele><time>2020-05-16T21:36:16Z</time></trkpt><trkpt lat="44.22571700066328" lon="-115.07498703897"><ele>2195.0</ele><time>2020-05-16T21:36:24Z</time></trkpt><trkpt lat="44.22573803924024" lon="-115.07502500899136"><ele>2192.0</ele><time>2020-05-16T21:36:32Z</time></trkpt><trkpt lat="44.225792018696666" lon="-115.07501000538468"><ele>2187.0</ele><time>2020-05-16T21:36:43Z</time></trkpt><trkpt lat="44.225853038951755" lon="-115.07508602924645"><ele>2186.0</ele><time>2020-05-16T21:37:04Z</time></trkpt><trkpt lat="44.22593400813639" lon="-115.07501101121306"><ele>2182.0</ele><time>2020-05-16T21:37:50Z</time></trkpt><trkpt lat="44.22597600147128" lon="-115.0750039704144"><ele>2179.0</ele><time>2020-05-16T21:37:57Z</time></trkpt><trkpt lat="44.22598295845091" lon="-115.07493096403778"><ele>2176.0</ele><time>2020-05-16T21:38:17Z</time></trkpt><trkpt lat="44.226027969270945" lon="-115.07490900345147"><ele>2176.0</ele><time>2020-05-16T21:38:29Z</time></trkpt><trkpt lat="44.226069962605834" lon="-115.07493599317968"><ele>2171.0</ele><time>2020-05-16T21:38:39Z</time></trkpt><trkpt lat="44.2261650133878" lon="-115.07490498013794"><ele>2171.0</ele><time>2020-05-16T21:38:55Z</time></trkpt><trkpt lat="44.226198038086295" lon="-115.07491000927985"><ele>2170.0</ele><time>2020-05-16T21:39:02Z</time></trkpt><trkpt lat="44.22628998756409" lon="-115.07485401816666"><ele>2169.0</ele><time>2020-05-16T21:39:26Z</time></trkpt><trkpt lat="44.22634497284889" lon="-115.07489500567317"><ele>2165.0</ele><time>2020-05-16T21:39:32Z</time></trkpt><trkpt lat="44.22638101503253" lon="-115.0749069917947"><ele>2160.0</ele><time>2020-05-16T21:39:39Z</time></trkpt><trkpt lat="44.22642602585256" lon="-115.07487002760172"><ele>2160.0</ele><time>2020-05-16T21:39:49Z</time></trkpt><trkpt lat="44.22649400308728" lon="-115.07489601150155"><ele>2159.0</ele><time>2020-05-16T21:40:00Z</time></trkpt><trkpt lat="44.226589975878596" lon="-115.07490003481507"><ele>2160.0</ele><time>2020-05-16T21:40:10Z</time></trkpt><trkpt lat="44.226627023890615" lon="-115.0748710334301"><ele>2157.8</ele><time>2020-05-16T21:40:14Z</time></trkpt><trkpt lat="44.22665501944721" lon="-115.07481697015464"><ele>2154.0</ele><time>2020-05-16T21:40:19Z</time></trkpt><trkpt lat="44.22667999751866" lon="-115.07479400373995"><ele>2151.0</ele><time>2020-05-16T21:40:23Z</time></trkpt><trkpt lat="44.22674202360213" lon="-115.07476299069822"><ele>2152.0</ele><time>2020-05-16T21:40:30Z</time></trkpt><trkpt lat="44.22683397307992" lon="-115.07474103011191"><ele>2151.0</ele><time>2020-05-16T21:40:42Z</time></trkpt><trkpt lat="44.226908991113305" lon="-115.07476097904146"><ele>2152.2</ele><time>2020-05-16T21:40:56Z</time></trkpt><trkpt lat="44.22687898389995" lon="-115.07476097904146"><ele>2152.0</ele><time>2020-05-16T21:40:58Z</time></trkpt><trkpt lat="44.22693204134703" lon="-115.07473398931324"><ele>2149.0</ele><time>2020-05-16T21:41:05Z</time></trkpt><trkpt lat="44.22698501497507" lon="-115.07467799820006"><ele>2149.0</ele><time>2020-05-16T21:41:08Z</time></trkpt><trkpt lat="44.22700898721814" lon="-115.07460599765182"><ele>2148.0</ele><time>2020-05-16T21:41:13Z</time></trkpt><trkpt lat="44.227056009694934" lon="-115.07461396045983"><ele>2148.0</ele><time>2020-05-16T21:41:18Z</time></trkpt><trkpt lat="44.22712801024318" lon="-115.07472200319171"><ele>2147.0</ele><time>2020-05-16T21:41:27Z</time></trkpt><trkpt lat="44.22717302106321" lon="-115.07473398931324"><ele>2144.0</ele><time>2020-05-16T21:41:33Z</time></trkpt><trkpt lat="44.227207973599434" lon="-115.07463600486517"><ele>2142.0</ele><time>2020-05-16T21:41:45Z</time></trkpt><trkpt lat="44.2272839974612" lon="-115.07466802373528"><ele>2140.0</ele><time>2020-05-16T21:41:57Z</time></trkpt><trkpt lat="44.22738499939442" lon="-115.07466098293662"><ele>2139.0</ele><time>2020-05-16T21:42:08Z</time></trkpt><trkpt lat="44.22740897163749" lon="-115.0746810156852"><ele>2139.0</ele><time>2020-05-16T21:42:11Z</time></trkpt><trkpt lat="44.22743897885084" lon="-115.07468696683645"><ele>2139.0</ele><time>2020-05-16T21:42:15Z</time></trkpt><trkpt lat="44.22750796191394" lon="-115.07465603761375"><ele>2136.0</ele><time>2020-05-16T21:42:22Z</time></trkpt><trkpt lat="44.22757099382579" lon="-115.07458697073162"><ele>2136.0</ele><time>2020-05-16T21:42:35Z</time></trkpt><trkpt lat="44.22762203961611" lon="-115.07459702901542"><ele>2134.0</ele><time>2020-05-16T21:42:40Z</time></trkpt><trkpt lat="44.22765598632395" lon="-115.07458898238838"><ele>2132.0</ele><time>2020-05-16T21:42:44Z</time></trkpt><trkpt lat="44.22767601907253" lon="-115.07455796934664"><ele>2134.0</ele><time>2020-05-16T21:42:48Z</time></trkpt><trkpt lat="44.227708959952" lon="-115.07455696351826"><ele>2136.0</ele><time>2020-05-16T21:42:50Z</time></trkpt><trkpt lat="44.227766040712595" lon="-115.07458001375198"><ele>2136.0</ele><time>2020-05-16T21:42:55Z</time></trkpt><trkpt lat="44.227808034047484" lon="-115.07457196712494"><ele>2130.0</ele><time>2020-05-16T21:43:08Z</time></trkpt><trkpt lat="44.22788397409022" lon="-115.07450901903212"><ele>2125.0</ele><time>2020-05-16T21:43:23Z</time></trkpt><trkpt lat="44.22792596742511" lon="-115.07452796213329"><ele>2127.0</ele><time>2020-05-16T21:43:30Z</time></trkpt><trkpt lat="44.22796896658838" lon="-115.07458898238838"><ele>2124.0</ele><time>2020-05-16T21:43:37Z</time></trkpt><trkpt lat="44.22800903208554" lon="-115.07458797656"><ele>2124.0</ele><time>2020-05-16T21:43:42Z</time></trkpt><trkpt lat="44.22805697657168" lon="-115.0746289640665"><ele>2124.0</ele><time>2020-05-16T21:43:48Z</time></trkpt><trkpt lat="44.22814004123211" lon="-115.07466400042176"><ele>2124.0</ele><time>2020-05-16T21:43:58Z</time></trkpt><trkpt lat="44.22822603955865" lon="-115.07465997710824"><ele>2121.0</ele><time>2020-05-16T21:44:07Z</time></trkpt><trkpt lat="44.22830902040005" lon="-115.07469199597836"><ele>2118.0</ele><time>2020-05-16T21:44:21Z</time></trkpt><trkpt lat="44.2283390276134" lon="-115.074661988765"><ele>2116.0</ele><time>2020-05-16T21:44:26Z</time></trkpt><trkpt lat="44.228347996249795" lon="-115.0746019743383"><ele>2116.0</ele><time>2020-05-16T21:44:33Z</time></trkpt><trkpt lat="44.228456038981676" lon="-115.07458495907485"><ele>2116.0</ele><time>2020-05-16T21:44:43Z</time></trkpt><trkpt lat="44.22850398346782" lon="-115.07453399710357"><ele>2112.0</ele><time>2020-05-16T21:44:51Z</time></trkpt><trkpt lat="44.22859199345112" lon="-115.07449401542544"><ele>2112.0</ele><time>2020-05-16T21:44:59Z</time></trkpt><trkpt lat="44.228711016476154" lon="-115.0743699632585"><ele>2100.0</ele><time>2020-05-16T21:45:26Z</time></trkpt><trkpt lat="44.228733982890844" lon="-115.07430299185216"><ele>2100.0</ele><time>2020-05-16T21:45:35Z</time></trkpt><trkpt lat="44.2288329731673" lon="-115.07426602765918"><ele>2097.0</ele><time>2020-05-16T21:45:54Z</time></trkpt><trkpt lat="44.22889902256429" lon="-115.07420601323247"><ele>2096.0</ele><time>2020-05-16T21:46:13Z</time></trkpt><trkpt lat="44.22898300923407" lon="-115.07416896522045"><ele>2093.0</ele><time>2020-05-16T21:46:21Z</time></trkpt><trkpt lat="44.229035982862115" lon="-115.07420701906085"><ele>2092.0</ele><time>2020-05-16T21:46:28Z</time></trkpt><trkpt lat="44.229078982025385" lon="-115.07421598769724"><ele>2088.0</ele><time>2020-05-16T21:46:35Z</time></trkpt><trkpt lat="44.22917897813022" lon="-115.07416896522045"><ele>2087.0</ele><time>2020-05-16T21:46:46Z</time></trkpt><trkpt lat="44.22919498756528" lon="-115.0741350185126"><ele>2087.0</ele><time>2020-05-16T21:46:50Z</time></trkpt><trkpt lat="44.22924796119332" lon="-115.07411004044116"><ele>2087.0</ele><time>2020-05-16T21:46:56Z</time></trkpt><trkpt lat="44.229229018092155" lon="-115.0740470085293"><ele>2085.0</ele><time>2020-05-16T21:47:01Z</time></trkpt><trkpt lat="44.22924796119332" lon="-115.07401700131595"><ele>2083.0</ele><time>2020-05-16T21:47:04Z</time></trkpt><trkpt lat="44.22928601503372" lon="-115.07404902018607"><ele>2082.0</ele><time>2020-05-16T21:47:12Z</time></trkpt><trkpt lat="44.22930001281202" lon="-115.07400803267956"><ele>2080.0</ele><time>2020-05-16T21:47:19Z</time></trkpt><trkpt lat="44.229401014745235" lon="-115.07396603934467"><ele>2076.0</ele><time>2020-05-16T21:47:30Z</time></trkpt><trkpt lat="44.22946999780834" lon="-115.07397903129458"><ele>2072.0</ele><time>2020-05-16T21:47:42Z</time></trkpt><trkpt lat="44.22951903194189" lon="-115.07403301075101"><ele>2072.0</ele><time>2020-05-16T21:47:49Z</time></trkpt><trkpt lat="44.2295359633863" lon="-115.07407299242914"><ele>2071.0</ele><time>2020-05-16T21:47:52Z</time></trkpt><trkpt lat="44.22956303693354" lon="-115.07409201934934"><ele>2069.0</ele><time>2020-05-16T21:47:57Z</time></trkpt><trkpt lat="44.22956303693354" lon="-115.07414096966386"><ele>2070.0</ele><time>2020-05-16T21:48:03Z</time></trkpt><trkpt lat="44.229595977813005" lon="-115.07413200102746"><ele>2070.0</ele><time>2020-05-16T21:48:07Z</time></trkpt><trkpt lat="44.22962699085474" lon="-115.07414499297738"><ele>2065.0</ele><time>2020-05-16T21:48:12Z</time></trkpt><trkpt lat="44.229742996394634" lon="-115.07414298132062"><ele>2067.0</ele><time>2020-05-16T21:48:24Z</time></trkpt><trkpt lat="44.229765040799975" lon="-115.07405103184283"><ele>2067.0</ele><time>2020-05-16T21:48:31Z</time></trkpt><trkpt lat="44.22975397668779" lon="-115.07401096634567"><ele>2067.0</ele><time>2020-05-16T21:48:34Z</time></trkpt><trkpt lat="44.229768980294466" lon="-115.07393795996904"><ele>2064.0</ele><time>2020-05-16T21:48:39Z</time></trkpt><trkpt lat="44.22973696142435" lon="-115.07386503741145"><ele>2062.0</ele><time>2020-05-16T21:48:46Z</time></trkpt><trkpt lat="44.22974701970816" lon="-115.07378700189292"><ele>2061.0</ele><time>2020-05-16T21:48:52Z</time></trkpt><trkpt lat="44.22987702302635" lon="-115.07367300800979"><ele>2058.0</ele><time>2020-05-16T21:49:13Z</time></trkpt><trkpt lat="44.22988498583436" lon="-115.07362196221948"><ele>2057.3</ele><time>2020-05-16T21:49:17Z</time></trkpt><trkpt lat="44.229914993047714" lon="-115.07360503077507"><ele>2055.0</ele><time>2020-05-16T21:49:21Z</time></trkpt><trkpt lat="44.229981964454055" lon="-115.07366001605988"><ele>2055.0</ele><time>2020-05-16T21:49:30Z</time></trkpt><trkpt lat="44.23005597665906" lon="-115.07369396276772"><ele>2052.0</ele><time>2020-05-16T21:49:35Z</time></trkpt><trkpt lat="44.23009998165071" lon="-115.07368801161647"><ele>2040.0</ele><time>2020-05-16T21:49:46Z</time></trkpt><trkpt lat="44.23006201162934" lon="-115.07368197664618"><ele>2052.0</ele><time>2020-05-16T21:50:03Z</time></trkpt><trkpt lat="44.23002999275923" lon="-115.07371801882982"><ele>2038.0</ele><time>2020-05-16T21:58:02Z</time></trkpt><trkpt lat="44.23001197166741" lon="-115.0737470202148"><ele>2043.0</ele><time>2020-05-16T21:59:20Z</time></trkpt><trkpt lat="44.23000702634454" lon="-115.07382002659142"><ele>2044.0</ele><time>2020-05-16T22:00:01Z</time></trkpt><trkpt lat="44.230004008859396" lon="-115.0737330224365"><ele>2043.0</ele><time>2020-05-16T22:00:51Z</time></trkpt><trkpt lat="44.23005999997258" lon="-115.07373603992164"><ele>2037.0</ele><time>2020-05-16T22:01:15Z</time></trkpt><trkpt lat="44.23020098358393" lon="-115.0737880077213"><ele>2041.3</ele><time>2020-05-16T22:01:39Z</time></trkpt><trkpt lat="44.23022797331214" lon="-115.0738350301981"><ele>2038.0</ele><time>2020-05-16T22:01:52Z</time></trkpt><trkpt lat="44.230345990508795" lon="-115.0738350301981"><ele>2036.0</ele><time>2020-05-16T22:02:09Z</time></trkpt><trkpt lat="44.230408016592264" lon="-115.07385296747088"><ele>2034.0</ele><time>2020-05-16T22:02:16Z</time></trkpt><trkpt lat="44.230473982170224" lon="-115.0738350301981"><ele>2037.0</ele><time>2020-05-16T22:02:22Z</time></trkpt><trkpt lat="44.23061395995319" lon="-115.07391197606921"><ele>2037.0</ele><time>2020-05-16T22:02:34Z</time></trkpt><trkpt lat="44.230687972158194" lon="-115.07390501908958"><ele>2035.0</ele><time>2020-05-16T22:02:39Z</time></trkpt><trkpt lat="44.23078503459692" lon="-115.0739399716258"><ele>2034.0</ele><time>2020-05-16T22:02:47Z</time></trkpt><trkpt lat="44.230859968811274" lon="-115.07398095913231"><ele>2034.0</ele><time>2020-05-16T22:02:53Z</time></trkpt><trkpt lat="44.230970023199916" lon="-115.07407299242914"><ele>2031.0</ele><time>2020-05-16T22:03:03Z</time></trkpt><trkpt lat="44.23106197267771" lon="-115.07411004044116"><ele>2028.0</ele><time>2020-05-16T22:03:12Z</time></trkpt><trkpt lat="44.23117898404598" lon="-115.07418497465551"><ele>2028.0</ele><time>2020-05-16T22:03:22Z</time></trkpt><trkpt lat="44.23121200874448" lon="-115.0741960387677"><ele>2026.0</ele><time>2020-05-16T22:03:25Z</time></trkpt><trkpt lat="44.23130496405065" lon="-115.07426301017404"><ele>2026.0</ele><time>2020-05-16T22:03:34Z</time></trkpt><trkpt lat="44.23144502565265" lon="-115.07442796602845"><ele>2026.0</ele><time>2020-05-16T22:03:50Z</time></trkpt><trkpt lat="44.2315249890089" lon="-115.07445302791893"><ele>2025.0</ele><time>2020-05-16T22:03:56Z</time></trkpt><trkpt lat="44.23173596151173" lon="-115.07459702901542"><ele>2022.0</ele><time>2020-05-16T22:04:09Z</time></trkpt><trkpt lat="44.231831012293696" lon="-115.07462100125849"><ele>2022.0</ele><time>2020-05-16T22:04:15Z</time></trkpt><trkpt lat="44.23192203976214" lon="-115.07469803094864"><ele>2019.0</ele><time>2020-05-16T22:04:23Z</time></trkpt><trkpt lat="44.23194400034845" lon="-115.07480900734663"><ele>2018.0</ele><time>2020-05-16T22:04:29Z</time></trkpt><trkpt lat="44.231936959549785" lon="-115.07488997653127"><ele>2016.0</ele><time>2020-05-16T22:04:33Z</time></trkpt><trkpt lat="44.23186202533543" lon="-115.07502400316298"><ele>2014.0</ele><time>2020-05-16T22:04:41Z</time></trkpt><trkpt lat="44.23182003200054" lon="-115.07513598538935"><ele>2012.0</ele><time>2020-05-16T22:04:47Z</time></trkpt><trkpt lat="44.23181399703026" lon="-115.07520999759436"><ele>2012.0</ele><time>2020-05-16T22:04:51Z</time></trkpt><trkpt lat="44.23175498843193" lon="-115.07547503337264"><ele>2010.0</ele><time>2020-05-16T22:05:05Z</time></trkpt><trkpt lat="44.23172799870372" lon="-115.07551501505077"><ele>2010.0</ele><time>2020-05-16T22:05:11Z</time></trkpt><trkpt lat="44.23156002536416" lon="-115.07563596591353"><ele>2010.0</ele><time>2020-05-16T22:05:22Z</time></trkpt><trkpt lat="44.23153596930206" lon="-115.07566697895527"><ele>2010.0</ele><time>2020-05-16T22:05:25Z</time></trkpt><trkpt lat="44.23147201538086" lon="-115.07583403028548"><ele>2008.0</ele><time>2020-05-16T22:05:33Z</time></trkpt><trkpt lat="44.23143496736884" lon="-115.07597501389682"><ele>2007.0</ele><time>2020-05-16T22:05:41Z</time></trkpt><trkpt lat="44.231374030932784" lon="-115.07605296559632"><ele>2006.0</ele><time>2020-05-16T22:05:47Z</time></trkpt><trkpt lat="44.23136103898287" lon="-115.07611499167979"><ele>2004.0</ele><time>2020-05-16T22:05:54Z</time></trkpt><trkpt lat="44.23133295960724" lon="-115.07615799084306"><ele>2005.0</ele><time>2020-05-16T22:05:56Z</time></trkpt><trkpt lat="44.23123497515917" lon="-115.07625102996826"><ele>2006.0</ele><time>2020-05-16T22:06:02Z</time></trkpt><trkpt lat="44.23113196156919" lon="-115.07632495835423"><ele>2004.0</ele><time>2020-05-16T22:06:08Z</time></trkpt><trkpt lat="44.23101997934282" lon="-115.07643199525774"><ele>2004.0</ele><time>2020-05-16T22:06:17Z</time></trkpt><trkpt lat="44.23094102181494" lon="-115.07648102939129"><ele>2004.0</ele><time>2020-05-16T22:06:25Z</time></trkpt><trkpt lat="44.23087396658957" lon="-115.07658395916224"><ele>2004.0</ele><time>2020-05-16T22:06:31Z</time></trkpt><trkpt lat="44.23072300851345" lon="-115.07674497552216"><ele>2004.0</ele><time>2020-05-16T22:06:43Z</time></trkpt><trkpt lat="44.23070699907839" lon="-115.07677800022066"><ele>2004.0</ele><time>2020-05-16T22:06:45Z</time></trkpt><trkpt lat="44.230709010735154" lon="-115.07688998244703"><ele>2004.0</ele><time>2020-05-16T22:06:51Z</time></trkpt><trkpt lat="44.23069400712848" lon="-115.07692703045905"><ele>2004.0</ele><time>2020-05-16T22:06:53Z</time></trkpt><trkpt lat="44.23058998771012" lon="-115.0770540162921"><ele>2004.0</ele><time>2020-05-16T22:07:01Z</time></trkpt><trkpt lat="44.23057598993182" lon="-115.07711696438491"><ele>2004.0</ele><time>2020-05-16T22:07:06Z</time></trkpt><trkpt lat="44.23046400770545" lon="-115.07727697491646"><ele>2003.0</ele><time>2020-05-16T22:07:17Z</time></trkpt><trkpt lat="44.230409022420645" lon="-115.07733799517155"><ele>2004.0</ele><time>2020-05-16T22:07:21Z</time></trkpt><trkpt lat="44.230300979688764" lon="-115.07750404067338"><ele>2002.0</ele><time>2020-05-16T22:07:32Z</time></trkpt><trkpt lat="44.23029502853751" lon="-115.07757796905935"><ele>2002.0</ele><time>2020-05-16T22:07:37Z</time></trkpt><trkpt lat="44.23027298413217" lon="-115.07764703594148"><ele>2002.0</ele><time>2020-05-16T22:07:42Z</time></trkpt><trkpt lat="44.230198971927166" lon="-115.0778030231595"><ele>2000.0</ele><time>2020-05-16T22:07:50Z</time></trkpt><trkpt lat="44.230155972763896" lon="-115.07797703146935"><ele>2000.0</ele><time>2020-05-16T22:08:01Z</time></trkpt><trkpt lat="44.230151027441025" lon="-115.07817601785064"><ele>2002.0</ele><time>2020-05-16T22:08:11Z</time></trkpt><trkpt lat="44.23013401217759" lon="-115.07824097760022"><ele>2002.4</ele><time>2020-05-16T22:08:15Z</time></trkpt><trkpt lat="44.23013702966273" lon="-115.07831197232008"><ele>2002.0</ele><time>2020-05-16T22:08:18Z</time></trkpt><trkpt lat="44.23018204048276" lon="-115.07854498922825"><ele>2003.0</ele><time>2020-05-16T22:08:30Z</time></trkpt><trkpt lat="44.230216993018985" lon="-115.07867398671806"><ele>2004.0</ele><time>2020-05-16T22:08:36Z</time></trkpt><trkpt lat="44.23026703298092" lon="-115.07898001000285"><ele>2002.0</ele><time>2020-05-16T22:08:53Z</time></trkpt><trkpt lat="44.23026602715254" lon="-115.07914898917079"><ele>2002.0</ele><time>2020-05-16T22:09:01Z</time></trkpt><trkpt lat="44.230219004675746" lon="-115.07942299358547"><ele>2003.0</ele><time>2020-05-16T22:09:16Z</time></trkpt><trkpt lat="44.230237025767565" lon="-115.0795319583267"><ele>2002.0</ele><time>2020-05-16T22:09:23Z</time></trkpt><trkpt lat="44.230240965262055" lon="-115.07964603602886"><ele>2002.0</ele><time>2020-05-16T22:09:29Z</time></trkpt><trkpt lat="44.23022202216089" lon="-115.07976698689163"><ele>2002.0</ele><time>2020-05-16T22:09:35Z</time></trkpt><trkpt lat="44.23022101633251" lon="-115.0798929668963"><ele>2002.0</ele><time>2020-05-16T22:09:41Z</time></trkpt><trkpt lat="44.23021104186773" lon="-115.07995599880815"><ele>2003.0</ele><time>2020-05-16T22:09:45Z</time></trkpt><trkpt lat="44.23021296970546" lon="-115.07999396882951"><ele>2004.0</ele><time>2020-05-16T22:09:48Z</time></trkpt><trkpt lat="44.23023199662566" lon="-115.08000897243619"><ele>2004.0</ele><time>2020-05-16T22:09:52Z</time></trkpt><trkpt lat="44.23020802438259" lon="-115.08015800267458"><ele>2006.0</ele><time>2020-05-16T22:10:02Z</time></trkpt><trkpt lat="44.2301470041275" lon="-115.08030502125621"><ele>2004.0</ele><time>2020-05-16T22:10:11Z</time></trkpt><trkpt lat="44.23012001439929" lon="-115.08048598654568"><ele>2002.0</ele><time>2020-05-16T22:10:19Z</time></trkpt><trkpt lat="44.23012102022767" lon="-115.0805589929223"><ele>2004.0</ele><time>2020-05-16T22:10:23Z</time></trkpt><trkpt lat="44.23009101301432" lon="-115.08071598596871"><ele>2002.0</ele><time>2020-05-16T22:10:31Z</time></trkpt><trkpt lat="44.23005999997258" lon="-115.08081195876002"><ele>2001.0</ele><time>2020-05-16T22:10:38Z</time></trkpt><trkpt lat="44.23003502190113" lon="-115.080840960145"><ele>2000.0</ele><time>2020-05-16T22:10:40Z</time></trkpt><trkpt lat="44.229995040223" lon="-115.08093299344182"><ele>2000.0</ele><time>2020-05-16T22:10:45Z</time></trkpt><trkpt lat="44.229983976110816" lon="-115.08104899898171"><ele>2000.0</ele><time>2020-05-16T22:10:51Z</time></trkpt><trkpt lat="44.22994500026107" lon="-115.08120800368488"><ele>2000.0</ele><time>2020-05-16T22:10:59Z</time></trkpt><trkpt lat="44.22992798499763" lon="-115.08124203421175"><ele>2001.0</ele><time>2020-05-16T22:11:02Z</time></trkpt><trkpt lat="44.22988599166274" lon="-115.08124396204948"><ele>2000.0</ele><time>2020-05-16T22:11:06Z</time></trkpt><trkpt lat="44.2298829741776" lon="-115.08128000423312"><ele>2002.0</ele><time>2020-05-16T22:11:09Z</time></trkpt><trkpt lat="44.22992303967476" lon="-115.08148100227118"><ele>2002.0</ele><time>2020-05-16T22:11:19Z</time></trkpt><trkpt lat="44.230086989700794" lon="-115.08175299502909"><ele>2000.0</ele><time>2020-05-16T22:11:37Z</time></trkpt><trkpt lat="44.23009101301432" lon="-115.08178803138435"><ele>1999.0</ele><time>2020-05-16T22:11:40Z</time></trkpt><trkpt lat="44.2300729919225" lon="-115.08185299113393"><ele>1998.0</ele><time>2020-05-16T22:11:44Z</time></trkpt><trkpt lat="44.23010199330747" lon="-115.08196296170354"><ele>1998.0</ele><time>2020-05-16T22:11:51Z</time></trkpt><trkpt lat="44.23016896471381" lon="-115.08203303441405"><ele>1998.0</ele><time>2020-05-16T22:11:57Z</time></trkpt><trkpt lat="44.23027398996055" lon="-115.08218700997531"><ele>1998.0</ele><time>2020-05-16T22:12:07Z</time></trkpt><trkpt lat="44.23039401881397" lon="-115.08228097110987"><ele>1996.0</ele><time>2020-05-16T22:12:16Z</time></trkpt><trkpt lat="44.230452021583915" lon="-115.08230997249484"><ele>1995.0</ele><time>2020-05-16T22:12:20Z</time></trkpt><trkpt lat="44.230476999655366" lon="-115.08233503438532"><ele>1995.9</ele><time>2020-05-16T22:12:23Z</time></trkpt><trkpt lat="44.23048303462565" lon="-115.08236797526479"><ele>1991.0</ele><time>2020-05-16T22:12:27Z</time></trkpt><trkpt lat="44.2305080126971" lon="-115.08239697664976"><ele>1992.0</ele><time>2020-05-16T22:12:31Z</time></trkpt><trkpt lat="44.23072099685669" lon="-115.08247601799667"><ele>1992.0</ele><time>2020-05-16T22:12:46Z</time></trkpt><trkpt lat="44.23087203875184" lon="-115.08248599246144"><ele>1994.0</ele><time>2020-05-16T22:12:54Z</time></trkpt><trkpt lat="44.23091000877321" lon="-115.08250803686678"><ele>1990.0</ele><time>2020-05-16T22:12:58Z</time></trkpt><trkpt lat="44.23094202764332" lon="-115.08249797858298"><ele>1992.0</ele><time>2020-05-16T22:13:02Z</time></trkpt><trkpt lat="44.23108502291143" lon="-115.08255204185843"><ele>1993.0</ele><time>2020-05-16T22:13:10Z</time></trkpt><trkpt lat="44.23112601041794" lon="-115.08255204185843"><ele>1993.8</ele><time>2020-05-16T22:13:14Z</time></trkpt><trkpt lat="44.23115601763129" lon="-115.08257701992989"><ele>1992.0</ele><time>2020-05-16T22:13:17Z</time></trkpt><trkpt lat="44.23122399486601" lon="-115.0825989805162"><ele>1993.0</ele><time>2020-05-16T22:13:21Z</time></trkpt><trkpt lat="44.23132700845599" lon="-115.08259101770818"><ele>1993.0</ele><time>2020-05-16T22:13:29Z</time></trkpt><trkpt lat="44.23142901621759" lon="-115.08263301104307"><ele>1994.0</ele><time>2020-05-16T22:13:36Z</time></trkpt><trkpt lat="44.23150202259421" lon="-115.08261901326478"><ele>1992.0</ele><time>2020-05-16T22:13:40Z</time></trkpt><trkpt lat="44.23153404146433" lon="-115.0826230365783"><ele>1992.0</ele><time>2020-05-16T22:13:42Z</time></trkpt><trkpt lat="44.231636971235275" lon="-115.08268003351986"><ele>1992.0</ele><time>2020-05-16T22:13:50Z</time></trkpt><trkpt lat="44.23178097233176" lon="-115.08265295997262"><ele>1993.0</ele><time>2020-05-16T22:14:05Z</time></trkpt><trkpt lat="44.231847021728754" lon="-115.08267902769148"><ele>1994.0</ele><time>2020-05-16T22:14:11Z</time></trkpt><trkpt lat="44.23192396759987" lon="-115.08268003351986"><ele>1994.0</ele><time>2020-05-16T22:14:16Z</time></trkpt><trkpt lat="44.232022035866976" lon="-115.08267198689282"><ele>1992.0</ele><time>2020-05-16T22:14:22Z</time></trkpt><trkpt lat="44.23209998756647" lon="-115.08264700882137"><ele>1994.0</ele><time>2020-05-16T22:14:26Z</time></trkpt><trkpt lat="44.23216201364994" lon="-115.0826040096581"><ele>1994.0</ele><time>2020-05-16T22:14:30Z</time></trkpt><trkpt lat="44.232238959521055" lon="-115.08251801133156"><ele>1996.0</ele><time>2020-05-16T22:14:36Z</time></trkpt><trkpt lat="44.232299979776144" lon="-115.08248900994658"><ele>1997.0</ele><time>2020-05-16T22:14:40Z</time></trkpt><trkpt lat="44.232365023344755" lon="-115.08240602910519"><ele>2004.0</ele><time>2020-05-16T22:14:46Z</time></trkpt><trkpt lat="44.2324230261147" lon="-115.08236898109317"><ele>2004.0</ele><time>2020-05-16T22:14:50Z</time></trkpt><trkpt lat="44.232603991404176" lon="-115.08234802633524"><ele>1998.0</ele><time>2020-05-16T22:15:02Z</time></trkpt><trkpt lat="44.23267900943756" lon="-115.08232799358666"><ele>1998.0</ele><time>2020-05-16T22:15:08Z</time></trkpt><trkpt lat="44.23271496780217" lon="-115.08233503438532"><ele>1998.0</ele><time>2020-05-16T22:15:11Z</time></trkpt><trkpt lat="44.23280498944223" lon="-115.08240200579166"><ele>1998.0</ele><time>2020-05-16T22:15:18Z</time></trkpt><trkpt lat="44.23284698277712" lon="-115.08241097442806"><ele>1998.0</ele><time>2020-05-16T22:15:21Z</time></trkpt><trkpt lat="44.2329499963671" lon="-115.08238398469985"><ele>1997.0</ele><time>2020-05-16T22:15:28Z</time></trkpt><trkpt lat="44.23310003243387" lon="-115.08239203132689"><ele>2000.0</ele><time>2020-05-16T22:15:40Z</time></trkpt><trkpt lat="44.233372025191784" lon="-115.08245296776295"><ele>2000.0</ele><time>2020-05-16T22:15:59Z</time></trkpt><trkpt lat="44.2334540002048" lon="-115.08249496109784"><ele>1998.0</ele><time>2020-05-16T22:16:04Z</time></trkpt><trkpt lat="44.233481995761395" lon="-115.08252496831119"><ele>1998.0</ele><time>2020-05-16T22:16:07Z</time></trkpt><trkpt lat="44.23360495828092" lon="-115.08255204185843"><ele>1998.0</ele><time>2020-05-16T22:16:15Z</time></trkpt><trkpt lat="44.233636977151036" lon="-115.08256796747446"><ele>1998.0</ele><time>2020-05-16T22:16:17Z</time></trkpt><trkpt lat="44.23368802294135" lon="-115.08263200521469"><ele>1998.0</ele><time>2020-05-16T22:16:22Z</time></trkpt><trkpt lat="44.23382397741079" lon="-115.08275999687612"><ele>1998.2</ele><time>2020-05-16T22:16:33Z</time></trkpt><trkpt lat="44.23390695825219" lon="-115.08279796689749"><ele>1998.0</ele><time>2020-05-16T22:16:38Z</time></trkpt><trkpt lat="44.23396999016404" lon="-115.0828490126878"><ele>1998.0</ele><time>2020-05-16T22:16:42Z</time></trkpt><trkpt lat="44.234063029289246" lon="-115.08289997465909"><ele>2001.0</ele><time>2020-05-16T22:16:49Z</time></trkpt><trkpt lat="44.23411700874567" lon="-115.0829409621656"><ele>2001.0</ele><time>2020-05-16T22:16:55Z</time></trkpt><trkpt lat="44.23419797793031" lon="-115.08294196799397"><ele>2000.0</ele><time>2020-05-16T22:17:01Z</time></trkpt><trkpt lat="44.234338039532304" lon="-115.08298999629915"><ele>1998.0</ele><time>2020-05-16T22:17:11Z</time></trkpt><trkpt lat="44.23440299928188" lon="-115.0830289721489"><ele>1998.0</ele><time>2020-05-16T22:17:15Z</time></trkpt><trkpt lat="44.2345040012151" lon="-115.08312301710248"><ele>1998.1</ele><time>2020-05-16T22:17:23Z</time></trkpt><trkpt lat="44.23470097593963" lon="-115.08325302042067"><ele>1998.0</ele><time>2020-05-16T22:17:34Z</time></trkpt><trkpt lat="44.23473701812327" lon="-115.08329601958394"><ele>1998.0</ele><time>2020-05-16T22:17:36Z</time></trkpt><trkpt lat="44.2348700389266" lon="-115.08354999125004"><ele>1998.0</ele><time>2020-05-16T22:17:50Z</time></trkpt><trkpt lat="44.23498202115297" lon="-115.08366297930479"><ele>1997.0</ele><time>2020-05-16T22:18:00Z</time></trkpt><trkpt lat="44.235026026144624" lon="-115.08364101871848"><ele>1996.0</ele><time>2020-05-16T22:18:06Z</time></trkpt><trkpt lat="44.235180001705885" lon="-115.08368301205337"><ele>1998.0</ele><time>2020-05-16T22:18:20Z</time></trkpt><trkpt lat="44.23525501973927" lon="-115.08373296819627"><ele>1998.0</ele><time>2020-05-16T22:18:35Z</time></trkpt><trkpt lat="44.23530195839703" lon="-115.0837229937315"><ele>1996.0</ele><time>2020-05-16T22:18:45Z</time></trkpt><trkpt lat="44.235350992530584" lon="-115.08365803398192"><ele>2000.0</ele><time>2020-05-16T22:18:54Z</time></trkpt><trkpt lat="44.235397009178996" lon="-115.0836489815265"><ele>2000.0</ele><time>2020-05-16T22:18:59Z</time></trkpt><trkpt lat="44.23550899140537" lon="-115.08366297930479"><ele>2001.0</ele><time>2020-05-16T22:19:09Z</time></trkpt><trkpt lat="44.23563899472356" lon="-115.08357396349311"><ele>2000.0</ele><time>2020-05-16T22:19:21Z</time></trkpt><trkpt lat="44.23568903468549" lon="-115.08351101540029"><ele>1999.0</ele><time>2020-05-16T22:19:26Z</time></trkpt><trkpt lat="44.235758017748594" lon="-115.08353599347174"><ele>2000.0</ele><time>2020-05-16T22:19:31Z</time></trkpt><trkpt lat="44.23583496361971" lon="-115.08354999125004"><ele>1998.0</ele><time>2020-05-16T22:19:36Z</time></trkpt><trkpt lat="44.23590302467346" lon="-115.08354001678526"><ele>1998.0</ele><time>2020-05-16T22:19:41Z</time></trkpt><trkpt lat="44.235998997464776" lon="-115.08357899263501"><ele>1998.0</ele><time>2020-05-16T22:19:50Z</time></trkpt><trkpt lat="44.23608700744808" lon="-115.08360103704035"><ele>1998.0</ele><time>2020-05-16T22:19:56Z</time></trkpt><trkpt lat="44.236231008544564" lon="-115.08358896709979"><ele>1998.0</ele><time>2020-05-16T22:20:06Z</time></trkpt><trkpt lat="44.2362620215863" lon="-115.08359600789845"><ele>1998.0</ele><time>2020-05-16T22:20:08Z</time></trkpt><trkpt lat="44.23649302683771" lon="-115.08369399234653"><ele>1995.0</ele><time>2020-05-16T22:20:26Z</time></trkpt><trkpt lat="44.23656703904271" lon="-115.08374101482332"><ele>1996.0</ele><time>2020-05-16T22:20:35Z</time></trkpt><trkpt lat="44.23658003099263" lon="-115.08377303369343"><ele>1996.0</ele><time>2020-05-16T22:20:37Z</time></trkpt><trkpt lat="44.23666703514755" lon="-115.08385400287807"><ele>1996.0</ele><time>2020-05-16T22:20:43Z</time></trkpt><trkpt lat="44.23675999045372" lon="-115.08397897705436"><ele>1994.0</ele><time>2020-05-16T22:20:51Z</time></trkpt><trkpt lat="44.23682201653719" lon="-115.08409095928073"><ele>2001.0</ele><time>2020-05-16T22:21:07Z</time></trkpt><trkpt lat="44.23690700903535" lon="-115.08417301811278"><ele>2002.0</ele><time>2020-05-16T22:21:14Z</time></trkpt><trkpt lat="44.23703600652516" lon="-115.08438600227237"><ele>2000.0</ele><time>2020-05-16T22:21:29Z</time></trkpt><trkpt lat="44.23710901290178" lon="-115.08446202613413"><ele>1999.0</ele><time>2020-05-16T22:21:36Z</time></trkpt><trkpt lat="44.237196017056704" lon="-115.08451198227704"><ele>1998.0</ele><time>2020-05-16T22:21:44Z</time></trkpt><trkpt lat="44.23734001815319" lon="-115.08464198559523"><ele>1998.0</ele><time>2020-05-16T22:21:56Z</time></trkpt><trkpt lat="44.237413024529815" lon="-115.08468196727335"><ele>1998.0</ele><time>2020-05-16T22:22:01Z</time></trkpt><trkpt lat="44.237436996772885" lon="-115.08472002111375"><ele>1998.0</ele><time>2020-05-16T22:22:03Z</time></trkpt><trkpt lat="44.23749298788607" lon="-115.08476997725666"><ele>1999.0</ele><time>2020-05-16T22:22:08Z</time></trkpt><trkpt lat="44.23754897899926" lon="-115.0847869925201"><ele>1998.0</ele><time>2020-05-16T22:22:12Z</time></trkpt><trkpt lat="44.23768401145935" lon="-115.0848969630897"><ele>1998.0</ele><time>2020-05-16T22:22:24Z</time></trkpt><trkpt lat="44.23773203976452" lon="-115.08495999500155"><ele>1998.0</ele><time>2020-05-16T22:22:29Z</time></trkpt><trkpt lat="44.237801022827625" lon="-115.08498396724463"><ele>1998.0</ele><time>2020-05-16T22:22:35Z</time></trkpt><trkpt lat="44.23789800144732" lon="-115.08515898138285"><ele>1998.0</ele><time>2020-05-16T22:22:45Z</time></trkpt><trkpt lat="44.23796497285366" lon="-115.08548797108233"><ele>1998.0</ele><time>2020-05-16T22:22:59Z</time></trkpt><trkpt lat="44.237995985895395" lon="-115.08549802936614"><ele>1998.0</ele><time>2020-05-16T22:23:01Z</time></trkpt><trkpt lat="44.2380890250206" lon="-115.08544597774744"><ele>1998.0</ele><time>2020-05-16T22:23:09Z</time></trkpt><trkpt lat="44.23815197311342" lon="-115.08542804047465"><ele>1998.0</ele><time>2020-05-16T22:23:13Z</time></trkpt><trkpt lat="44.23824400641024" lon="-115.08537498302758"><ele>1998.0</ele><time>2020-05-16T22:23:21Z</time></trkpt><trkpt lat="44.238298991695046" lon="-115.08531597442925"><ele>1998.0</ele><time>2020-05-16T22:23:27Z</time></trkpt><trkpt lat="44.23835397697985" lon="-115.0852080155164"><ele>1998.0</ele><time>2020-05-16T22:23:33Z</time></trkpt><trkpt lat="44.23848398029804" lon="-115.0850650202483"><ele>1998.0</ele><time>2020-05-16T22:23:44Z</time></trkpt><trkpt lat="44.23854600638151" lon="-115.08494800888002"><ele>1998.0</ele><time>2020-05-16T22:23:50Z</time></trkpt><trkpt lat="44.23870098777115" lon="-115.08471398614347"><ele>1998.0</ele><time>2020-05-16T22:24:05Z</time></trkpt><trkpt lat="44.238831996917725" lon="-115.08464600890875"><ele>1998.0</ele><time>2020-05-16T22:24:15Z</time></trkpt><trkpt lat="44.239092003554106" lon="-115.08456202223897"><ele>1998.0</ele><time>2020-05-16T22:24:31Z</time></trkpt><trkpt lat="44.23929803073406" lon="-115.08446202613413"><ele>1998.0</ele><time>2020-05-16T22:24:45Z</time></trkpt><trkpt lat="44.239351004362106" lon="-115.08440402336419"><ele>1998.0</ele><time>2020-05-16T22:24:50Z</time></trkpt><trkpt lat="44.239415964111686" lon="-115.08436404168606"><ele>1998.0</ele><time>2020-05-16T22:24:55Z</time></trkpt><trkpt lat="44.23952803015709" lon="-115.08423496037722"><ele>1998.0</ele><time>2020-05-16T22:25:06Z</time></trkpt><trkpt lat="44.23957698047161" lon="-115.08419196121395"><ele>1998.0</ele><time>2020-05-16T22:25:10Z</time></trkpt><trkpt lat="44.23966197296977" lon="-115.08408299647272"><ele>1998.0</ele><time>2020-05-16T22:25:18Z</time></trkpt><trkpt lat="44.239799017086625" lon="-115.08385500870645"><ele>1998.7</ele><time>2020-05-16T22:25:33Z</time></trkpt><trkpt lat="44.23987898044288" lon="-115.0837970059365"><ele>1998.0</ele><time>2020-05-16T22:25:40Z</time></trkpt><trkpt lat="44.239970007911325" lon="-115.08365996181965"><ele>1998.0</ele><time>2020-05-16T22:25:48Z</time></trkpt><trkpt lat="44.24000697210431" lon="-115.08345804177225"><ele>1998.6</ele><time>2020-05-16T22:25:55Z</time></trkpt><trkpt lat="44.2400489654392" lon="-115.08333398960531"><ele>1998.0</ele><time>2020-05-16T22:26:01Z</time></trkpt><trkpt lat="44.24007100984454" lon="-115.08329601958394"><ele>1998.0</ele><time>2020-05-16T22:26:03Z</time></trkpt><trkpt lat="44.24016295932233" lon="-115.08322795853019"><ele>1998.0</ele><time>2020-05-16T22:26:10Z</time></trkpt><trkpt lat="44.24022297374904" lon="-115.08313500322402"><ele>1998.0</ele><time>2020-05-16T22:26:17Z</time></trkpt><trkpt lat="44.24036999233067" lon="-115.0829599890858"><ele>1998.0</ele><time>2020-05-16T22:26:30Z</time></trkpt><trkpt lat="44.24040402285755" lon="-115.08295303210616"><ele>1998.0</ele><time>2020-05-16T22:26:32Z</time></trkpt><trkpt lat="44.24043201841414" lon="-115.08292998187244"><ele>1998.0</ele><time>2020-05-16T22:26:34Z</time></trkpt><trkpt lat="44.24049999564886" lon="-115.0827800296247"><ele>1998.0</ele><time>2020-05-16T22:26:42Z</time></trkpt><trkpt lat="44.240503013134" lon="-115.08268497884274"><ele>1998.0</ele><time>2020-05-16T22:26:46Z</time></trkpt><trkpt lat="44.24045699648559" lon="-115.08248196914792"><ele>1997.0</ele><time>2020-05-16T22:27:00Z</time></trkpt><trkpt lat="44.240462025627494" lon="-115.08203697390854"><ele>1997.0</ele><time>2020-05-16T22:27:25Z</time></trkpt><trkpt lat="44.24050200730562" lon="-115.08194200694561"><ele>1997.0</ele><time>2020-05-16T22:27:31Z</time></trkpt><trkpt lat="44.240548023954034" lon="-115.08187503553927"><ele>1996.0</ele><time>2020-05-16T22:27:35Z</time></trkpt><trkpt lat="44.240637961775064" lon="-115.08180898614228"><ele>1996.0</ele><time>2020-05-16T22:27:41Z</time></trkpt><trkpt lat="44.240688001737" lon="-115.08174997754395"><ele>1996.0</ele><time>2020-05-16T22:27:45Z</time></trkpt><trkpt lat="44.240744998678565" lon="-115.08170496672392"><ele>1996.0</ele><time>2020-05-16T22:27:50Z</time></trkpt><trkpt lat="44.24084398895502" lon="-115.08157596923411"><ele>1996.0</ele><time>2020-05-16T22:28:00Z</time></trkpt><trkpt lat="44.24101799726486" lon="-115.08145099505782"><ele>1996.0</ele><time>2020-05-16T22:28:15Z</time></trkpt><trkpt lat="44.241111036390066" lon="-115.0813499931246"><ele>1996.0</ele><time>2020-05-16T22:28:23Z</time></trkpt><trkpt lat="44.241150012239814" lon="-115.08129400201142"><ele>1996.0</ele><time>2020-05-16T22:28:27Z</time></trkpt><trkpt lat="44.24125202000141" lon="-115.08107699453831"><ele>1996.0</ele><time>2020-05-16T22:28:39Z</time></trkpt><trkpt lat="44.24127699807286" lon="-115.08104396983981"><ele>1995.0</ele><time>2020-05-16T22:28:41Z</time></trkpt><trkpt lat="44.24146902747452" lon="-115.08098496124148"><ele>1995.0</ele><time>2020-05-16T22:28:56Z</time></trkpt><trkpt lat="44.24159098416567" lon="-115.08098797872663"><ele>1996.0</ele><time>2020-05-16T22:29:05Z</time></trkpt><trkpt lat="44.24166499637067" lon="-115.08100700564682"><ele>1996.0</ele><time>2020-05-16T22:29:09Z</time></trkpt><trkpt lat="44.24176096916199" lon="-115.08101002313197"><ele>1996.0</ele><time>2020-05-16T22:29:14Z</time></trkpt><trkpt lat="44.241815032437444" lon="-115.08092402480543"><ele>1996.0</ele><time>2020-05-16T22:29:22Z</time></trkpt><trkpt lat="44.241906981915236" lon="-115.08085696958005"><ele>1995.0</ele><time>2020-05-16T22:29:28Z</time></trkpt><trkpt lat="44.242121977731586" lon="-115.08060299791396"><ele>1996.0</ele><time>2020-05-16T22:29:47Z</time></trkpt><trkpt lat="44.242245024070144" lon="-115.08037400431931"><ele>1996.0</ele><time>2020-05-16T22:30:03Z</time></trkpt><trkpt lat="44.24225701019168" lon="-115.08033603429794"><ele>1997.3</ele><time>2020-05-16T22:30:06Z</time></trkpt><trkpt lat="44.24225499853492" lon="-115.08022296242416"><ele>1996.0</ele><time>2020-05-16T22:30:13Z</time></trkpt><trkpt lat="44.24229900352657" lon="-115.08003897964954"><ele>1996.0</ele><time>2020-05-16T22:30:21Z</time></trkpt><trkpt lat="44.24230998381972" lon="-115.07991098798811"><ele>1996.0</ele><time>2020-05-16T22:30:27Z</time></trkpt><trkpt lat="44.24238600768149" lon="-115.07947202771902"><ele>1996.0</ele><time>2020-05-16T22:30:48Z</time></trkpt><trkpt lat="44.24240201711655" lon="-115.07925200276077"><ele>1996.0</ele><time>2020-05-16T22:30:58Z</time></trkpt><trkpt lat="44.24242900684476" lon="-115.07909199222922"><ele>1996.0</ele><time>2020-05-16T22:31:06Z</time></trkpt><trkpt lat="44.24242498353124" lon="-115.07897397503257"><ele>1996.0</ele><time>2020-05-16T22:31:12Z</time></trkpt><trkpt lat="44.24243797548115" lon="-115.07886400446296"><ele>1995.0</ele><time>2020-05-16T22:31:18Z</time></trkpt><trkpt lat="44.24249002709985" lon="-115.07866996340454"><ele>1996.0</ele><time>2020-05-16T22:31:28Z</time></trkpt><trkpt lat="44.24247502349317" lon="-115.07845203392208"><ele>1995.0</ele><time>2020-05-16T22:31:36Z</time></trkpt><trkpt lat="44.242376033216715" lon="-115.07806696929038"><ele>1994.0</ele><time>2020-05-16T22:31:55Z</time></trkpt><trkpt lat="44.242379972711205" lon="-115.07794098928571"><ele>1994.0</ele><time>2020-05-16T22:32:01Z</time></trkpt><trkpt lat="44.242421966046095" lon="-115.07779497653246"><ele>1994.0</ele><time>2020-05-16T22:32:09Z</time></trkpt><trkpt lat="44.24245499074459" lon="-115.0777239818126"><ele>1994.0</ele><time>2020-05-16T22:32:13Z</time></trkpt><trkpt lat="44.242508970201015" lon="-115.07766597904265"><ele>1994.0</ele><time>2020-05-16T22:32:18Z</time></trkpt><trkpt lat="44.242591029033065" lon="-115.07742499932647"><ele>1994.0</ele><time>2020-05-16T22:32:30Z</time></trkpt><trkpt lat="44.242719020694494" lon="-115.07694203406572"><ele>1994.0</ele><time>2020-05-16T22:32:54Z</time></trkpt><trkpt lat="44.24275799654424" lon="-115.07663399912417"><ele>1994.0</ele><time>2020-05-16T22:33:10Z</time></trkpt><trkpt lat="44.24279898405075" lon="-115.07651296444237"><ele>1994.0</ele><time>2020-05-16T22:33:16Z</time></trkpt><trkpt lat="44.24286696128547" lon="-115.07637499831617"><ele>1994.0</ele><time>2020-05-16T22:33:23Z</time></trkpt><trkpt lat="44.24294399097562" lon="-115.07617098279297"><ele>1994.0</ele><time>2020-05-16T22:33:35Z</time></trkpt><trkpt lat="44.24298799596727" lon="-115.07587501779199"><ele>1994.0</ele><time>2020-05-16T22:33:49Z</time></trkpt><trkpt lat="44.24299302510917" lon="-115.07575197145343"><ele>1994.0</ele><time>2020-05-16T22:34:13Z</time></trkpt><trkpt lat="44.243020014837384" lon="-115.07573897950351"><ele>1994.0</ele><time>2020-05-16T22:34:15Z</time></trkpt><trkpt lat="44.24309100955725" lon="-115.0756340380758"><ele>1994.0</ele><time>2020-05-16T22:34:24Z</time></trkpt><trkpt lat="44.24327398650348" lon="-115.07540898397565"><ele>1994.0</ele><time>2020-05-16T22:34:41Z</time></trkpt><trkpt lat="44.243326960131526" lon="-115.07536196149886"><ele>1994.0</ele><time>2020-05-16T22:34:45Z</time></trkpt><trkpt lat="44.243474984541535" lon="-115.07526598870754"><ele>1992.0</ele><time>2020-05-16T22:34:56Z</time></trkpt><trkpt lat="44.24355000257492" lon="-115.07518602535129"><ele>1994.0</ele><time>2020-05-16T22:35:02Z</time></trkpt><trkpt lat="44.24358302727342" lon="-115.07517797872424"><ele>1992.0</ele><time>2020-05-16T22:35:05Z</time></trkpt><trkpt lat="44.24361697398126" lon="-115.07515199482441"><ele>1993.0</ele><time>2020-05-16T22:35:07Z</time></trkpt><trkpt lat="44.24372300505638" lon="-115.07505501620471"><ele>1994.0</ele><time>2020-05-16T22:35:15Z</time></trkpt><trkpt lat="44.243793999776244" lon="-115.07494999095798"><ele>1994.7</ele><time>2020-05-16T22:35:23Z</time></trkpt><trkpt lat="44.24384898506105" lon="-115.07491302676499"><ele>1992.0</ele><time>2020-05-16T22:35:27Z</time></trkpt><trkpt lat="44.24396398477256" lon="-115.07484798319638"><ele>1992.0</ele><time>2020-05-16T22:35:36Z</time></trkpt><trkpt lat="44.24408996477723" lon="-115.07481101900339"><ele>1992.0</ele><time>2020-05-16T22:35:47Z</time></trkpt><trkpt lat="44.24428300000727" lon="-115.07469199597836"><ele>1992.0</ele><time>2020-05-16T22:35:59Z</time></trkpt><trkpt lat="44.24431501887739" lon="-115.07468403317034"><ele>1992.0</ele><time>2020-05-16T22:36:01Z</time></trkpt><trkpt lat="44.244377966970205" lon="-115.07469099014997"><ele>1992.0</ele><time>2020-05-16T22:36:05Z</time></trkpt><trkpt lat="44.244463965296745" lon="-115.07468202151358"><ele>1992.0</ele><time>2020-05-16T22:36:11Z</time></trkpt><trkpt lat="44.24455801025033" lon="-115.07465503178537"><ele>1992.0</ele><time>2020-05-16T22:36:17Z</time></trkpt><trkpt lat="44.244635039940476" lon="-115.07457800209522"><ele>1991.0</ele><time>2020-05-16T22:36:23Z</time></trkpt><trkpt lat="44.24468197859824" lon="-115.07447599433362"><ele>1992.0</ele><time>2020-05-16T22:36:29Z</time></trkpt><trkpt lat="44.24471097998321" lon="-115.07444598712027"><ele>1992.0</ele><time>2020-05-16T22:36:31Z</time></trkpt><trkpt lat="44.24474601633847" lon="-115.0744360126555"><ele>1992.0</ele><time>2020-05-16T22:36:33Z</time></trkpt><trkpt lat="44.24503896385431" lon="-115.07456903345883"><ele>1992.0</ele><time>2020-05-16T22:36:53Z</time></trkpt><trkpt lat="44.24507601186633" lon="-115.07456400431693"><ele>1992.0</ele><time>2020-05-16T22:36:55Z</time></trkpt><trkpt lat="44.24535303376615" lon="-115.07434003986418"><ele>1993.0</ele><time>2020-05-16T22:37:15Z</time></trkpt><trkpt lat="44.24541003070772" lon="-115.07430399768054"><ele>1992.0</ele><time>2020-05-16T22:37:19Z</time></trkpt><trkpt lat="44.245474990457296" lon="-115.07428103126585"><ele>1994.0</ele><time>2020-05-16T22:37:23Z</time></trkpt><trkpt lat="44.24560499377549" lon="-115.0741960387677"><ele>1992.0</ele><time>2020-05-16T22:37:34Z</time></trkpt><trkpt lat="44.24571597017348" lon="-115.07405203767121"><ele>1992.0</ele><time>2020-05-16T22:37:44Z</time></trkpt><trkpt lat="44.24578000791371" lon="-115.0740200188011"><ele>1992.0</ele><time>2020-05-16T22:37:49Z</time></trkpt><trkpt lat="44.24589299596846" lon="-115.07393100298941"><ele>1990.0</ele><time>2020-05-16T22:37:59Z</time></trkpt><trkpt lat="44.24595896154642" lon="-115.07389202713966"><ele>1988.0</ele><time>2020-05-16T22:38:04Z</time></trkpt><trkpt lat="44.24604102037847" lon="-115.07387702353299"><ele>1990.0</ele><time>2020-05-16T22:38:10Z</time></trkpt><trkpt lat="44.24619298428297" lon="-115.07377400994301"><ele>1992.0</ele><time>2020-05-16T22:38:21Z</time></trkpt><trkpt lat="44.24628401175141" lon="-115.07365800440311"><ele>1990.0</ele><time>2020-05-16T22:38:29Z</time></trkpt><trkpt lat="44.246351988986135" lon="-115.07362196221948"><ele>1989.0</ele><time>2020-05-16T22:38:34Z</time></trkpt><trkpt lat="44.246414015069604" lon="-115.07350897416472"><ele>1990.0</ele><time>2020-05-16T22:38:41Z</time></trkpt><trkpt lat="44.24649900756776" lon="-115.07324301637709"><ele>1990.0</ele><time>2020-05-16T22:38:55Z</time></trkpt><trkpt lat="44.246611995622516" lon="-115.07305400446057"><ele>1990.0</ele><time>2020-05-16T22:39:06Z</time></trkpt><trkpt lat="44.24661903642118" lon="-115.07291997782886"><ele>1990.0</ele><time>2020-05-16T22:39:13Z</time></trkpt><trkpt lat="44.246681984514" lon="-115.07268201559782"><ele>1990.0</ele><time>2020-05-16T22:39:21Z</time></trkpt><trkpt lat="44.246677961200476" lon="-115.0726039800793"><ele>1988.0</ele><time>2020-05-16T22:39:26Z</time></trkpt><trkpt lat="44.24669195897877" lon="-115.07253298535943"><ele>1989.0</ele><time>2020-05-16T22:39:30Z</time></trkpt><trkpt lat="44.24676697701216" lon="-115.07241798564792"><ele>1990.0</ele><time>2020-05-16T22:39:39Z</time></trkpt><trkpt lat="44.24681500531733" lon="-115.07226903922856"><ele>1989.0</ele><time>2020-05-16T22:39:47Z</time></trkpt><trkpt lat="44.2468529753387" lon="-115.0722009781748"><ele>1989.0</ele><time>2020-05-16T22:39:52Z</time></trkpt><trkpt lat="44.24688499420881" lon="-115.07200601510704"><ele>1988.0</ele><time>2020-05-16T22:40:03Z</time></trkpt><trkpt lat="44.24709999002516" lon="-115.07149203680456"><ele>1990.0</ele><time>2020-05-16T22:40:31Z</time></trkpt><trkpt lat="44.247126979753375" lon="-115.07133102044463"><ele>1992.0</ele><time>2020-05-16T22:40:39Z</time></trkpt><trkpt lat="44.247123040258884" lon="-115.07113303989172"><ele>1989.0</ele><time>2020-05-16T22:40:51Z</time></trkpt><trkpt lat="44.247146006673574" lon="-115.07105198688805"><ele>1992.0</ele><time>2020-05-16T22:40:58Z</time></trkpt><trkpt lat="44.24718397669494" lon="-115.07098803296685"><ele>1992.0</ele><time>2020-05-16T22:41:02Z</time></trkpt><trkpt lat="44.247234016656876" lon="-115.0709389988333"><ele>1991.0</ele><time>2020-05-16T22:41:06Z</time></trkpt><trkpt lat="44.247276009991765" lon="-115.07087797857821"><ele>1990.0</ele><time>2020-05-16T22:41:10Z</time></trkpt><trkpt lat="44.24735303968191" lon="-115.07072299718857"><ele>1992.0</ele><time>2020-05-16T22:41:18Z</time></trkpt><trkpt lat="44.24737902358174" lon="-115.07053297944367"><ele>1992.0</ele><time>2020-05-16T22:41:26Z</time></trkpt><trkpt lat="44.24742202274501" lon="-115.07036902941763"><ele>1993.0</ele><time>2020-05-16T22:41:33Z</time></trkpt><trkpt lat="44.24744096584618" lon="-115.0702500063926"><ele>1994.0</ele><time>2020-05-16T22:41:39Z</time></trkpt><trkpt lat="44.247447000816464" lon="-115.07006702944636"><ele>1994.0</ele><time>2020-05-16T22:41:47Z</time></trkpt><trkpt lat="44.24743702635169" lon="-115.06989503279328"><ele>1994.0</ele><time>2020-05-16T22:41:55Z</time></trkpt><trkpt lat="44.24745303578675" lon="-115.06981397978961"><ele>1994.0</ele><time>2020-05-16T22:41:59Z</time></trkpt><trkpt lat="44.24748798832297" lon="-115.06969998590648"><ele>1996.0</ele><time>2020-05-16T22:42:05Z</time></trkpt><trkpt lat="44.24755102023482" lon="-115.06954902783036"><ele>1996.0</ele><time>2020-05-16T22:42:13Z</time></trkpt><trkpt lat="44.247575998306274" lon="-115.06952497176826"><ele>1996.0</ele><time>2020-05-16T22:42:15Z</time></trkpt><trkpt lat="44.24763299524784" lon="-115.06950200535357"><ele>1996.0</ele><time>2020-05-16T22:42:19Z</time></trkpt><trkpt lat="44.24768001772463" lon="-115.06944400258362"><ele>1996.0</ele><time>2020-05-16T22:42:24Z</time></trkpt><trkpt lat="44.24769602715969" lon="-115.06922598928213"><ele>1996.0</ele><time>2020-05-16T22:42:34Z</time></trkpt><trkpt lat="44.2477319855243" lon="-115.06900202482939"><ele>1998.0</ele><time>2020-05-16T22:42:44Z</time></trkpt><trkpt lat="44.24775402992964" lon="-115.06873296573758"><ele>1997.0</ele><time>2020-05-16T22:42:58Z</time></trkpt><trkpt lat="44.24777900800109" lon="-115.06862098351121"><ele>1998.0</ele><time>2020-05-16T22:43:04Z</time></trkpt><trkpt lat="44.24786198884249" lon="-115.06843599490821"><ele>1998.0</ele><time>2020-05-16T22:43:14Z</time></trkpt><trkpt lat="44.24806298688054" lon="-115.06809996441007"><ele>1996.0</ele><time>2020-05-16T22:43:36Z</time></trkpt><trkpt lat="44.24809601157904" lon="-115.06800298579037"><ele>1997.0</ele><time>2020-05-16T22:43:42Z</time></trkpt><trkpt lat="44.24810598604381" lon="-115.06792503409088"><ele>1997.0</ele><time>2020-05-16T22:43:46Z</time></trkpt><trkpt lat="44.247976988554" lon="-115.0675159972161"><ele>1994.0</ele><time>2020-05-16T22:44:08Z</time></trkpt><trkpt lat="44.24786299467087" lon="-115.06726998835802"><ele>1994.0</ele><time>2020-05-16T22:44:22Z</time></trkpt><trkpt lat="44.247836004942656" lon="-115.06709204055369"><ele>1992.0</ele><time>2020-05-16T22:44:30Z</time></trkpt><trkpt lat="44.24767498858273" lon="-115.06675601005554"><ele>1990.0</ele><time>2020-05-16T22:44:50Z</time></trkpt><trkpt lat="44.24759401939809" lon="-115.06647395901382"><ele>1986.0</ele><time>2020-05-16T22:45:04Z</time></trkpt><trkpt lat="44.24756300635636" lon="-115.06639500148594"><ele>1987.0</ele><time>2020-05-16T22:45:08Z</time></trkpt><trkpt lat="44.24748295918107" lon="-115.06625100038946"><ele>1988.0</ele><time>2020-05-16T22:45:16Z</time></trkpt><trkpt lat="44.247382963076234" lon="-115.0661189854145"><ele>1987.0</ele><time>2020-05-16T22:45:25Z</time></trkpt><trkpt lat="44.24735002219677" lon="-115.06610800512135"><ele>1986.0</ele><time>2020-05-16T22:45:28Z</time></trkpt><trkpt lat="44.24730400554836" lon="-115.06610800512135"><ele>1986.0</ele><time>2020-05-16T22:45:31Z</time></trkpt><trkpt lat="44.24727299250662" lon="-115.06608696654439"><ele>1986.0</ele><time>2020-05-16T22:45:33Z</time></trkpt><trkpt lat="44.24724197946489" lon="-115.06593500263989"><ele>1977.0</ele><time>2020-05-16T22:50:05Z</time></trkpt><trkpt lat="44.2472930252552" lon="-115.0659120362252"><ele>1990.0</ele><time>2020-05-16T22:55:51Z</time></trkpt><trkpt lat="44.247214989736676" lon="-115.06588202901185"><ele>1992.0</ele><time>2020-05-16T22:56:04Z</time></trkpt><trkpt lat="44.247168973088264" lon="-115.06572503596544"><ele>1992.0</ele><time>2020-05-16T22:56:14Z</time></trkpt><trkpt lat="44.247106024995446" lon="-115.06559201516211"><ele>1992.0</ele><time>2020-05-16T22:56:20Z</time></trkpt></trkseg></trk></gpx>